[[{"header":{"parameterUnit":"m.s-1","parameterCategory":1,"la1":31.0,"la2":29.5877,"lo1":-88.7671,"lo2":-86.6584,"dy":0.0162,"dx":0.0185,"nx":115,"ny":88,"refTime":"2026-03-09T12:00:00:Z","depth":0,"parameterNumber":2,"parameterNumberName":"U-component_of_WINDS"},"data":[0.0,0.0,0.0,0.0,0.0,0.0,0.0,0.0,0.0,0.0,0.0,0.0,0.0,0.0,0.0,0.0,0.0,0.0,0.0,0.0,0.0,0.0,0.0,0.0,0.0,0.0,0.0,0.0,0.0,0.0,0.0,0.0,0.0,0.0,0.0,0.0,0.0,0.0,0.0,0.0,0.0,0.0,0.0,0.0,0.0,0.0,0.0,0.0,0.0,0.0,0.0,0.0,0.0,0.0,0.0,0.0,0.0,0.0,0.0,0.0,0.0,0.0,0.0,0.0,0.0,0.0,0.0,0.0,0.0,0.0,0.0,0.0,0.0,0.0,0.0,0.0,0.0,0.0,0.0,0.0,0.0,0.0,0.0,0.0,0.0,0.0,0.0,0.0,0.0,0.0,0.0,0.0,0.0,0.0,0.0,0.0,0.0,0.0,0.0,0.0,0.0,0.0,0.0,0.0,0.0,0.0,0.0,0.0,0.0,0.0,0.0,0.0,0.0,0.0,0.0,0.0,0.0,0.0,0.0,0.0,0.0,0.0,0.0,0.0,0.0,0.0,0.0,0.0,0.0,0.0,0.0,0.0,0.0,0.0,0.0,0.0,0.0,0.0,0.0,0.0,0.0,0.0,0.0,0.0,0.0,0.0,0.0,0.0,0.0,0.0,0.0,0.0,0.0,0.0,0.0,0.0,0.0,0.0,0.0,0.0,0.0,0.0,0.0,0.0,0.0,0.0,0.0,0.0,0.0,0.0,0.0,0.0,0.0,0.0,0.0,0.0,0.0,0.0,0.0,0.0,0.0,0.0,0.0,0.0,0.0,0.0,0.0,0.0,0.0,0.0,0.0,0.0,0.0,0.0,0.0,0.0,0.0,0.0,0.0,0.0,0.0,0.0,0.0,0.0,0.0,0.0,0.0,0.0,0.0,0.0,0.0,0.0,0.0,0.0,0.0,0.0,0.0,0.0,0.0,0.0,0.0,0.0,0.0,0.0,0.0,0.0,0.0,0.0,0.0,0.0,0.0,0.0,0.0,0.0,0.0,0.0,0.0,0.0,0.0,0.0,0.0,0.0,0.0,0.0,0.0,0.0,0.0,0.0,0.0,0.0,0.0,0.0,0.0,0.0,0.0,0.0,0.0,0.0,0.0,0.0,0.0,0.0,0.0,0.0,0.0,0.0,0.0,0.0,0.0,0.0,0.0,0.0,0.0,0.0,0.0,0.0,0.0,0.0,0.0,0.0,0.0,0.0,0.0,0.0,0.0,0.0,0.0,0.0,0.0,0.0,0.0,0.0,0.0,0.0,0.0,0.0,0.0,0.0,0.0,0.0,0.0,0.0,0.0,0.0,0.0,0.0,0.0,0.0,0.0,0.0,0.0,0.0,0.0,0.0,0.0,0.0,0.0,0.0,0.0,0.0,0.0,0.0,0.0,0.0,0.0,0.0,0.0,0.0,0.0,0.0,0.0,0.0,0.0,0.0,0.0,0.0,0.0,0.0,0.0,0.0,0.0,0.0,0.0,0.0,0.0,0.0,0.0,0.0,0.0,0.0,0.0,0.0,0.0,0.0,0.0,0.0,0.0,0.0,0.0,0.0,0.0,0.0,0.0,0.0,0.0,0.0,0.0,0.0,0.0,0.0,0.0,0.0,0.0,0.0,0.0,0.0,0.0,0.0,0.0,0.0,0.0,0.0,0.0,0.0,0.0,0.0,0.0,0.0,0.0,0.0,0.0,0.0,0.0,0.0,0.0,0.0,0.0,0.0,0.0,0.0,0.0,0.0,0.0,0.0,0.0,0.0,0.0,0.0,0.0,0.0,0.0,0.0,0.0,0.0,0.0,0.0,0.0,0.0,0.0,0.0,0.0,0.0,0.0,0.0,0.0,0.0,0.0,0.0,0.0,0.0,0.0,0.0,0.0,0.0,0.0,0.0,0.0,0.0,0.0,0.0,0.0,0.0,0.0,0.0,0.0,0.0,0.0,0.0,0.0,0.0,0.0,0.0,0.0,0.0,0.0,0.0,0.0,0.0,0.0,0.0,0.0,0.0,0.0,0.0,0.0,0.0,0.0,0.0,0.0,0.0,0.0,0.0,0.0,0.0,0.0,0.0,0.0,0.0,0.0,0.0,0.0,0.0,0.0,0.0,0.0,0.0,0.0,0.0,0.0,0.0,0.0,0.0,0.0,0.0,0.0,0.0,0.0,0.0,0.0,0.0,0.0,0.0,0.0,0.0,0.0,0.0,0.0,0.0,0.0,0.0,0.0,0.0,0.0,0.0,0.0,0.0,0.0,0.0,0.0,0.0,0.0,0.0,0.0,0.0,0.0,0.0,0.0,0.0,0.0,0.0,0.0,0.0,0.0,0.0,0.0,0.0,0.0,0.0,0.0,0.0,0.0,0.0,0.0,0.0,0.0,0.0,0.0,0.0,0.0,0.0,0.0,0.0,0.0,0.0,0.0,0.0,0.0,0.0,0.0,0.0,0.0,0.0,0.0,0.0,0.0,0.0,0.0,0.0,0.0,0.0,0.0,0.0,0.0,0.0,0.0,0.0,0.0,0.0,0.0,0.0,0.0,0.0,0.0,0.0,0.0,0.0,0.0,0.0,0.0,0.0,0.0,0.0,0.0,0.0,0.0,0.0,0.0,0.0,0.0,0.0,0.0,0.0,0.0,0.0,0.0,0.0,0.0,0.0,0.0,0.0,0.0,0.0,0.0,0.0,0.0,0.0,0.0,0.0,0.0,0.0,0.0,0.0,0.0,0.0,0.0,0.0,0.0,0.0,0.0,0.0,0.0,0.0,0.0,0.0,0.0,0.0,0.0,0.0,0.0,0.0,0.0,0.0,0.0,0.0,0.0,0.0,0.0,0.0,0.0,0.0,0.0,0.0,0.0,0.0,0.0,0.0,0.0,0.0,0.0,0.0,0.0,0.0,0.0,0.0,0.0,0.0,0.0,0.0,0.0,0.0,0.0,0.0,0.0,0.0,0.0,0.0,0.0,0.0,0.0,0.0,0.0,0.0,0.0,0.0,0.0,0.0,0.0,0.0,0.0,0.0,0.0,0.0,0.0,0.0,0.0,0.0,0.0,0.0,0.0,0.0,0.0,0.0,0.0,0.0,0.0,0.0,0.0,0.0,0.0,0.0,0.0,0.0,0.0,0.0,0.0,0.0,0.0,0.0,0.0,0.0,0.0,0.0,0.0,0.0,0.0,0.0,0.0,0.0,0.0,0.0,0.0,0.0,0.0,0.0,0.0,0.0,0.0,0.0,0.0,0.0,0.0,0.0,0.0,0.0,0.0,0.0,0.0,0.0,0.0,0.0,0.0,0.0,0.0,0.0,0.0,0.0,0.0,0.0,0.0,0.0,0.0,0.0,0.0,0.0,0.0,0.0,0.0,0.0,0.0,0.0,0.0,0.0,0.0,0.0,0.0,0.0,0.0,0.0,0.0,0.0,0.0,0.0,0.0,0.0,0.0,0.0,0.0,0.0,0.0,0.0,0.0,0.0,0.0,0.0,0.0,0.0,0.0,0.0,0.0,0.0,0.0,0.0,0.0,0.0,0.0,0.0,0.0,0.0,0.0,0.0,0.0,0.0,0.0,0.0,0.0,0.0,0.0,0.0,0.0,0.0,0.0,0.0,0.0,0.0,0.0,0.0,0.0,0.0,0.0,0.0,0.0,0.0,0.0,0.0,0.0,0.0,0.0,0.0,0.0,0.0,0.0,0.0,0.0,0.0,0.0,0.0,0.0,0.0,0.0,0.0,0.0,0.0,0.0,0.0,0.0,0.0,0.0,0.0,0.0,0.0,0.0,0.0,0.0,0.0,0.0,0.0,0.0,0.0,0.0,0.0,0.0,0.0,0.0,0.0,0.0,0.0,0.0,0.0,0.0,0.0,0.0,0.0,0.0,0.0,0.0,0.0,0.0,0.0,0.0,0.0,0.0,0.0,0.0,0.0,0.0,0.0,0.0,0.0,0.0,0.0,0.0,0.0,0.0,0.0,0.0,0.0,0.0,0.0,0.0,0.0,0.0,0.0,0.0,0.0,0.0,0.0,0.0,0.0,0.0,0.0,0.0,0.0,0.0,0.0,0.0,0.0,0.0,0.0,0.0,0.0,0.0,0.0,0.0,0.0,0.0,0.0,0.0,0.0,0.0,0.0,0.0,0.0,0.0,0.0,0.0,0.0,0.0,0.0,0.0,0.0,0.0,0.0,0.0,0.0,0.0,0.0,0.0,0.0,0.0,0.0,0.0,0.0,0.0,0.0,0.0,0.0,3.2466,0.0,0.0,0.0,0.0,0.0,0.0,0.0,0.0,0.0,0.0,0.0,0.0,0.0,0.0,0.0,0.0,0.0,0.0,0.0,0.0,0.0,0.0,0.0,0.0,0.0,0.0,0.0,0.0,0.0,0.0,0.0,0.0,0.0,0.0,0.0,0.0,0.0,0.0,0.0,0.0,0.0,0.0,0.0,0.0,0.0,0.0,0.0,0.0,0.0,0.0,0.0,0.0,0.0,0.0,0.0,0.0,0.0,0.0,0.0,0.0,0.0,0.0,0.0,0.0,0.0,0.0,0.0,0.0,0.0,0.0,0.0,0.0,0.0,0.0,0.0,0.0,0.0,0.0,0.0,0.0,0.0,0.0,0.0,0.0,0.0,0.0,0.0,0.0,0.0,0.0,0.0,0.0,0.0,0.0,0.0,0.0,0.0,0.0,0.0,0.0,0.0,0.0,0.0,0.0,0.0,0.0,0.0,0.0,0.0,0.0,3.5201,3.4813,3.4507,3.3943,3.2876,0.0,0.0,0.0,0.0,0.0,0.0,0.0,0.0,0.0,0.0,0.0,0.0,0.0,0.0,0.0,0.0,0.0,0.0,0.0,0.0,0.0,0.0,0.0,0.0,0.0,0.0,0.0,0.0,0.0,0.0,0.0,0.0,0.0,0.0,0.0,0.0,0.0,0.0,0.0,0.0,0.0,0.0,0.0,0.0,0.0,0.0,0.0,0.0,0.0,0.0,0.0,0.0,0.0,0.0,0.0,0.0,0.0,0.0,0.0,0.0,0.0,0.0,0.0,0.0,0.0,0.0,0.0,0.0,0.0,0.0,0.0,0.0,0.0,0.0,0.0,0.0,0.0,0.0,0.0,0.0,0.0,0.0,0.0,0.0,0.0,0.0,0.0,0.0,0.0,0.0,0.0,0.0,0.0,0.0,0.0,0.0,0.0,0.0,0.0,0.0,0.0,0.0,0.0,0.0,0.0,0.0,0.0,0.0,0.0,0.0,0.0,0.0,3.5138,3.4242,3.2803,0.0,0.0,0.0,0.0,0.0,0.0,0.0,0.0,0.0,0.0,0.0,0.0,0.0,0.0,0.0,0.0,0.0,0.0,0.0,0.0,0.0,0.0,0.0,0.0,0.0,0.0,0.0,0.0,0.0,0.0,0.0,0.0,0.0,0.0,0.0,0.0,0.0,0.0,0.0,0.0,0.0,0.0,0.0,0.0,0.0,0.0,0.0,0.0,0.0,0.0,0.0,0.0,0.0,0.0,0.0,0.0,0.0,0.0,0.0,0.0,0.0,0.0,0.0,0.0,0.0,0.0,0.0,0.0,0.0,0.0,0.0,0.0,0.0,0.0,0.0,0.0,0.0,0.0,0.0,0.0,0.0,0.0,0.0,0.0,0.0,0.0,0.0,0.0,0.0,0.0,0.0,0.0,0.0,0.0,0.0,0.0,0.0,0.0,0.0,0.0,0.0,0.0,0.0,0.0,0.0,0.0,0.0,0.0,0.0,0.0,3.6215,3.5942,3.5552,0.0,3.1373,0.0,0.0,0.0,0.0,0.0,0.0,0.0,0.0,0.0,0.0,0.0,0.0,0.0,0.0,0.0,0.0,0.0,0.0,0.0,0.0,0.0,0.0,0.0,0.0,0.0,0.0,0.0,0.0,0.0,0.0,0.0,0.0,0.0,0.0,0.0,0.0,0.0,0.0,0.0,0.0,0.0,0.0,0.0,0.0,0.0,0.0,0.0,0.0,0.0,0.0,0.0,0.0,0.0,0.0,0.0,0.0,0.0,0.0,0.0,0.0,0.0,0.0,0.0,0.0,0.0,0.0,0.0,0.0,0.0,0.0,0.0,0.0,0.0,0.0,0.0,0.0,0.0,0.0,0.0,0.0,0.0,0.0,0.0,0.0,0.0,0.0,0.0,0.0,0.0,0.0,0.0,0.0,0.0,0.0,0.0,0.0,0.0,0.0,0.0,0.0,0.0,0.0,0.0,0.0,0.0,0.0,0.0,0.0,0.0,0.0,0.0,3.618,3.4919,3.3463,0.0,0.0,0.0,0.0,0.0,0.0,0.0,0.0,0.0,0.0,0.0,0.0,0.0,0.0,0.0,0.0,0.0,0.0,0.0,0.0,0.0,0.0,0.0,0.0,0.0,0.0,0.0,0.0,0.0,0.0,0.0,0.0,0.0,0.0,0.0,0.0,0.0,0.0,0.0,0.0,0.0,0.0,0.0,0.0,0.0,0.0,0.0,0.0,0.0,0.0,0.0,0.0,0.0,0.0,0.0,0.0,0.0,0.0,0.0,0.0,0.0,0.0,0.0,0.0,0.0,0.0,0.0,0.0,0.0,0.0,0.0,0.0,0.0,0.0,0.0,0.0,0.0,0.0,0.0,0.0,0.0,0.0,0.0,0.0,0.0,0.0,0.0,0.0,0.0,0.0,0.0,0.0,0.0,0.0,0.0,0.0,0.0,0.0,0.0,0.0,0.0,0.0,0.0,0.0,0.0,0.0,0.0,0.0,0.0,0.0,3.6721,0.0,3.6046,3.4299,3.2959,3.2202,0.0,0.0,0.0,0.0,0.0,0.0,0.0,0.0,0.0,0.0,0.0,0.0,0.0,0.0,0.0,0.0,0.0,0.0,0.0,0.0,0.0,0.0,0.0,0.0,0.0,0.0,0.0,0.0,0.0,0.0,0.0,0.0,0.0,0.0,0.0,0.0,0.0,0.0,0.0,0.0,0.0,0.0,0.0,0.0,0.0,0.0,0.0,0.0,0.0,0.0,0.0,0.0,0.0,0.0,0.0,0.0,0.0,0.0,0.0,0.0,0.0,0.0,0.0,0.0,0.0,0.0,0.0,0.0,0.0,0.0,0.0,0.0,0.0,0.0,0.0,0.0,0.0,0.0,0.0,0.0,0.0,0.0,0.0,0.0,0.0,0.0,0.0,0.0,0.0,0.0,0.0,0.0,0.0,0.0,0.0,0.0,0.0,0.0,0.0,0.0,0.0,0.0,0.0,0.0,0.0,0.0,0.0,0.0,0.0,3.5967,3.587,3.544,3.3648,3.2594,0.0,0.0,0.0,0.0,0.0,0.0,0.0,0.0,0.0,0.0,0.0,0.0,0.0,0.0,0.0,0.0,0.0,0.0,0.0,0.0,0.0,0.0,0.0,0.0,0.0,0.0,0.0,0.0,0.0,0.0,0.0,0.0,0.0,0.0,0.0,0.0,0.0,0.0,0.0,0.0,0.0,0.0,0.0,0.0,0.0,0.0,0.0,0.0,0.0,0.0,0.0,0.0,0.0,0.0,0.0,0.0,0.0,0.0,0.0,0.0,0.0,0.0,0.0,0.0,0.0,0.0,0.0,0.0,0.0,0.0,0.0,0.0,0.0,0.0,0.0,0.0,0.0,0.0,0.0,0.0,0.0,0.0,0.0,0.0,0.0,0.0,0.0,0.0,0.0,0.0,0.0,0.0,0.0,0.0,0.0,0.0,0.0,0.0,0.0,0.0,0.0,0.0,0.0,0.0,0.0,0.0,0.0,0.0,0.0,3.5152,3.5338,3.5063,3.4257,3.3349,3.2616,0.0,0.0,0.0,0.0,0.0,0.0,0.0,0.0,0.0,0.0,0.0,0.0,0.0,0.0,0.0,0.0,0.0,0.0,0.0,0.0,0.0,0.0,0.0,0.0,0.0,0.0,0.0,0.0,0.0,0.0,0.0,0.0,0.0,0.0,0.0,0.0,0.0,0.0,0.0,0.0,0.0,0.0,0.0,0.0,0.0,0.0,0.0,0.0,0.0,0.0,0.0,0.0,0.0,0.0,0.0,0.0,0.0,0.0,0.0,0.0,0.0,0.0,0.0,0.0,0.0,0.0,0.0,0.0,0.0,0.0,0.0,0.0,0.0,0.0,0.0,0.0,0.0,0.0,0.0,0.0,0.0,0.0,0.0,0.0,0.0,0.0,0.0,0.0,0.0,0.0,0.0,0.0,0.0,0.0,0.0,0.0,0.0,0.0,0.0,0.0,0.0,0.0,0.0,0.0,0.0,0.0,0.0,0.0,0.0,3.4327,0.0,3.4462,0.0,3.2967,3.2323,0.0,0.0,0.0,0.0,0.0,0.0,0.0,0.0,0.0,0.0,0.0,0.0,0.0,0.0,0.0,0.0,0.0,0.0,0.0,0.0,0.0,0.0,0.0,0.0,0.0,0.0,0.0,0.0,0.0,0.0,0.0,0.0,0.0,0.0,0.0,0.0,0.0,0.0,0.0,0.0,0.0,0.0,0.0,0.0,0.0,0.0,0.0,0.0,0.0,0.0,0.0,0.0,0.0,0.0,0.0,0.0,0.0,0.0,0.0,0.0,0.0,0.0,0.0,0.0,0.0,0.0,0.0,0.0,0.0,0.0,0.0,0.0,0.0,0.0,0.0,0.0,0.0,0.0,0.0,0.0,0.0,0.0,0.0,0.0,0.0,0.0,0.0,0.0,0.0,0.0,0.0,0.0,0.0,0.0,0.0,0.0,0.0,0.0,0.0,0.0,0.0,0.0,0.0,0.0,0.0,0.0,0.0,0.0,3.2759,3.3407,3.4199,3.4438,3.3751,3.2612,3.1724,0.0,0.0,0.0,0.0,0.0,0.0,0.0,0.0,0.0,0.0,0.0,0.0,0.0,0.0,0.0,0.0,0.0,0.0,0.0,0.0,0.0,0.0,0.0,0.0,0.0,0.0,0.0,0.0,0.0,0.0,0.0,0.0,0.0,0.0,0.0,0.0,0.0,0.0,0.0,0.0,0.0,0.0,0.0,0.0,0.0,0.0,0.0,0.0,0.0,0.0,0.0,0.0,0.0,0.0,0.0,0.0,0.0,0.0,0.0,0.0,0.0,0.0,0.0,0.0,0.0,0.0,0.0,0.0,0.0,0.0,0.0,0.0,0.0,0.0,0.0,0.0,0.0,0.0,0.0,0.0,0.0,0.0,0.0,0.0,0.0,0.0,0.0,0.0,0.0,0.0,0.0,0.0,0.0,0.0,0.0,0.0,0.0,0.0,0.0,0.0,0.0,0.0,0.0,0.0,0.0,0.0,0.0,0.0,0.0,3.5566,3.6988,3.7129,3.5876,3.4717,3.2693,0.0,0.0,0.0,0.0,0.0,0.0,0.0,0.0,0.0,0.0,0.0,0.0,0.0,0.0,0.0,0.0,0.0,0.0,0.0,0.0,0.0,0.0,0.0,0.0,0.0,0.0,0.0,0.0,0.0,0.0,0.0,0.0,0.0,0.0,0.0,0.0,0.0,0.0,0.0,0.0,0.0,0.0,0.0,0.0,0.0,0.0,0.0,0.0,0.0,0.0,0.0,0.0,0.0,0.0,0.0,0.0,0.0,0.0,0.0,0.0,0.0,0.0,0.0,0.0,0.0,0.0,0.0,0.0,0.0,0.0,0.0,0.0,0.0,0.0,0.0,0.0,0.0,0.0,0.0,0.0,0.0,0.0,0.0,0.0,0.0,0.0,0.0,0.0,0.0,0.0,0.0,0.0,0.0,0.0,0.0,0.0,0.0,0.0,0.0,0.0,0.0,0.0,0.0,0.0,0.0,0.0,0.0,0.0,0.0,4.2131,4.2677,4.2365,4.1307,3.9624,3.5755,2.9852,0.0,0.0,0.0,0.0,0.0,0.0,0.0,0.0,0.0,0.0,0.0,0.0,0.0,0.0,0.0,0.0,0.0,0.0,0.0,0.0,0.0,0.0,0.0,0.0,0.0,0.0,0.0,0.0,0.0,0.0,0.0,0.0,0.0,0.0,0.0,0.0,0.0,0.0,0.0,0.0,0.0,0.0,0.0,0.0,0.0,0.0,0.0,0.0,0.0,0.0,0.0,0.0,0.0,0.0,0.0,0.0,0.0,0.0,0.0,0.0,0.0,0.0,0.0,0.0,0.0,0.0,0.0,0.0,0.0,0.0,0.0,0.0,0.0,0.0,0.0,0.0,0.0,0.0,0.0,0.0,0.0,0.0,0.0,0.0,0.0,0.0,0.0,0.0,0.0,0.0,0.0,0.0,0.0,0.0,0.0,0.0,0.0,0.0,0.0,0.0,0.0,0.0,0.0,0.0,0.0,0.0,0.0,0.0,5.2177,5.1151,5.0229,4.9413,4.6524,4.0777,0.0,0.0,0.0,0.0,0.0,0.0,0.0,0.0,0.0,0.0,0.0,0.0,0.0,0.0,0.0,0.0,0.0,0.0,0.0,0.0,0.0,0.0,0.0,0.0,0.0,0.0,0.0,0.0,0.0,0.0,0.0,0.0,0.0,0.0,0.0,0.0,0.0,0.0,0.0,0.0,0.0,0.0,0.0,0.0,0.0,0.0,0.0,0.0,0.0,0.0,0.0,0.0,0.0,0.0,0.0,0.0,0.0,0.0,0.0,0.0,0.0,0.0,0.0,0.0,0.0,0.0,0.0,0.0,0.0,0.0,0.0,0.0,0.0,0.0,0.0,0.0,0.0,0.0,0.0,0.0,0.0,0.0,0.0,0.0,0.0,0.0,0.0,0.0,0.0,0.0,0.0,0.0,0.0,0.0,0.0,0.0,0.0,0.0,0.0,0.0,0.0,0.0,0.0,0.0,0.0,0.0,0.0,0.0,0.0,5.9134,6.5174,6.5,5.7866,5.2748,4.7056,0.0,0.0,0.0,0.0,0.0,0.0,0.0,0.0,0.0,0.0,0.0,0.0,0.0,0.0,0.0,0.0,0.0,0.0,0.0,0.0,0.0,0.0,0.0,0.0,0.0,0.0,0.0,0.0,0.0,0.0,0.0,0.0,0.0,0.0,0.0,0.0,0.0,0.0,0.0,0.0,0.0,0.0,0.0,0.0,0.0,0.0,0.0,0.0,0.0,0.0,0.0,0.0,0.0,0.0,0.0,0.0,0.0,0.0,0.0,0.0,0.0,0.0,0.0,0.0,0.0,0.0,0.0,0.0,0.0,0.0,0.0,0.0,0.0,0.0,0.0,0.0,0.0,0.0,0.0,0.0,0.0,0.0,0.0,0.0,0.0,0.0,0.0,0.0,0.0,0.0,0.0,0.0,0.0,0.0,0.0,0.0,0.0,0.0,0.0,0.0,0.0,0.0,0.0,0.0,0.0,0.0,0.0,0.0,5.6616,6.4663,7.4235,7.6381,7.0802,6.1913,5.3659,0.0,0.0,0.0,0.0,0.0,0.0,0.0,0.0,0.0,0.0,0.0,0.0,0.0,0.0,0.0,0.0,0.0,0.0,0.0,0.0,0.0,0.0,0.0,0.0,0.0,0.0,0.0,0.0,0.0,0.0,0.0,0.0,0.0,0.0,0.0,0.0,0.0,0.0,0.0,0.0,0.0,0.0,0.0,0.0,0.0,0.0,0.0,0.0,0.0,0.0,0.0,0.0,0.0,0.0,0.0,0.0,0.0,0.0,0.0,0.0,0.0,0.0,0.0,0.0,0.0,0.0,0.0,0.0,0.0,0.0,0.0,0.0,0.0,0.0,0.0,0.0,0.0,0.0,0.0,0.0,0.0,0.0,0.0,0.0,0.0,0.0,0.0,0.0,0.0,0.0,0.0,0.0,0.0,0.0,0.0,0.0,0.0,0.0,0.0,0.0,0.0,0.0,0.0,0.0,0.0,0.0,0.0,0.0,6.2063,6.946,7.9449,8.4602,8.4069,7.1692,6.0345,0.0,0.0,0.0,0.0,0.0,0.0,0.0,0.0,0.0,0.0,0.0,0.0,0.0,0.0,0.0,0.0,0.0,0.0,0.0,0.0,0.0,0.0,0.0,0.0,0.0,0.0,0.0,0.0,0.0,0.0,0.0,0.0,0.0,0.0,0.0,0.0,0.0,0.0,0.0,0.0,0.0,0.0,0.0,0.0,0.0,0.0,0.0,0.0,0.0,0.0,0.0,0.0,0.0,0.0,0.0,0.0,0.0,0.0,0.0,0.0,0.0,0.0,0.0,0.0,0.0,0.0,0.0,0.0,0.0,0.0,0.0,0.0,0.0,0.0,0.0,0.0,0.0,0.0,0.0,0.0,0.0,0.0,0.0,0.0,0.0,0.0,0.0,0.0,0.0,0.0,0.0,0.0,0.0,0.0,0.0,0.0,0.0,0.0,0.0,0.0,0.0,0.0,0.0,0.0,0.0,0.0,0.0,0.0,6.586,7.4339,8.2717,8.6518,8.5681,7.4573,6.5057,0.0,0.0,0.0,0.0,0.0,0.0,0.0,0.0,0.0,0.0,0.0,0.0,0.0,0.0,0.0,0.0,0.0,0.0,0.0,0.0,0.0,0.0,0.0,0.0,0.0,0.0,0.0,0.0,0.0,0.0,0.0,0.0,0.0,0.0,0.0,0.0,0.0,0.0,0.0,0.0,0.0,0.0,0.0,0.0,0.0,0.0,0.0,0.0,0.2602,0.0,0.0,0.0,0.0,0.0,0.0,0.0,0.0,0.0,0.0,0.0,0.0,0.0,0.0,0.0,0.0,0.0,0.0,0.0,0.0,0.0,0.0,0.0,0.0,0.0,0.0,0.0,0.0,0.0,0.0,0.0,0.0,0.0,0.0,0.0,0.0,0.0,0.0,0.0,0.0,0.0,0.0,0.0,0.0,0.0,0.0,0.0,0.0,0.0,0.0,0.0,0.0,0.0,0.0,0.0,0.0,0.0,0.0,0.0,6.8798,7.8166,8.4542,8.7604,8.7363,7.8557,6.9553,0.0,0.0,0.0,0.0,0.0,0.0,0.0,0.0,0.0,0.0,0.0,0.0,0.0,0.0,0.0,0.0,0.0,0.0,0.0,0.0,0.0,0.0,0.0,0.0,0.0,0.0,0.0,0.0,0.0,0.0,0.0,0.0,0.0,0.0,0.0,0.0,0.0,0.0,0.0,0.0,0.0,0.0,0.0,0.0,0.0,0.0,0.0,0.0,0.0,0.0,0.0,0.0,0.0,0.0,0.0,0.0,0.0,0.0,0.0,0.0,0.0,0.0,0.0,0.0,0.0,0.0,0.0,0.0,0.0,0.0,0.0,0.0,0.0,0.0,0.0,0.0,0.0,0.0,0.0,0.0,0.0,0.0,0.0,0.0,0.0,0.0,0.0,0.0,0.0,0.0,0.0,0.0,0.0,0.0,0.0,0.0,0.0,0.0,0.0,0.0,0.0,0.0,0.0,0.0,0.0,0.0,0.0,6.1198,7.1174,8.1226,8.5747,8.8422,8.9026,8.1952,7.3249,6.2579,0.0,0.0,0.0,0.0,0.0,0.0,0.0,0.0,0.0,0.0,0.0,0.0,0.0,0.0,0.0,0.0,0.0,0.0,0.0,0.0,0.0,0.0,0.0,0.0,0.0,0.0,0.0,0.0,0.0,0.0,0.0,0.0,0.0,0.0,0.0,0.0,0.0,0.0,0.7407,0.6812,0.0,0.0,0.0,0.0,0.0,0.0,0.0,0.0,0.1699,0.0,0.0,0.0,0.0,0.0,0.0,0.0,0.0,0.0,0.0,0.0,0.0,0.0,0.0,0.0,0.0,0.0,0.0,0.0,0.0,0.0,0.0,0.0,0.0,0.0,0.0,0.0,0.0,0.0,0.0,0.0,0.0,0.0,0.0,0.0,0.0,0.0,0.0,0.0,0.0,0.0,0.0,0.0,0.0,0.0,0.0,0.0,0.0,0.0,0.0,0.0,0.0,0.0,0.0,0.0,0.0,5.6224,6.4407,7.3791,8.4039,8.7492,8.885,8.7748,8.1358,7.3379,6.3751,0.0,0.0,0.0,0.0,0.0,0.0,0.0,0.0,0.0,0.0,0.0,0.0,0.0,0.0,0.0,0.0,0.0,0.0,0.0,0.0,0.0,0.0,0.0,0.0,0.0,0.0,0.0,0.0,0.0,0.0,0.0,0.0,0.0,0.0,0.0,0.0,0.0,0.0,0.0,0.7911,0.7326,0.0,0.0,0.0,0.0,0.0,0.0,0.0,0.0,0.0268,0.0,0.0,0.0,0.0,0.0,0.0,0.0,0.0,0.0,0.0,0.0,0.0,0.0,0.0,0.0,0.0,0.0,0.0,0.0,0.0,0.0,0.0,0.0,0.0,0.0,0.0,0.0,0.0,0.0,0.0,0.0,0.0,0.0,0.0,0.0,0.0,0.0,0.0,0.0,0.0,0.0,0.0,0.0,0.0,0.0,0.0,0.0,0.0,0.0,0.0,0.0,0.0,0.0,0.0,0.0,5.8533,6.8065,7.7378,8.65,8.7807,8.8259,8.8046,8.0524,7.2343,0.0,0.0,0.0,0.0,0.0,0.0,0.0,0.0,0.0,0.0,0.0,0.0,0.0,0.0,0.0,0.0,0.0,0.0,0.0,0.0,0.0,0.0,0.0,0.0,0.0,0.0,0.0,0.0,0.0,0.0,0.0,0.0,0.0,0.0,0.0,0.0,0.0,0.0,0.0,0.0,0.885,0.9041,0.9844,0.0,0.0,0.0,0.0,0.0,0.0,0.1186,-0.0145,0.0,0.0,0.0,0.0,0.0,0.0,0.0,0.0,0.0,0.0,0.0,0.0,0.0,0.0,0.0,0.0,0.0,0.0,0.0,0.0,0.0,0.0,0.0,0.0,0.0,0.0,0.0,0.0,0.0,0.0,0.0,0.0,0.0,0.0,0.0,0.0,0.0,0.0,0.0,0.0,0.0,0.0,0.0,0.0,0.0,0.0,0.0,0.0,0.0,0.0,0.0,0.0,0.0,0.0,0.0,6.0189,7.1056,8.0404,8.7881,8.8059,8.8009,8.8208,7.9276,7.0437,0.0,0.0,0.0,0.0,0.0,0.0,0.0,0.0,0.0,0.0,0.0,0.0,0.0,0.0,0.0,0.0,0.0,0.0,0.0,0.0,0.0,0.0,0.0,0.0,0.0,0.0,0.0,0.0,0.0,0.0,0.0,0.0,0.0,0.0,0.0,0.0,0.0,0.0,0.0,0.0,0.0,1.0641,1.1622,0.963,0.0,0.0,0.0,0.0,0.2488,0.1443,0.0,0.0,0.0,0.0,0.0,0.0,0.0,0.0,0.0,0.0,0.0,0.0,0.0,0.0,0.0,0.0,0.0,0.0,0.0,0.0,0.0,0.0,0.0,0.0,0.0,0.0,0.0,0.0,0.0,0.0,0.0,0.0,0.0,0.0,0.0,0.0,0.0,0.0,0.0,0.0,0.0,0.0,0.0,0.0,0.0,0.0,0.0,0.0,0.0,0.0,0.0,0.0,0.0,0.0,0.0,0.0,6.1448,7.1929,8.0503,8.7329,8.811,8.831,8.7675,7.7051,6.7743,0.0,0.0,0.0,0.0,0.0,0.0,0.0,0.0,0.0,0.0,0.0,0.0,0.0,0.0,0.0,0.0,0.0,0.0,0.0,0.0,0.0,0.0,0.0,0.0,0.0,0.0,0.0,0.0,0.0,0.0,0.0,0.0,0.0,0.0,0.0,0.0,0.0,0.0,0.0,0.0,0.0,1.0999,1.2085,1.0451,0.8693,0.0,0.0,0.3343,0.2767,0.2036,0.0,0.0,0.0,0.0,0.0,0.0,0.0,0.0,0.0,0.0,0.0,0.0,0.0,0.0,0.0,0.0,0.0,0.0,0.0,0.0,0.0,0.0,0.0,0.0,0.0,0.0,0.0,0.0,0.0,0.0,0.0,0.0,0.0,0.0,0.0,0.0,0.0,0.0,0.0,0.0,0.0,0.0,0.0,0.0,0.0,0.0,0.0,0.0,0.0,0.0,0.0,0.0,0.0,0.0,0.0,5.2947,6.2727,7.5282,8.3876,8.8358,8.816,8.7807,8.7227,7.5857,6.6266,0.0,0.0,0.0,0.0,0.0,0.0,0.0,0.0,0.0,0.0,0.0,0.0,0.0,0.0,0.0,0.0,0.0,0.0,0.0,0.0,0.0,0.0,0.0,0.0,0.0,0.0,0.0,0.0,0.0,0.0,0.0,0.0,0.0,0.0,0.0,0.0,0.0,0.0,0.0,0.0,0.0,0.0,1.2624,1.187,0.0,0.0,0.0,0.4195,0.327,0.0,0.0,0.0,0.0,0.0,0.0,0.0,0.0,0.0,0.0,0.0,0.0,0.0,0.0,0.0,0.0,0.0,0.0,0.0,0.0,0.0,0.0,0.0,0.0,0.0,0.0,0.0,0.0,0.0,0.0,0.0,0.0,0.0,0.0,0.0,0.0,0.0,0.0,0.0,0.0,0.0,0.0,0.0,0.0,0.0,0.0,0.0,0.0,0.0,0.0,0.0,0.0,0.0,0.0,0.0,0.0,0.0,6.3836,7.7969,8.65,8.9136,8.8436,8.7581,8.6625,7.6108,0.0,0.0,0.0,0.0,0.0,0.0,0.0,0.0,0.0,0.0,0.0,0.0,0.0,0.0,0.0,0.0,0.0,0.0,0.0,0.0,0.0,0.0,0.0,0.0,0.0,0.0,0.0,0.8031,0.0,0.0,0.0,0.0,0.0,0.0,0.0,0.0,0.0,0.0,0.0,0.0,0.0,0.0,1.2137,1.3239,1.3148,1.254,0.0,0.0,0.4718,0.3481,0.287,0.2051,0.0,0.0,0.0,0.0,0.0,0.0,0.0,0.0,0.0,0.0,0.0,0.0,0.0,0.0,0.0,0.0,0.0,0.0,0.0,0.0,0.0,0.0,0.0,0.0,0.0,0.0,0.0,0.0,0.0,0.0,0.0,0.0,0.0,0.0,0.0,0.0,0.0,0.0,0.0,0.0,0.0,0.0,0.0,0.0,0.0,0.0,0.0,0.0,0.0,0.0,0.0,0.0,0.0,0.0,0.0,6.5306,7.8367,8.65,8.9136,8.8665,8.7807,8.6651,7.8744,6.9182,0.0,0.0,0.0,0.0,0.0,0.0,0.0,0.0,0.0,0.0,0.0,0.0,0.0,0.0,0.0,0.0,0.0,0.0,0.0,0.0,0.0,0.0,0.0,0.0,0.0,0.0,0.0,0.0,0.0,0.0,0.0,0.0,0.0,0.0,0.0,0.0,0.0,0.0,0.0,0.0,0.0,1.2312,1.3875,1.3939,1.3072,0.0,0.0,0.5258,0.3628,0.3666,0.318,0.1857,0.0,0.0,0.0,0.0,0.0,0.0,0.0,0.0,0.0,0.0,0.0,0.0,0.0,0.0,0.0,0.0,0.0,0.0,0.0,0.0,0.0,0.0,0.0,0.0,0.0,0.0,0.0,0.0,0.0,0.0,0.0,0.0,0.0,0.0,0.0,0.0,0.0,0.0,0.0,0.0,0.0,0.0,0.0,0.0,0.0,0.0,0.0,0.0,0.0,0.0,0.0,0.0,0.0,5.5984,6.4715,7.8218,8.6324,8.8634,8.8235,8.6849,8.4426,7.732,6.8685,0.0,0.0,0.0,0.0,0.0,0.0,0.0,0.0,0.0,0.0,0.0,0.0,0.0,0.0,0.0,0.0,0.0,0.0,0.0,0.0,0.0,0.0,0.0,0.0,0.0,0.0,0.0,0.0,1.206,1.1806,1.0017,0.0,0.0,0.0,0.0,0.0,0.0,0.0,0.0,0.0,0.0,1.3465,1.5161,1.4376,0.0,0.0,0.8076,0.5102,0.4089,0.3762,0.3457,0.314,0.1661,0.0,0.0,0.0,0.0,0.0,0.0,0.0,0.0,0.0,0.0,0.0,0.0,0.0,0.0,0.0,0.0,0.0,0.0,0.0,0.0,0.0,0.0,0.0,0.0,0.0,0.0,0.0,0.0,0.0,0.0,0.0,0.0,0.0,0.0,0.0,0.0,0.0,0.0,0.0,0.0,0.0,0.0,0.0,0.0,0.0,0.0,0.0,0.0,0.0,0.0,0.0,0.0,5.595,6.372,7.7104,8.4896,8.6986,8.604,8.4477,8.241,7.6614,6.8956,0.0,0.0,0.0,0.0,0.0,0.0,0.0,0.0,0.0,0.0,0.0,0.0,0.0,0.0,0.0,0.0,0.0,0.0,0.0,0.0,0.0,0.0,0.0,0.0,0.0,0.0,0.0,0.0,1.2366,1.159,0.9208,0.0,0.0,0.0,0.0,0.0,0.0,0.0,0.0,0.0,0.0,1.4562,1.5884,1.4774,1.3193,1.1589,0.79,0.5104,0.4044,0.3598,0.3479,0.3679,0.0,0.0,0.0,0.0,0.0,0.0,0.0,0.0,0.0,0.0,0.0,0.0,0.0,0.0,0.0,0.0,0.0,0.0,0.0,0.0,0.0,0.0,0.0,0.0,0.0,0.0,0.0,0.0,0.0,0.0,0.0,0.0,0.0,0.0,0.0,0.0,0.0,0.0,0.0,0.0,0.0,0.0,0.0,0.0,0.0,0.0,0.0,0.0,0.0,0.0,0.0,0.0,0.0,0.0,6.2018,7.4645,8.1963,8.3507,8.1872,8.1124,8.108,7.7275,7.0711,6.1237,0.0,0.0,0.0,0.0,0.0,0.0,0.0,0.0,0.0,0.0,0.0,0.0,0.0,0.0,0.0,0.0,0.0,0.0,0.0,0.0,0.0,0.0,0.0,0.0,0.0,0.0,1.0841,1.0415,0.9486,0.0,0.0,0.0,0.0,0.0,0.0,0.0,0.0,0.0,0.0,1.3614,1.5338,1.5206,1.458,1.3172,0.9775,0.7275,0.5202,0.3533,0.3273,0.3163,0.0,0.0,0.0,0.0,0.0,0.0,0.0,0.0,0.0,0.0,0.0,0.0,0.0,0.0,0.0,0.0,0.0,0.0,0.0,0.0,0.0,0.0,0.0,0.0,0.0,0.0,0.0,3.8966,3.7952,0.0,0.0,0.0,0.0,0.0,0.0,0.0,0.0,0.0,0.0,0.0,4.9342,4.9674,0.0,0.0,0.0,0.0,0.0,0.0,0.0,0.0,0.0,0.0,0.0,0.0,5.5059,6.2749,7.377,8.0438,8.1833,8.123,7.9535,7.7561,7.5114,6.8328,5.6146,0.0,0.0,0.0,0.0,0.0,0.0,0.0,0.0,0.0,0.0,0.0,0.0,0.0,0.0,0.0,0.0,0.0,0.0,0.0,0.0,0.0,0.0,0.0,0.0,0.0,1.22,0.0,0.0,0.0,0.0,0.0,0.0,0.0,0.0,0.0,0.0,0.0,1.0252,1.2716,1.4134,1.5214,1.5741,1.3841,1.1654,0.0,0.0,0.0,0.0,0.0,0.0,0.0,0.0,0.0,0.0,0.0,0.0,0.0,0.0,-0.4302,-0.4939,-0.5683,-0.6265,-0.6535,0.0,0.0,0.0,0.0,0.0,0.0,0.0,0.0,0.0,0.0,0.0,0.0,0.0,0.0,0.0,0.0,4.1719,0.0,0.0,0.0,0.0,0.0,0.0,0.0,0.0,5.3185,5.6488,5.7527,5.8218,5.7158,0.0,5.2444,4.7151,0.0,0.0,0.0,0.0,0.0,0.0,0.0,0.0,5.3793,6.2017,7.195,7.7747,7.9144,7.7988,7.6575,7.4915,7.2248,6.6091,5.6102,5.0346,4.3852,0.0,0.0,0.0,0.0,0.0,0.0,0.0,0.0,0.0,0.0,0.0,0.0,0.0,0.0,0.0,0.0,0.0,0.0,0.0,0.0,0.0,0.0,0.0,1.2208,0.0,0.0,0.0,0.0,0.0,0.0,0.0,0.0,0.0,0.7991,0.9983,1.2272,1.4313,1.5211,1.5649,1.5392,0.0,0.0,0.0,0.0,0.0,0.0,0.0,0.2913,0.2679,0.1797,0.0731,-0.0563,-0.1119,-0.167,-0.2822,0.0,0.0,-0.4344,-0.5531,-0.6546,-0.708,-0.8182,-0.9312,-0.9761,-1.0491,-1.0888,0.0,0.0,0.0,0.0,0.0,0.0,0.0,0.0,5.2046,5.0694,0.0,4.6701,0.0,0.0,0.0,0.0,0.0,0.0,0.0,0.0,6.6005,6.9276,6.5407,6.6999,6.6266,6.2934,6.0511,5.7708,5.4301,4.5074,0.0,0.0,0.0,0.0,0.0,0.0,5.2444,6.0228,6.9463,7.4621,7.5294,7.2566,7.1847,7.3356,6.8752,6.442,6.0516,5.4957,4.9592,4.4092,3.6885,0.0,0.0,0.0,0.0,0.0,0.0,0.0,0.0,0.0,0.0,0.0,0.0,0.0,0.0,0.0,0.0,0.0,0.0,0.0,0.0,1.1615,0.0,0.0,0.0,0.0,0.0,0.0,0.0,0.0,0.0,0.0,0.988,1.1891,1.3958,1.512,0.0,0.0,0.0,0.0,1.1396,0.7779,0.5736,0.4561,0.3936,0.3355,0.3016,0.2934,0.0,0.0,0.022,-0.0,-0.0637,-0.2593,-0.196,-0.1697,-0.3403,-0.5201,-0.6746,-0.7626,-0.868,-0.9997,-1.1449,-1.1964,-1.2308,6.7105,0.0,0.0,0.0,0.0,5.4709,5.8446,6.0182,6.2464,6.1722,5.8586,5.5421,0.0,0.0,0.0,0.0,0.0,0.0,5.5783,6.0981,6.6488,6.9775,7.093,7.1812,7.1442,6.9707,6.7591,6.5541,6.3439,5.8487,5.1002,4.1374,0.0,0.0,0.0,0.0,5.6769,6.405,7.0459,7.4022,7.4421,7.3282,7.2074,7.1325,6.7741,6.4582,6.1419,5.7901,5.4099,4.9923,4.3503,0.0,0.0,0.0,0.0,0.0,0.0,0.0,0.0,0.0,0.0,0.0,0.0,0.0,0.0,0.0,0.0,0.0,0.0,0.0,1.235,1.174,1.1149,0.0,0.0,0.0,0.0,0.0,0.0,0.0,0.0,0.0,1.3138,1.3926,1.4731,0.0,0.0,1.5387,1.4112,1.2808,1.111,0.8297,0.0,0.0,0.0,0.4315,0.365,0.3115,0.1522,0.0227,-0.0,-0.0,-0.0233,-0.0942,-0.1183,-0.1643,-0.2988,-0.3975,-0.5189,-0.6978,-0.8797,-1.0187,-1.1603,-1.2878,-1.3695,7.9125,7.1102,6.5772,6.1837,5.9715,6.4608,6.7579,6.8805,6.9585,6.8009,6.4533,6.1583,5.6698,5.0561,4.8417,0.0,0.0,0.0,5.9694,6.6321,6.8537,7.0963,7.384,7.4437,7.4162,7.3152,7.1943,7.0469,6.872,6.591,6.0175,5.173,0.0,0.0,4.9089,5.7456,6.3232,6.6401,7.1128,7.3578,7.3438,7.2292,7.1115,6.9635,6.772,6.5565,6.3453,6.0537,5.768,5.4707,4.8508,4.2131,0.0,0.0,0.0,0.0,0.0,0.0,0.0,0.0,0.0,0.0,0.0,1.3858,0.0,0.0,0.0,0.0,1.4702,1.3814,1.3251,1.2518,0.0,0.0,0.0,0.0,0.0,0.0,0.0,1.041,1.2179,1.3846,1.4977,1.5453,1.5947,1.6334,1.6205,1.5579,1.4548,0.0,1.173,0.9276,0.7878,0.6831,0.6471,0.5534,0.441,0.2709,0.1639,0.0483,-0.0,-0.0,-0.0,-0.0,-0.0499,-0.15,-0.3267,-0.4158,-0.5011,-0.6896,-0.8344,-1.0297,-1.2519,-1.3601,-1.4436,8.9156,8.7193,7.6907,7.3682,7.5628,7.5229,7.6428,7.8136,7.4122,7.0803,6.7846,6.5349,6.1991,5.776,5.68,0.0,0.0,6.0461,6.4169,7.0672,7.1456,7.2871,7.4874,7.5356,7.508,7.4162,7.4075,7.3105,7.1131,6.867,6.6442,6.3853,5.8197,5.5161,5.5339,6.5267,6.9549,6.7389,7.1174,7.3001,7.2329,7.0404,6.9221,6.8807,6.7875,6.6784,6.5986,6.2675,6.0076,5.8279,5.1912,4.6476,4.2269,0.0,0.0,0.0,0.0,0.0,0.0,0.0,0.0,0.0,0.0,0.0,0.0,0.0,0.0,0.0,1.8361,0.0,1.4449,1.372,0.0,0.0,0.0,1.0913,1.1163,1.1721,1.2315,1.2759,0.0,0.0,0.0,0.0,1.7487,1.7385,1.7439,1.6989,1.5386,1.4639,1.3192,1.0874,0.9015,0.7807,0.7897,0.6809,0.5015,0.2696,0.1754,0.1264,-0.0,-0.0,-0.0,-0.0,-0.0258,-0.1289,-0.3871,-0.5396,-0.6405,-0.7261,-0.8491,-1.0283,-1.3416,-1.4472,-1.5002,9.1953,9.1509,8.8723,8.5296,8.1378,8.0583,7.8759,7.6119,7.562,7.2594,6.8044,6.6305,6.4652,6.291,6.2908,6.4303,6.7051,6.7922,7.0001,7.3197,7.3687,7.4621,7.5379,7.5516,7.5264,7.4644,7.4384,7.3739,7.2715,7.1091,6.9548,6.7985,6.4792,6.1228,5.7633,6.1693,6.5029,6.719,6.856,6.9752,7.1064,6.9651,6.8786,6.8351,6.6169,6.5626,6.6556,6.2448,5.937,5.7992,5.4953,5.0332,4.4104,3.7391,0.0,0.0,0.0,0.0,0.0,0.0,0.0,0.0,0.0,1.608,1.4977,0.0,1.9163,0.0,1.8592,1.743,1.5287,1.4579,0.0,0.0,1.3318,1.3566,1.372,1.4567,1.5195,1.536,1.6326,1.7003,1.7398,1.8118,1.8559,1.8837,1.8437,1.7847,1.755,1.6368,1.4873,1.3055,1.1853,1.0586,0.9617,0.7962,0.6029,0.3819,0.1792,0.0257,-0.0,-0.0,-0.0,-0.0,-0.1807,-0.4131,-0.6717,-0.697,-0.7983,-1.0244,-1.0996,-1.1254,-1.3346,-1.4883,-1.6168,9.3093,9.2833,9.1156,8.8666,8.5949,8.4782,8.2518,7.9374,7.7417,7.4533,7.0856,6.834,6.6974,6.6558,6.7217,6.881,7.0666,7.1602,7.2946,7.4414,7.4667,7.508,7.5562,7.5585,7.5195,7.4506,7.4231,7.3703,7.2945,7.1696,7.0566,6.9745,6.7801,6.4703,6.0862,6.1524,6.3252,6.5649,6.6973,6.8267,6.9952,6.894,6.7544,6.6074,6.3598,6.3383,6.5391,5.9557,5.5364,5.3401,5.1904,4.8535,4.3325,3.7507,3.1759,0.0,0.0,0.0,0.0,0.0,0.0,0.0,0.0,0.0,0.0,0.0,2.1233,0.0,1.9712,0.0,1.6379,1.5643,1.523,1.4814,1.5221,1.5635,1.5995,1.6727,1.7256,1.7392,1.7955,1.8457,1.8755,1.9122,1.9468,1.9786,1.9529,1.9032,1.8708,1.7662,1.6408,1.4631,1.3632,1.2524,1.1003,0.9756,0.7983,0.5154,0.2579,0.0774,-0.0,-0.0,-0.0,-0.0,-0.2323,-0.4905,-0.7746,-0.8517,-0.9544,-1.134,-1.2625,-1.3385,-1.4666,-1.5695,-1.6967,9.3388,9.2488,8.9147,8.843,8.9055,8.7627,8.5797,8.3538,7.8799,7.5795,7.3824,7.0488,6.9093,6.9581,7.0413,7.1531,7.2684,7.3492,7.4191,7.4897,7.4874,7.5126,7.5562,7.5585,7.508,7.4208,7.4139,7.3611,7.2451,7.1444,7.0682,6.9946,6.8504,6.6151,6.3433,6.2855,6.2874,6.3278,6.6015,6.783,6.8657,6.7452,6.5681,6.3031,6.0658,6.0404,6.2084,5.5269,4.9791,4.6635,4.6335,4.4776,4.1503,3.6351,3.163,0.0,2.3932,0.0,0.0,0.0,0.0,0.0,0.0,0.0,0.0,2.3417,2.319,2.1149,2.1224,2.0426,1.7923,1.7098,1.6686,1.6517,1.6951,1.7372,1.7779,1.8199,1.8559,1.8823,1.9108,1.94,1.9657,1.9963,2.018,2.0302,2.0376,2.0031,1.93,1.8554,1.7672,1.6056,1.5218,1.4008,1.2466,1.1693,1.0112,0.671,0.4124,0.1804,-0.0,-0.0,-0.0,-0.0,-0.2323,-0.4905,-0.7741,-0.9547,-1.1087,-1.185,-1.3902,-1.5439,-1.6201,-1.6967,-1.7726,9.3002,9.2591,9.1063,8.9796,8.8902,8.6,8.326,8.044,7.8061,7.5211,7.2441,7.101,7.1493,7.3311,7.3164,7.3673,7.5061,7.5038,7.531,7.5425,7.5425,7.5471,7.5585,7.5585,7.5264,7.469,7.43,7.355,7.2468,7.1385,7.0466,6.9493,6.7509,6.5172,0.0,0.0,0.0,0.0,6.5144,6.6628,6.5659,6.4747,6.279,6.0035,5.7453,0.0,5.515,5.1509,4.6373,4.0092,4.365,0.0,0.0,0.0,0.0,0.0,0.0,0.0,0.0,0.0,0.0,0.0,2.612,2.5677,2.4334,2.4899,2.504,2.4135,2.3089,2.1705,1.9647,1.9189,1.8661,1.8129,1.8226,1.8511,1.8721,1.902,1.9244,1.9298,1.9563,1.9807,1.9976,2.018,2.0336,2.0471,2.0526,2.0512,2.0171,1.9665,1.8988,1.8088,1.6603,1.5343,1.4826,1.2953,1.1367,0.9534,0.6442,0.3094,-0.0,-0.0,-0.0,-0.0258,-0.2322,-0.4902,-0.7741,-0.9541,-1.1337,-1.3385,-1.5178,-1.6462,-1.6456,-1.8236,-1.9978,9.1951,0.0,8.9871,8.8702,0.0,8.4363,8.1846,8.0073,7.7473,7.4738,7.1954,7.2193,7.2788,7.3988,7.3953,7.465,7.5562,7.531,7.5333,7.5562,7.531,7.5333,7.5585,7.5585,7.531,7.4828,7.4351,7.3378,7.2406,7.1246,7.02,6.8809,6.7188,6.5667,6.3882,6.2972,6.2127,6.1285,6.4212,6.5405,6.4893,6.4276,6.2308,5.8787,0.0,0.0,0.0,0.0,0.0,0.0,0.0,0.0,0.0,0.0,0.0,3.1077,2.9418,2.8298,2.8123,2.8591,2.927,3.0136,3.0942,3.0479,2.794,2.7854,2.7751,2.697,2.5032,2.3187,2.1333,2.0312,1.9427,1.8967,1.8952,1.9128,1.9217,1.9406,1.9542,1.9563,1.9739,1.9929,2.0085,2.0234,2.0383,2.0512,2.0539,2.0539,2.0539,2.0285,1.9829,1.9201,1.8189,1.6894,1.6114,1.4787,1.2662,1.0834,0.8245,0.4898,0.1548,0.0516,-0.0516,-0.1807,-0.387,-0.619,-0.9026,-1.0823,-1.2599,-1.5118,-1.7177,-1.8708,-1.9678,-2.0471,-2.1498,9.1055,8.9519,8.7622,8.6334,8.5423,8.2555,8.0728,7.9472,0.0,0.0,0.0,7.347,7.394,7.3911,7.4498,7.5128,7.5562,7.5149,7.5172,7.5539,7.5149,7.5172,7.5562,7.5585,7.5129,7.474,7.3971,7.327,7.2233,7.116,6.9801,6.8366,6.7424,6.6309,6.5285,6.4539,6.3753,6.2574,6.3429,6.4211,6.4761,6.423,6.1888,5.8012,5.5399,5.1833,4.6772,4.5718,4.4739,4.321,4.0931,3.8708,3.6452,3.4691,3.3343,3.1984,3.2055,3.2137,3.1998,3.2772,3.3494,3.4068,3.507,3.4741,3.2294,3.1629,3.0874,3.0083,2.7705,2.5395,2.3462,2.179,2.0539,1.9741,1.9633,1.9468,1.9474,1.9583,1.9664,1.9705,1.98,1.9942,2.0119,2.0254,2.0383,2.0505,2.0539,2.0539,2.0539,2.0539,2.0332,1.992,1.9163,1.8405,1.7118,1.605,1.4219,1.1314,0.9503,0.7192,0.3853,0.0771,-0.1543,-0.4367,-0.5911,-0.7959,-1.0784,-1.2813,-1.4823,-1.7269,-1.96,-2.1672,-2.359,-2.3661,-2.4195,8.9776,8.7602,8.6258,8.432,8.2067,8.064,7.8438,7.5935,7.4855,7.4502,7.4286,7.4813,7.5235,7.5825,7.6089,7.5839,7.5585,7.5493,7.5516,0.0,7.5493,7.5516,7.5585,7.5131,7.488,7.4538,7.3676,7.2724,7.2046,7.0592,6.9433,6.883,6.7723,6.6748,6.6213,6.518,6.442,6.4152,6.3578,6.319,6.3414,6.1807,5.9575,5.713,5.4818,5.2756,5.0605,4.8284,4.6466,4.5111,4.2531,4.0043,3.802,3.6583,3.5562,3.5267,3.4985,3.4963,3.5017,3.5605,3.6206,3.6767,3.7208,3.6914,3.5511,3.5024,3.4372,3.3188,3.1217,2.9166,2.6603,2.457,2.2997,2.1473,2.0808,2.0352,1.9866,1.9651,1.9719,1.9834,1.9861,1.9997,2.0234,2.0315,2.039,2.0505,2.0539,2.0539,2.0539,2.0539,2.0546,2.0312,1.9809,1.9044,1.8023,1.6651,1.4569,1.2499,1.0676,0.8621,0.5579,0.0761,-0.3552,-0.6848,-0.7864,-0.9882,-1.2408,-1.4395,-1.6647,-1.9122,-2.1632,-2.4385,-2.6936,-2.8484,-2.9687,8.9005,8.7107,8.5184,8.3041,8.0864,7.9425,7.7627,7.5761,7.574,7.5442,7.4814,7.5491,7.5931,7.6194,7.664,7.632,7.5585,7.5585,7.5585,7.5562,7.5358,7.5131,7.5131,7.4446,7.4217,7.4195,7.3305,7.2349,7.1604,7.05,6.9358,6.7952,6.6781,6.6095,6.5847,6.4977,6.4541,6.4516,6.4108,6.355,6.3313,6.1834,6.033,5.8839,5.7166,5.5306,5.3496,5.1343,4.9213,4.6914,4.416,4.177,3.9747,3.8255,3.7344,3.7262,3.7141,3.7301,3.7301,3.7702,3.813,3.8544,3.8704,3.8571,3.8036,3.7052,3.5822,3.4848,3.2793,3.06,2.8346,2.6253,2.4383,2.3254,2.2312,2.1387,2.0973,2.0506,2.0324,1.9976,2.0071,2.0173,2.0309,2.0397,2.0458,2.0532,2.0539,2.0539,2.0539,2.0539,2.0539,2.0539,2.0285,1.9522,1.8746,1.712,1.5022,1.2732,1.0384,0.8076,0.5551,0.1009,-0.3028,-0.7073,-0.9087,-1.0842,-1.3344,-1.5842,-1.8548,-2.1443,-2.4458,-2.721,-2.9885,-3.3221,-3.5155,8.8071,8.6398,8.4465,8.2311,8.0371,7.8567,7.7269,7.6234,7.6861,7.6332,7.5582,7.6454,7.6697,7.6376,7.7029,7.6779,7.5976,7.5792,7.5746,7.5746,7.4971,7.4697,7.4697,7.3988,7.3528,7.3298,7.2605,7.1922,7.09,7.0329,6.8931,6.6974,6.6035,6.5577,6.5348,6.4807,6.4286,6.4056,6.4056,6.3816,6.3264,6.2318,6.1515,6.0683,5.9668,5.8158,5.6032,5.4553,5.2036,4.8901,4.6003,4.3468,4.1246,3.9683,3.9005,3.8544,3.8784,3.8918,3.8931,3.9132,3.9359,3.9573,3.9599,3.9599,3.9519,3.8293,3.6884,3.5879,3.4016,3.1963,3.0179,2.8066,2.6177,2.5491,2.4061,2.3172,2.2344,2.1638,2.0964,2.0381,2.0254,2.0329,2.0383,2.0471,2.0532,2.0532,2.0539,2.0539,2.0539,2.0539,2.0539,2.0532,2.0519,1.9951,1.8671,1.7023,1.4932,1.2416,0.9823,0.7526,0.4764,0.2008,-0.2259,-0.6775,-0.9533,-1.1763,-1.4254,-1.7476,-2.064,-2.3975,-2.7185,-3.0408,-3.369,-3.7447,-4.0137,8.6871,8.4729,8.379,8.2113,7.9628,7.8461,7.7232,7.6436,7.6508,7.6485,7.6476,7.7193,7.7374,7.6875,7.7556,7.7468,7.6871,7.6481,7.6297,7.6228,7.513,7.4697,7.4491,7.3551,7.2605,7.2141,7.1443,7.0932,7.0123,6.9059,6.7915,6.6969,6.626,6.5823,6.5319,6.4741,6.4076,6.2921,6.2921,6.312,6.3264,6.2381,6.164,6.1601,6.1113,6.0201,5.8475,5.7363,5.4873,5.1171,4.8522,4.5673,4.2686,4.1047,4.0134,3.9466,3.9506,3.9519,3.9519,3.9533,3.9586,3.9599,3.9626,3.964,3.9626,3.8782,3.8125,3.7001,3.5757,3.424,3.2872,3.0965,2.938,2.8347,2.6664,2.5041,2.3983,2.2797,2.1874,2.1292,2.058,2.0376,2.0485,2.0526,2.0539,2.0539,2.0539,2.0539,2.0539,2.0539,2.0526,2.0512,2.0438,1.9554,1.8198,1.6286,1.4259,1.1494,0.9439,0.7189,0.4958,0.0991,-0.371,-0.7946,-1.0147,-1.285,-1.6272,-1.9414,-2.3085,-2.6463,-2.9838,-3.3414,-3.8049,-4.1397,-4.2919,8.5232,8.379,8.2821,8.1379,7.9651,7.9201,7.8419,7.7462,7.7727,7.7696,7.7476,7.7906,7.7869,7.7647,7.7881,7.7583,7.7101,7.6894,7.6571,7.634,7.5418,7.4707,7.3975,7.2791,7.1959,7.1443,7.072,7.0016,6.9481,6.8396,6.7613,6.7171,6.627,6.5811,6.5577,6.4694,6.3892,6.3422,6.2972,6.307,6.2932,6.2559,6.2226,6.2422,6.207,6.0961,5.9264,5.8013,5.5626,5.1794,4.8977,4.6453,4.3953,4.2108,4.0814,4.0588,4.0347,4.012,4.012,4.012,4.012,4.012,4.012,3.988,3.9626,3.8903,3.8063,3.7317,3.6173,3.5071,3.4021,3.2802,3.1634,3.0995,2.9552,2.7925,2.6644,2.4699,2.3036,2.219,2.121,2.0471,2.0526,2.0539,2.0539,2.0539,2.0539,2.0539,2.0539,2.0539,2.0245,1.9918,1.9348,1.8793,1.7708,1.5858,1.3517,1.0959,0.8919,0.7157,0.3452,0.0247,-0.4193,-0.9863,-1.2062,-1.4501,-1.8415,-2.179,-2.5181,-2.8762,-3.3488,-3.7801,-4.2064,-4.4278,-4.5695,8.3814,8.3087,8.209,8.0887,7.9921,7.9786,7.9247,7.8239,7.8765,7.8463,7.7737,7.838,7.8432,7.7876,7.7853,7.7624,7.7304,7.6911,7.6609,7.6119,7.5282,7.4567,7.3531,7.2202,7.1257,7.0721,7.008,6.933,6.8836,6.8091,6.7668,6.737,6.6507,6.5791,6.532,6.4511,6.3721,6.3721,6.3265,6.3086,6.3144,6.289,6.2773,6.2575,6.2322,6.1072,5.9193,5.7963,5.5875,5.2642,4.9734,4.7415,4.562,4.3395,4.2231,4.1906,4.1423,4.1195,4.071,4.0953,4.0953,4.0481,4.071,4.0468,3.9496,3.8765,3.8201,3.7271,3.6589,3.5718,3.5057,3.407,3.3609,3.3424,3.1735,3.0118,2.9074,2.6619,2.4438,2.3298,2.1794,2.0793,2.0539,2.0539,2.0539,2.0539,2.0539,2.0539,2.0539,2.0285,1.9998,1.9134,1.8357,1.7304,1.6748,1.4607,1.2524,1.0227,0.7932,0.4438,0.0739,-0.2219,-0.5912,-1.1825,-1.3527,-1.6686,-2.0808,-2.4202,-2.8265,-3.2063,-3.6546,-4.1029,-4.3988,-4.6123,-4.8372,8.333,8.2578,8.1869,8.1156,8.064,8.0187,7.9177,7.8415,7.8449,7.8168,7.7952,7.838,7.8357,7.7623,7.7601,7.7623,7.7533,7.6607,7.619,7.5909,7.4776,7.4038,7.3263,7.2139,7.0977,6.994,6.9345,6.8919,6.8423,6.8144,6.7885,6.7108,6.67,6.5784,6.4771,6.4215,6.3523,6.3363,6.3125,6.3262,6.3594,6.3633,6.2983,6.163,6.1457,6.0772,5.8936,5.7694,5.6065,5.3751,5.1024,4.8943,4.7193,4.565,4.4134,4.3407,4.311,4.2629,4.1706,4.1961,4.1961,4.098,4.1249,4.0953,3.9766,3.9022,3.8264,3.7506,3.6723,3.6285,3.5911,3.5151,3.4715,3.4902,3.3216,3.2087,3.1536,2.8539,2.607,2.4576,2.2815,2.1301,2.0539,2.0539,2.0539,2.0539,2.0539,2.0539,2.0539,2.0031,1.9255,1.823,1.6928,1.5352,1.4907,1.3317,1.1253,0.8462,0.4709,0.1232,-0.2217,-0.5914,-1.0095,-1.3782,-1.621,-1.9361,-2.3214,-2.7521,-3.1793,-3.5587,-3.9087,-4.2879,-4.5671,-4.7377,-4.9625,8.2113,8.1892,8.1647,8.1401,8.1379,8.095,8.0403,7.9408,7.9467,7.9135,7.8234,7.8143,7.7906,7.7692,7.6955,7.6716,7.691,7.6514,7.6186,7.5664,7.4744,7.3809,7.3048,7.1638,7.0707,7.0143,6.9286,6.8693,6.8186,6.7688,6.7429,6.7169,6.633,6.5529,6.5008,6.4408,6.4089,6.3848,6.3848,6.3926,6.4043,6.3597,6.2803,6.1765,6.1737,6.1154,5.9309,5.8097,5.6925,5.5108,5.2945,5.1057,4.9928,4.8161,4.6481,4.5393,4.5122,4.4894,4.418,4.418,4.3937,4.3206,4.2537,4.171,3.9975,3.9125,3.8033,3.7054,3.6808,3.6442,3.6346,3.603,3.6066,3.5905,3.4936,3.3976,3.2807,3.0583,2.8586,2.659,2.4079,2.2062,2.1301,2.0793,2.0539,2.0539,2.0539,2.0539,2.0285,2.0037,1.9013,1.7222,1.5423,1.3615,1.2554,1.1891,0.9783,0.5729,0.1983,-0.1727,-0.5174,-0.9846,-1.4036,-1.6216,-1.8645,-2.2258,-2.6345,-3.131,-3.5587,-3.8842,-4.2119,-4.4609,-4.7328,-4.9318,-5.1304,8.1647,8.1647,8.1647,8.1647,8.1601,8.1279,8.0774,8.0086,7.9524,7.9021,7.8212,7.7669,7.7193,7.6955,7.5997,7.5494,7.569,7.5558,7.5251,7.4749,7.3831,7.2873,7.2108,7.1108,7.0478,7.0153,6.9296,6.86,6.7968,6.7429,6.6951,6.6471,6.5749,6.5266,6.5044,6.4559,6.4316,6.4316,6.4316,6.4297,6.4297,6.3566,6.2944,6.2151,6.1752,6.0872,5.9498,5.8354,5.7417,5.6404,5.4628,5.3169,5.2312,5.0877,4.9478,4.8161,4.7889,4.742,4.6464,4.6464,4.6221,4.5001,4.4339,4.299,4.077,3.9628,3.8517,3.7225,3.6696,3.6672,3.6575,3.6551,3.6551,3.6563,3.606,3.5322,3.4324,3.2333,2.9835,2.7092,2.4584,2.2815,2.1809,2.1047,2.0539,2.0539,2.0539,2.0546,2.0031,1.9274,1.8248,1.6201,1.3893,1.1846,0.9762,0.815,0.5801,0.2005,-0.1242,-0.4699,-0.8618,-1.3292,-1.6721,-1.8895,-2.2024,-2.5626,-3.0148,-3.5119,-3.8624,-4.1661,-4.4382,-4.6639,-4.9096,-5.1322,-5.2854,8.1647,8.1647,8.1647,8.1647,8.1509,8.0705,8.02,7.9753,7.8452,7.7828,7.7692,7.6932,7.6454,7.5757,7.5034,7.455,7.3956,7.361,7.3394,7.311,7.2199,7.1265,7.0762,7.0499,7.0279,6.9794,6.9096,6.8401,6.749,6.7251,6.6531,6.5528,6.5266,6.5044,6.4316,6.4316,6.4316,6.4316,6.4316,6.4316,6.4316,6.3566,6.2814,6.2268,6.1457,6.0352,5.9216,5.8311,5.7833,5.7538,5.5993,5.4645,5.3872,5.329,5.2897,5.1416,5.1077,5.0103,4.8691,4.8964,4.8512,4.7041,4.6479,4.5001,4.2298,4.0774,3.9418,3.7518,3.7209,3.6877,3.6647,3.6599,3.6587,3.6551,3.606,3.558,3.5075,3.3077,3.0085,2.6841,2.4576,2.306,2.1801,2.1047,2.0539,2.0539,2.0539,2.0031,1.9522,1.8248,1.6717,1.4666,1.2356,1.0305,0.7197,0.3843,0.1017,-0.2019,-0.4751,-0.7946,-1.2095,-1.6511,-1.9138,-2.1299,-2.5848,-2.9446,-3.3688,-3.8174,-4.0944,-4.3944,-4.6189,-4.8651,-5.0644,-5.2636,-5.396,8.1647,8.1647,8.1647,8.1647,8.1555,8.0912,8.0234,7.9362,7.844,7.7748,7.6977,7.6454,7.5757,7.5034,7.4307,7.38,7.3047,7.2356,7.2143,7.2321,7.1413,7.0699,7.0457,6.9974,6.9898,6.9904,6.9842,6.9102,6.7761,6.7157,6.6311,6.5326,6.4802,6.4559,6.4316,6.4316,6.4316,6.4316,6.4316,6.4316,6.4316,6.3078,6.2589,6.2079,6.1248,6.0379,6.0004,5.9119,5.8772,5.8735,5.761,5.6252,5.5453,5.5365,5.4816,5.3975,5.3975,5.3477,5.2513,5.2271,5.1754,5.0508,4.936,4.704,4.4059,4.2669,4.0814,3.8474,3.7976,3.7616,3.7161,3.6853,3.678,3.6575,3.6317,3.6083,3.5368,3.3616,3.1091,2.8086,2.6087,2.4323,2.2562,2.1301,2.0539,2.0285,2.0031,1.9522,1.8758,1.6967,1.5173,1.2608,1.0559,0.7988,0.4374,0.0514,-0.3067,-0.6082,-0.8796,-1.1199,-1.5345,-1.894,-2.1321,-2.4889,-2.9436,-3.323,-3.7464,-4.0728,-4.3261,-4.5755,-4.8222,-5.022,-5.2199,-5.3743,-5.506,8.1532,8.1371,8.1348,8.1234,8.1027,8.028,7.9649,7.8848,7.7869,7.6985,7.6019,7.5253,7.477,7.4065,7.3313,7.2845,7.2313,7.1549,7.1339,7.133,7.0478,7.0007,6.9745,6.9483,6.9469,6.9862,6.968,6.8924,6.7886,6.6955,6.6005,6.5301,6.4775,6.4453,6.4355,6.4473,6.4492,6.4355,6.4316,6.4316,6.4073,6.3078,6.2343,6.2098,6.1131,6.0389,6.0353,5.9894,5.9564,5.9344,5.8402,5.7725,5.7009,5.6848,5.6519,5.6022,5.5782,5.5541,5.4819,5.4767,5.4336,5.2814,5.166,4.9581,4.6587,4.4682,4.2599,4.025,3.9488,3.8887,3.7914,3.7616,3.7282,3.6889,3.678,3.6274,3.5578,3.4109,3.1808,2.9008,2.6704,2.4894,2.2584,2.1301,2.0546,2.0031,1.9267,1.8248,1.7216,1.5168,1.312,1.0812,0.8757,0.541,0.1546,-0.2573,-0.6679,-0.9939,-1.3138,-1.5249,-1.8101,-2.1387,-2.3961,-2.8712,-3.3241,-3.5808,-3.9576,-4.2562,-4.5319,-4.7776,-4.9999,-5.1761,-5.3507,-5.4825,-5.5939,8.1325,8.0912,8.0843,8.0348,7.9914,7.8953,7.8245,7.811,7.6482,7.5538,7.4792,7.4065,7.3578,7.2845,7.2355,7.211,7.1617,7.1329,7.0812,7.0293,6.9407,6.8993,6.8931,6.8931,6.9158,6.9247,6.8883,6.8354,6.7458,6.6748,6.5716,6.498,6.4961,6.4805,6.4629,6.4805,6.4805,6.4551,6.4473,6.4473,6.4473,6.3155,6.2419,6.2419,6.1168,6.0389,6.0371,6.0298,6.0133,5.9729,5.9087,5.8739,5.8574,5.8244,5.7638,5.7177,5.7087,5.6902,5.6386,5.6234,5.5717,5.4508,5.3468,5.1923,4.8927,4.7103,4.5217,4.2541,4.1527,4.0419,3.9187,3.8374,3.8111,3.7598,3.7142,3.6607,3.5542,3.4545,3.2131,2.8692,2.6617,2.4779,2.2106,2.1075,2.0031,1.9267,1.8242,1.6961,1.5173,1.3381,1.1586,0.9017,0.6184,0.2834,-0.103,-0.5643,-0.9733,-1.2977,-1.6157,-1.8746,-2.1549,-2.4561,-2.7779,-3.2523,-3.63,-3.8869,-4.1174,-4.4156,-4.6655,-4.889,-5.1102,-5.3072,-5.4609,-5.5705,-5.6368,8.0761,8.0113,7.9772,7.9279,7.8591,7.7898,7.7455,7.6905,7.5714,7.455,7.4043,7.3334,7.2845,7.211,7.1864,7.1617,7.1124,7.0877,7.0607,7.0152,6.9635,6.9158,6.891,6.8848,6.8814,6.874,6.8741,6.8352,6.6861,6.6694,6.6387,6.543,6.541,6.5371,6.5293,6.5351,6.5371,6.5273,6.5234,6.5234,6.4929,6.3672,6.2798,6.2779,6.1317,6.0444,6.0408,6.0389,6.0206,5.9821,5.9601,5.9307,5.9051,5.8886,5.8794,5.8552,5.8571,5.8607,5.8347,5.8347,5.7602,5.6629,5.5392,5.3773,5.1035,4.9314,4.7411,4.5318,4.358,4.2216,4.0959,3.964,3.8647,3.7878,3.7444,3.681,3.5347,3.4062,3.2236,2.8615,2.6458,2.407,2.2223,2.0607,1.9274,1.8242,1.6706,1.5173,1.3125,1.1329,0.9537,0.5925,0.2835,-0.0258,-0.4116,-0.8708,-1.2499,-1.5729,-1.8867,-2.1913,-2.5199,-2.8951,-3.2388,-3.6571,-3.8896,-4.1475,-4.3489,-4.598,-4.7982,-5.022,-5.2418,-5.4393,-5.5275,-5.6154,-5.6368,7.9778,7.9064,7.8568,7.8253,7.7522,7.7013,7.6419,7.5649,7.468,7.3821,7.3069,7.26,7.211,7.1617,7.1371,7.1371,7.0877,7.0877,7.0607,7.0131,6.9267,6.849,6.8161,6.8058,6.8064,6.7988,6.7763,6.7353,6.6594,6.6585,6.6049,6.5664,6.5762,6.5762,6.5566,6.5781,6.5762,6.5625,6.5586,6.5586,6.5566,6.4113,6.3252,6.2947,6.1744,6.0848,6.0683,6.0646,6.0463,6.0096,5.9876,5.9656,5.9454,5.9252,5.9197,5.9179,5.9179,5.9179,5.9179,5.9179,5.8449,5.7419,5.6473,5.5162,5.3091,5.1346,4.9887,4.7901,4.6049,4.4124,4.2507,4.0439,3.8932,3.8157,3.7528,3.6672,3.539,3.3615,3.1226,2.8296,2.5843,2.3644,2.1298,1.9868,1.826,1.6706,1.4656,1.3125,1.159,0.928,0.6699,0.3089,-0.0515,-0.4114,-0.7444,-1.1768,-1.5719,-1.8917,-2.3443,-2.6215,-2.9001,-3.2748,-3.5722,-3.8909,-4.1489,-4.3807,-4.5561,-4.7535,-4.9761,-5.198,-5.3941,-5.5256,-5.592,-5.6154,-5.6582,7.8575,7.8082,7.7348,7.6878,7.6281,7.5757,7.5077,7.4572,7.3821,7.3069,7.211,7.1864,7.1371,7.0877,7.1124,7.0877,7.0877,7.0877,7.0504,6.968,6.8494,6.7578,6.7052,6.7032,6.6974,6.6814,6.6125,6.6158,6.617,6.5833,6.5683,6.5801,6.6094,6.6074,6.5976,6.6133,6.6055,6.5879,6.5879,6.5879,6.5591,6.4496,6.365,6.313,6.2245,6.1325,6.1105,6.0976,6.0793,6.0481,6.0059,5.9876,5.9802,5.9491,5.9381,5.9399,5.9436,5.9417,5.9362,5.9436,5.8875,5.7668,5.7352,5.628,5.4465,5.2976,5.1723,4.9641,4.818,4.5534,4.2683,4.0429,3.9155,3.8096,3.7328,3.6278,3.4756,3.2956,3.0279,2.6984,2.525,2.2765,2.0553,1.8876,1.7489,1.4656,1.2864,1.1333,0.9017,0.6186,0.3088,-0.0257,-0.3851,-0.7956,-1.1273,-1.4828,-1.8711,-2.2302,-2.7931,-3.1354,-3.2906,-3.5907,-3.8214,-4.0757,-4.2849,-4.4897,-4.6896,-4.8873,-5.1322,-5.3072,-5.4825,-5.5705,-5.6368,-5.6368,-5.6582,7.7817,7.684,7.5891,7.4879,7.4286,7.3821,7.3334,7.309,7.26,7.211,7.1864,7.1371,7.1124,7.0877,7.0877,7.0877,7.0856,7.0794,7.0196,6.8842,6.7982,6.6853,6.597,6.621,6.603,6.5746,6.5762,6.5716,6.5422,6.5912,6.6074,6.6094,6.6406,6.668,6.6601,6.6562,6.6699,6.6601,6.6562,6.6272,6.569,6.4704,6.3814,6.329,6.2289,6.1581,6.1416,6.1141,6.0958,6.0793,6.0518,6.0298,6.0206,6.0133,6.0059,6.0041,6.0078,6.0096,6.0114,6.0059,5.962,5.8292,5.7813,5.6929,5.4904,5.3854,5.2264,5.0545,4.8127,4.5203,4.1725,3.9945,3.8936,3.79,3.6454,3.4535,3.3015,3.1298,2.9246,2.6843,2.4376,2.1885,1.9383,1.7691,1.5788,1.289,1.1073,0.9541,0.6959,0.3609,-0.0514,-0.4098,-0.7171,-1.1003,-1.4234,-1.7989,-2.2355,-2.5878,-3.0982,-3.5078,-3.6596,-3.7955,-4.0051,-4.1905,-4.3747,-4.5771,-4.7999,-5.0203,-5.2436,-5.396,-5.5256,-5.5862,-5.6504,-5.6543,-5.6504,7.6242,7.5469,7.4259,7.3578,7.3313,7.2824,7.26,7.2355,7.211,7.1617,7.1371,7.1124,7.0877,7.0877,7.0877,7.0877,7.0752,7.0154,6.9497,6.8394,6.7157,6.601,6.5508,6.5266,6.5024,6.4841,6.4999,6.4873,6.4863,6.5449,6.5879,6.5996,6.6543,6.6797,6.6855,6.6855,6.6836,6.6836,6.6855,6.6622,6.5804,6.4889,6.3994,6.3211,6.2497,6.2076,6.1856,6.1691,6.1453,6.1233,6.105,6.0756,6.0463,6.0389,6.0408,6.0389,6.0389,6.0389,6.0389,6.0389,5.9875,5.8398,5.8185,5.6867,5.5493,5.4237,5.2703,5.0674,4.8132,4.5036,4.0722,3.9167,3.8425,3.7351,3.5349,3.3156,3.1614,2.9885,2.787,2.5772,2.3337,2.0861,1.8652,1.6447,1.4271,1.1613,0.798,0.6444,0.6433,0.2828,-0.4095,-0.8175,-1.0988,-1.4014,-1.7177,-2.1326,-2.6421,-2.9915,-3.3563,-3.6944,-3.9141,-4.0282,-4.1446,-4.3276,-4.5093,-4.7328,-4.9556,-5.1542,-5.3308,-5.4628,-5.5686,-5.6251,-5.6367,-5.6289,-5.623,7.449,7.4137,7.3016,7.2622,7.2622,7.26,7.211,7.1864,7.1864,7.1371,7.0877,7.0877,7.0877,7.0877,7.0877,7.0877,7.0402,6.9313,6.8639,6.7947,6.6411,6.5567,6.5044,6.4782,6.454,6.4316,6.4355,6.4355,6.4551,6.5058,6.5527,6.5723,6.6348,6.6738,6.6836,6.6855,6.6855,6.6855,6.6855,6.6369,6.5861,6.506,6.402,6.2994,6.27,6.2553,6.2297,6.215,6.2003,6.1402,6.1347,6.0963,6.0525,6.0499,6.0481,6.0499,6.0463,6.0389,6.0389,6.0141,5.9645,5.8398,5.813,5.711,5.526,5.3796,5.2001,4.9614,4.6718,4.3728,4.0264,3.8668,3.7608,3.5964,3.3722,3.179,2.9666,2.7613,2.555,2.4298,2.1666,1.9235,1.6804,1.4889,1.247,1.0082,0.6192,0.335,0.3087,0.0769,-0.6391,-1.1202,-1.3746,-1.8234,-2.1603,-2.4637,-2.9693,-3.2962,-3.6378,-3.8552,-4.1216,-4.2363,-4.3276,-4.4851,-4.6671,-4.889,-5.0662,-5.2636,-5.4177,-5.551,-5.6134,-5.6504,-5.6308,-5.6074,-5.6074,7.4051,7.2952,7.2397,7.2152,7.2173,7.1638,7.1103,7.1124,7.1103,7.1124,7.0877,7.0877,7.0877,7.0877,7.0877,7.0629,6.9928,6.8822,6.7925,6.7193,6.5985,6.5083,6.4559,6.4316,6.4316,6.4316,6.4316,6.4316,6.4414,6.4805,6.5234,6.5605,6.6113,6.6504,6.6738,6.6855,6.6855,6.6855,6.6855,6.6369,6.5353,6.4588,6.4076,6.2792,6.2792,6.2755,6.2627,6.2388,6.2205,6.2405,6.1294,6.0804,6.0352,6.0603,6.0671,6.0543,6.0361,6.0214,6.016,5.9893,5.9147,5.8398,5.7396,5.5867,5.4059,5.2177,5.0028,4.6966,4.3721,4.057,3.8962,3.7739,3.5964,3.3722,3.1719,2.9191,2.5709,2.3901,2.2699,2.1737,1.9675,1.7609,1.5454,1.2795,0.9616,0.6726,0.3096,-0.0516,-0.206,-0.4874,-0.9975,-1.3497,-1.597,-2.1398,-2.6256,-2.9229,-3.2723,-3.5283,-3.8217,-3.9917,-4.2134,-4.3716,-4.5093,-4.688,-4.8222,-4.9761,-5.1761,-5.3743,-5.4844,-5.5939,-5.6348,-5.6543,-5.6328,-5.6113,-5.625,7.2791,7.2334,7.1366,7.1016,7.1058,7.0771,7.0525,7.0566,7.0773,7.0877,7.0877,7.0877,7.0629,7.0381,7.0381,7.0112,6.9163,6.8021,6.7167,6.6396,6.5498,6.4821,6.4316,6.4316,6.4316,6.4316,6.4316,6.4316,6.4355,6.4746,6.5039,6.5351,6.6186,6.6637,6.6562,6.6758,6.6836,6.6855,6.6875,6.6115,6.4843,6.4332,6.3306,6.3049,6.2552,6.257,6.2589,6.1909,6.1506,6.1488,6.0554,6.0189,6.0029,5.9763,5.9627,5.9793,6.0043,6.0075,5.9948,5.9645,5.9147,5.8398,5.7144,5.5361,5.2991,5.0771,4.7843,4.4251,4.193,3.9353,3.8056,3.6662,3.4925,3.2365,3.0093,2.7064,2.3815,2.169,2.0183,1.9233,1.7512,1.5719,1.4118,1.0948,0.7276,0.3369,-0.0258,-0.3353,-0.6703,-0.9759,-1.3301,-1.7773,-2.07,-2.5017,-2.9845,-3.2573,-3.5259,-3.7788,-3.9822,-4.1503,-4.3276,-4.5077,-4.7104,-4.9113,-5.022,-5.1102,-5.2854,-5.4825,-5.5705,-5.6368,-5.6562,-5.6523,-5.6328,-5.623,-5.6348,7.1822,7.145,7.0584,7.0111,7.0049,7.0152,7.0193,7.0256,7.067,7.0877,7.0877,7.0629,7.0381,6.9864,6.9615,6.9116,6.8556,6.7299,6.6753,6.619,6.5108,6.4453,6.4316,6.4316,6.4316,6.4316,6.4316,6.4316,6.4355,6.4609,6.4805,6.5156,6.6108,6.65,6.6308,6.668,6.6797,6.6622,6.6622,6.5861,6.4588,6.3049,6.2276,6.2276,6.1759,6.1554,6.1921,6.0999,6.0095,5.9557,5.9313,5.8843,5.8564,5.7784,5.7568,5.8012,5.9054,5.9524,5.9612,5.9147,5.8897,5.8148,5.6372,5.4329,5.1873,4.8792,4.5543,4.1546,3.9489,3.841,3.6755,3.5608,3.3336,3.0762,2.8269,2.5536,2.2507,1.9842,1.7495,1.6297,1.5373,1.384,1.1991,0.7792,0.3367,-0.0,-0.3622,-0.6444,-0.9528,-1.2055,-1.5824,-2.1778,-2.5895,-2.9399,-3.2913,-3.5654,-3.784,-3.9809,-4.1359,-4.2864,-4.464,-4.6446,-4.8668,-5.0662,-5.198,-5.2854,-5.4393,-5.549,-5.5939,-5.6368,-5.6582,-5.6523,-5.6406,-5.6328,-5.6367,7.1387,7.0501,7.0193,6.9904,6.935,6.9966,7.0152,7.0173,7.0628,7.0877,7.0752,7.0319,6.9782,6.9533,6.8536,6.8075,6.7685,6.7098,6.6415,6.5794,6.5324,6.4668,6.4375,6.4316,6.4316,6.4316,6.4316,6.4316,6.4336,6.4394,6.4609,6.5,6.5449,6.5859,6.5999,6.6388,6.6603,6.6115,6.5861,6.4843,6.3049,6.1759,6.0981,6.0721,6.0201,6.0271,6.0638,5.9487,5.7971,5.6982,5.6887,5.6476,5.5947,5.5135,5.4629,5.5472,5.7074,5.9164,5.9309,5.8808,5.813,5.6875,5.4837,5.2272,4.9457,4.6013,4.2583,4.0469,3.8494,3.7013,3.5743,3.411,3.1477,2.8645,2.591,2.3131,2.0379,1.7768,1.5173,1.3381,1.2183,1.0916,0.936,0.4403,-0.0517,-0.3882,-0.6991,-0.9547,-1.2599,-1.5622,-1.9329,-2.5254,-2.9617,-3.3103,-3.5597,-3.8323,-4.0041,-4.1704,-4.3212,-4.4262,-4.5996,-4.7999,-4.9982,-5.198,-5.3072,-5.4177,-5.5275,-5.5939,-5.6368,-5.6582,-5.6582,-5.6582,-5.6562,-5.6504,-5.6426,7.0854,7.0173,6.9904,6.9676,6.949,6.9697,6.9779,6.9862,6.9764,6.9847,6.9395,6.8862,6.8369,6.7914,6.6881,6.6632,6.6612,6.6265,6.6088,6.5566,6.5195,6.4863,6.4648,6.4433,6.4316,6.4316,6.4316,6.4054,6.4054,6.4093,6.4512,6.4676,6.4876,6.5322,6.542,6.5631,6.5296,6.4569,6.3545,6.2239,6.1205,6.0165,5.9383,5.886,5.8073,5.8489,5.8608,5.6856,5.4709,5.3474,5.3099,5.3255,5.3003,5.2467,5.2123,5.3037,5.4493,5.6357,5.7648,5.7587,5.6927,5.5833,5.3246,5.0289,4.6614,4.3233,4.0318,3.8482,3.7775,3.6158,3.4402,3.2769,2.9866,2.6794,2.4103,2.1047,1.8333,1.5449,1.312,1.1073,0.902,0.7238,0.518,0.1551,-0.3096,-0.671,-0.9553,-1.1846,-1.5908,-2.0451,-2.4623,-2.9214,-3.3061,-3.6356,-3.8358,-4.0591,-4.1624,-4.3323,-4.5041,-4.6282,-4.7601,-4.9539,-5.1631,-5.3127,-5.4412,-5.5294,-5.6154,-5.6368,-5.6601,-5.6582,-5.6582,-5.668,-5.6738,-5.6621,-5.6543,7.0607,7.0152,6.9842,6.9614,6.951,6.9371,6.935,6.9309,6.9006,6.87,6.8374,6.7599,6.7087,6.6328,6.5892,6.5683,6.5625,6.5586,6.5586,6.5469,6.5273,6.5058,6.4863,6.459,6.4433,6.4316,6.4316,6.4054,6.3566,6.3586,6.3721,6.4049,6.3654,6.3862,6.4029,6.3881,6.3359,6.2203,6.0668,5.9348,5.8301,5.7513,5.6723,5.6195,5.5698,5.5828,5.6905,5.4528,5.1511,4.965,5.0407,5.081,5.0183,4.9884,4.9811,5.069,5.1764,5.2987,5.4535,5.5325,5.5395,5.3771,5.1058,4.7246,4.3452,4.0716,3.9207,3.7458,3.6112,3.4789,3.2707,3.0887,2.8095,2.5055,2.2082,1.9283,1.6302,1.37,1.083,0.7983,0.541,0.2318,0.0516,-0.1805,-0.5412,-0.9534,-1.2099,-1.4135,-1.895,-2.4259,-2.8445,-3.2547,-3.569,-3.8747,-4.0487,-4.2463,-4.3489,-4.4965,-4.6695,-4.8403,-4.9778,-5.1455,-5.3274,-5.4731,-5.5663,-5.5997,-5.6446,-5.6621,-5.6621,-5.6758,-5.6894,-5.6914,-5.6914,-5.6797,-5.6972,7.0607,7.0173,7.0152,6.9883,6.9531,6.9211,6.8884,6.8578,6.8228,6.786,6.7458,6.7007,6.6209,6.5755,6.5449,6.5469,6.5547,6.5586,6.5527,6.5527,6.5508,6.5234,6.498,6.4785,6.4629,6.4355,6.4316,6.381,6.3303,6.257,6.2098,6.1699,6.1651,6.1735,6.1636,6.1037,6.009,5.8983,5.7234,5.5914,5.4853,5.4055,5.3537,5.2735,5.2214,5.2336,5.4261,5.1828,4.9345,4.6847,4.7922,4.8506,4.8065,4.7753,4.7924,4.8232,4.8962,5.0011,5.1422,5.2992,5.3311,5.1377,4.8094,4.4241,4.1052,3.9478,3.8176,3.6908,3.5047,3.2966,3.0887,2.8509,2.605,2.3038,2.056,1.7824,1.5114,1.2474,0.9332,0.5421,0.2062,-0.1031,-0.3862,-0.5925,-0.7466,-1.159,-1.5418,-1.7709,-2.2495,-2.7548,-3.1526,-3.5193,-3.8151,-4.0482,-4.2207,-4.3724,-4.5031,-4.6477,-4.8162,-4.9921,-5.1867,-5.3582,-5.5182,-5.5763,-5.6499,-5.6718,-5.6738,-5.6777,-5.6855,-5.707,-5.7148,-5.7012,-5.7364,-5.7639,-5.7815,7.0773,7.0587,6.9805,6.9579,6.917,6.9068,6.8455,6.7783,6.7193,6.6403,6.5558,6.5294,6.5049,6.4824,6.4805,6.4805,6.4844,6.5098,6.5156,6.5195,6.5137,6.5078,6.4883,6.4707,6.4453,6.4336,6.4297,6.3322,6.2079,6.1322,5.9057,5.8183,5.8682,5.8836,5.8441,5.7483,5.6292,5.5238,5.4024,5.2704,5.1931,5.1393,5.0869,5.0345,5.0074,4.9818,4.9891,4.8776,4.7137,4.6145,4.6471,4.6348,4.617,4.6129,4.6033,4.6418,4.6909,4.7837,4.8552,5.0139,5.02,4.7781,4.4706,4.1829,3.9973,3.8687,3.7388,3.5653,3.3733,3.1398,2.9059,2.6691,2.4268,2.1508,1.8785,1.6335,1.3381,1.0726,0.6759,0.2329,-0.1032,-0.4124,-0.7214,-1.0045,-1.1586,-1.3385,-1.746,-2.1527,-2.6053,-3.0304,-3.3774,-3.6992,-3.9687,-4.1878,-4.3613,-4.5217,-4.6587,-4.8019,-4.9655,-5.1643,-5.3606,-5.495,-5.6363,-5.7181,-5.7341,-5.7383,-5.7207,-5.7031,-5.7012,-5.7051,-5.7012,-5.7148,-5.758,-5.815,-5.8739,7.0877,7.0567,6.9621,6.919,6.9129,6.8231,6.7703,6.7072,6.6059,6.5176,6.4316,6.4316,6.4316,6.4316,6.4336,6.4355,6.4453,6.4629,6.4824,6.4922,6.498,6.4941,6.4824,6.4687,6.4531,6.4355,6.381,6.3078,6.1341,6.0334,5.7809,5.5614,5.4783,5.5064,5.4638,5.3448,5.246,5.1566,5.084,4.9767,4.896,4.896,4.8506,4.7993,4.775,4.7464,4.7206,4.6635,4.6213,4.5468,4.5104,4.501,4.4863,4.473,4.4971,4.5383,4.5765,4.6142,4.6585,4.7011,4.6783,4.4292,4.2482,4.0657,3.9626,3.8072,3.6497,3.4822,3.2437,2.9834,2.7225,2.5121,2.2459,1.9464,1.7065,1.4612,1.1091,0.8154,0.3654,-0.0778,-0.4143,-0.7756,-1.0288,-1.3372,-1.5924,-1.7454,-2.0759,-2.4551,-2.8308,-3.2301,-3.5509,-3.8458,-4.1154,-4.3096,-4.5011,-4.6109,-4.7213,-4.9491,-5.1159,-5.3376,-5.5076,-5.6657,-5.7426,-5.7847,-5.7988,-5.7832,-5.7637,-5.7441,-5.7168,-5.6894,-5.7031,-5.7482,-5.7913,-5.8662,-5.9639,7.0629,6.9802,6.9374,6.917,6.8842,6.7227,6.6337,6.6,6.5147,6.4668,6.4336,6.4316,6.4316,6.4316,6.4316,6.4316,6.4316,6.4375,6.4531,6.4785,6.4805,6.4883,6.4863,6.4746,6.4531,6.4112,6.3566,6.2814,6.1094,5.9432,5.6624,5.3327,5.1916,5.1008,5.0719,5.0514,4.9638,4.8355,4.8146,4.7387,4.688,4.6639,4.6225,4.6077,4.586,4.5847,4.5576,4.5589,4.5144,4.4917,4.4863,4.473,4.4489,4.4449,4.4356,4.4406,4.4353,4.4299,4.4259,4.4758,4.3835,4.2298,4.0757,3.9687,3.8603,3.706,3.5372,3.3754,3.0867,2.8256,2.5648,2.3274,2.0347,1.7945,1.5533,1.2555,0.9291,0.5555,0.1314,-0.339,-0.7548,-1.1434,-1.393,-1.6434,-1.949,-2.2033,-2.4568,-2.7835,-3.107,-3.4032,-3.7237,-3.9687,-4.2133,-4.3815,-4.5517,-4.6706,-4.8313,-5.0388,-5.2637,-5.4801,-5.6385,-5.7694,-5.8247,-5.8555,-5.8437,-5.834,-5.8086,-5.7832,-5.7519,-5.7285,-5.7617,-5.8011,-5.8387,-5.9491,-6.067,7.0112,6.9802,6.8081,6.7513,6.7453,6.6562,6.5795,6.5147,6.4668,6.4433,6.4336,6.4316,6.4316,6.4316,6.4316,6.4316,6.4316,6.4316,6.4473,6.4512,6.4551,6.4512,6.4531,6.4551,6.4209,6.3849,6.3303,6.2079,5.9857,5.854,5.5884,5.259,4.9189,4.7722,4.7559,4.7466,4.677,4.6699,4.6219,4.5683,4.5401,4.5132,4.5172,4.5024,4.5024,4.5024,4.501,4.5024,4.4863,4.4623,4.4583,4.4449,4.4235,4.4182,4.4129,4.4022,4.4008,4.3467,4.2925,4.237,4.1726,4.0658,3.9872,3.8832,3.7789,3.6497,3.4574,3.2447,2.9563,2.6691,2.433,2.1686,1.9032,1.6635,1.3947,1.0697,0.7457,0.3189,-0.0794,-0.5516,-0.9943,-1.3768,-1.6767,-1.9535,-2.2591,-2.5324,-2.7845,-3.0065,-3.3044,-3.5755,-3.8701,-4.0912,-4.311,-4.4787,-4.6216,-4.7637,-4.9503,-5.2014,-5.4086,-5.6119,-5.7531,-5.879,-5.8936,-5.8965,-5.8906,-5.8848,-5.8515,-5.8203,-5.789,-5.7793,-5.8105,-5.8623,-5.914,-6.0687,-6.2616,6.9533,6.8813,6.7526,6.6694,6.6249,6.5696,6.4951,6.4668,6.4433,6.4316,6.4316,6.4316,6.4316,6.4316,6.4316,6.4316,6.4316,6.4316,6.4316,6.4316,6.4316,6.4355,6.4336,6.4054,6.3849,6.3303,6.257,6.1341,5.9627,5.8231,5.5031,5.0918,4.7559,4.642,4.5892,4.5363,4.5152,4.5288,4.5022,4.4783,4.4529,4.4556,4.4609,4.469,4.473,4.473,4.473,4.4676,4.4596,4.4382,4.4262,4.4209,4.4062,4.4008,4.4008,4.4008,4.3467,4.2674,4.1613,4.0803,4.0352,3.9995,3.9037,3.8263,3.72,3.5394,3.3506,3.1137,2.8003,2.5368,2.2738,2.0101,1.7435,1.5043,1.2347,0.9104,0.4548,0.0534,-0.3729,-0.8197,-1.1831,-1.5902,-1.9651,-2.2673,-2.5719,-2.8169,-3.0873,-3.3077,-3.5263,-3.7713,-4.0172,-4.2133,-4.383,-4.5264,-4.7164,-4.8815,-5.0888,-5.3645,-5.553,-5.7193,-5.8269,-5.9287,-5.9453,-5.9355,-5.9199,-5.9023,-5.8828,-5.8555,-5.8398,-5.8619,-5.8795,-5.9418,-5.9896,-6.1624,-6.33,6.8813,6.7209,6.7169,6.6396,6.5449,6.4687,6.4355,6.4336,6.4316,6.4316,6.4316,6.4316,6.4316,6.4316,6.4316,6.4316,6.4316,6.4316,6.4316,6.4316,6.4073,6.4073,6.4054,6.3566,6.3078,6.2833,6.2079,6.0866,5.9414,5.7221,5.3797,4.992,4.7573,4.6128,4.4935,4.4353,4.4366,4.4433,4.4182,4.4195,4.4209,4.4142,4.4262,4.4369,4.4422,4.4422,4.4422,4.4409,4.4275,4.4129,4.4035,4.4022,4.4008,4.4008,4.4008,4.3744,4.2674,4.1879,4.1069,4.0259,3.9713,3.9098,3.8418,3.7576,3.6531,3.4552,3.2188,2.9573,2.6954,2.3787,2.0891,1.8228,1.5835,1.3162,1.0755,0.6446,0.1612,-0.2683,-0.6689,-1.0656,-1.4061,-1.791,-2.1925,-2.5197,-2.8139,-3.0535,-3.3208,-3.558,-3.7763,-3.9674,-4.1637,-4.311,-4.4802,-4.5978,-4.7637,-4.9971,-5.2048,-5.4562,-5.6379,-5.81,-5.8952,-5.9707,-5.9648,-5.9531,-5.9375,-5.9199,-5.9004,-5.9004,-5.9043,-5.9285,-5.939,-5.9916,-6.0575,-6.1439,-6.3117,6.712,6.6713,6.5923,6.5481,6.5058,6.4551,6.4316,6.4316,6.4316,6.4316,6.4316,6.4316,6.4316,6.4316,6.4316,6.4316,6.4316,6.4316,6.4316,6.4054,6.381,6.3566,6.3322,6.2833,6.2343,6.2098,6.1359,6.0371,5.8469,5.6223,5.3829,5.0458,4.8363,4.6613,4.5144,4.4259,4.4008,4.4008,4.4008,4.4008,4.4008,4.4008,4.4088,4.4142,4.4169,4.4182,4.4169,4.4169,4.4075,4.4035,4.4008,4.4008,4.4008,4.4008,4.4008,4.319,4.2396,4.1601,4.0779,3.9834,3.9303,3.8715,3.7741,3.6432,3.5147,3.3226,3.0616,2.7994,2.5368,2.2209,1.9292,1.663,1.4232,1.1827,0.8605,0.4032,-0.0807,-0.5643,-0.9651,-1.31,-1.6514,-2.039,-2.4432,-2.7418,-3.0104,-3.2718,-3.5318,-3.7913,-4.0009,-4.1664,-4.2855,-4.4323,-4.5517,-4.6691,-4.9034,-5.137,-5.3415,-5.5511,-5.7344,-5.8629,-5.9061,-5.9609,-5.9746,-5.9726,-5.957,-5.9394,-5.918,-5.9238,-5.9316,-5.9423,-5.9528,-6.0297,-6.1037,-6.2141,-6.3782,6.6229,6.5825,6.5481,6.5098,6.4883,6.4492,6.4316,6.4316,6.4316,6.4316,6.4316,6.4316,6.4316,6.4316,6.4316,6.4316,6.4316,6.4316,6.4073,6.381,6.3566,6.3078,6.2833,6.2343,6.1852,6.1359,6.0866,6.0141,5.8236,5.5935,5.3571,5.1239,4.915,4.7387,4.5905,4.4771,4.4259,4.4008,4.4008,4.4008,4.4008,4.4008,4.4008,4.4008,4.4008,4.4008,4.4008,4.4008,4.4008,4.4008,4.4008,4.4008,4.4008,4.3731,4.3203,4.2661,4.1879,4.0994,4.01,3.9713,3.8907,3.8085,3.7079,3.5313,3.3591,3.1398,2.9041,2.642,2.3523,2.0354,1.769,1.5029,1.2631,1.0493,0.6183,0.1613,-0.3225,-0.8068,-1.2076,-1.58,-1.9464,-2.3352,-2.6915,-2.9647,-3.2319,-3.5142,-3.7668,-3.9692,-4.1519,-4.2643,-4.383,-4.4802,-4.6216,-4.7637,-5.0188,-5.2511,-5.4333,-5.6249,-5.81,-5.91,-5.9473,-5.9551,-5.9765,-5.9805,-5.9785,-5.9648,-5.9531,-5.9473,-5.9492,-5.9619,-6.0191,-6.114,-6.1919,-6.3146,-6.4853,6.5727,6.4922,6.5312,6.5176,6.4863,6.4473,6.4316,6.4316,6.4316,6.4316,6.4316,6.4316,6.4316,6.4316,6.4316,6.4316,6.4297,6.4054,6.381,6.3303,6.3059,6.257,6.2098,6.1606,6.1378,6.1131,6.0637,6.0141,5.8987,5.6864,5.4709,5.1972,5.0627,4.8899,4.6883,4.5822,4.5034,4.4259,4.4272,4.4272,4.4008,4.4008,4.4008,4.4008,4.4008,4.4008,4.4008,4.4008,4.4008,4.4008,4.4008,4.4008,4.3731,4.3454,4.2661,4.2093,4.1285,4.0365,3.9664,3.9243,3.8727,3.7682,3.6183,3.4207,3.2239,3.0095,2.7479,2.4842,2.1944,1.876,1.583,1.3425,1.1291,0.8068,0.3765,-0.0807,-0.5646,-1.048,-1.5286,-1.9002,-2.2423,-2.6058,-2.8903,-3.1645,-3.4249,-3.7323,-3.9862,-4.1589,-4.2784,-4.3873,-4.4802,-4.5517,-4.6928,-4.8564,-5.0888,-5.3185,-5.5265,-5.6986,-5.8571,-5.9306,-5.9433,-5.957,-5.9785,-5.9805,-5.9824,-5.998,-5.998,-5.9805,-5.9952,-6.0256,-6.1016,-6.1826,-6.3023,-6.4331,-6.6142,6.4794,6.4473,6.457,6.4551,6.4453,6.4355,6.4316,6.4316,6.4316,6.4336,6.4316,6.4316,6.4316,6.4316,6.4316,6.4316,6.4316,6.381,6.3566,6.2833,6.2589,6.2098,6.1606,6.1131,6.0637,6.0637,6.0389,6.0141,5.9183,5.7734,5.6222,5.4445,5.2656,5.0519,4.8403,4.7376,4.6084,4.4771,4.4522,4.4272,4.4008,4.4008,4.4008,4.4008,4.4008,4.4008,4.4008,4.4008,4.4008,4.4008,4.4008,4.4008,4.4008,4.319,4.2661,4.184,4.0882,3.9941,3.9482,3.8739,3.8203,3.7258,3.5788,3.331,3.0887,2.8527,2.6157,2.3266,2.0347,1.6891,1.396,1.2091,0.9682,0.5648,0.1614,-0.3226,-0.7799,-1.3417,-1.8754,-2.1937,-2.5376,-2.8256,-3.1118,-3.3852,-3.6453,-3.9037,-4.135,-4.306,-4.3366,-4.4353,-4.5264,-4.6216,-4.7622,-4.9487,-5.18,-5.3875,-5.5948,-5.7325,-5.8848,-5.9131,-5.9375,-5.9512,-5.9668,-5.9765,-5.9844,-6.0,-6.0039,-5.9902,-6.0109,-6.0738,-6.1784,-6.2817,-6.4515,-6.6061,-6.7731,6.4316,6.4316,6.4316,6.4316,6.4336,6.4512,6.459,6.459,6.459,6.459,6.4551,6.4414,6.4316,6.4316,6.4316,6.4316,6.4073,6.3566,6.3059,6.2589,6.1852,6.1359,6.0884,6.0637,6.0637,6.0389,6.0408,6.016,5.9396,5.8648,5.7378,5.585,5.4042,5.2496,5.02,4.8662,4.7101,4.556,4.5297,4.4785,4.4008,4.4008,4.4008,4.4008,4.4008,4.4008,4.4008,4.4008,4.4008,4.4008,4.4008,4.3731,4.3467,4.2661,4.2054,4.1147,4.0469,3.9757,3.8989,3.8487,3.7706,3.6554,3.4651,3.1938,2.9321,2.6691,2.4051,2.1414,1.9026,1.5568,1.2627,1.0487,0.6991,0.2959,-0.1075,-0.5374,-1.1002,-1.6886,-2.1143,-2.4322,-2.7216,-2.9824,-3.2935,-3.5764,-3.8362,-4.0657,-4.2985,-4.3921,-4.4492,-4.5354,-4.6262,-4.7385,-4.9034,-5.0888,-5.3185,-5.5037,-5.6647,-5.802,-5.8956,-5.9219,-5.9297,-5.9414,-5.9531,-5.9648,-5.9805,-5.998,-5.998,-5.998,-6.0778,-6.1408,-6.2659,-6.3791,-6.5774,-6.7448,-6.8928,6.4316,6.4316,6.4316,6.4316,6.4375,6.4746,6.4922,6.4922,6.4922,6.4922,6.4844,6.4473,6.4336,6.4316,6.4316,6.4316,6.4073,6.3322,6.2833,6.2098,6.1606,6.0884,6.0637,6.0389,6.0389,6.0389,6.0408,6.016,5.9663,5.9147,5.863,5.6875,5.5597,5.4313,5.2016,5.0215,4.8662,4.7101,4.607,4.5034,4.4522,4.4008,4.4008,4.4008,4.4008,4.4008,4.4008,4.4008,4.4008,4.4008,4.4008,4.3467,4.2925,4.2396,4.1424,4.077,3.9818,3.9275,3.8724,3.8013,3.6801,3.5125,3.2998,3.0626,2.775,2.485,2.2209,1.9557,1.6902,1.4767,1.1823,0.8068,0.4302,0.0269,-0.3761,-0.8053,-1.42,-1.9816,-2.3002,-2.6445,-2.905,-3.1398,-3.4745,-3.7572,-3.9996,-4.2291,-4.3783,-4.4698,-4.5606,-4.6776,-4.7558,-4.9099,-5.0655,-5.2511,-5.4351,-5.5966,-5.7569,-5.8264,-5.918,-5.918,-5.9219,-5.9316,-5.9414,-5.957,-5.9726,-5.9805,-6.0078,-6.0422,-6.1242,-6.2267,-6.3659,-6.5118,-6.7082,-6.8874,-7.0006,6.4316,6.4316,6.4316,6.4316,6.4375,6.4765,6.4941,6.4941,6.4961,6.4941,6.4863,6.4531,6.4316,6.4316,6.4316,6.4054,6.3566,6.2814,6.2098,6.1606,6.1131,6.0637,6.0389,6.0389,6.0389,6.0389,6.0389,6.0389,6.016,6.016,5.9645,5.863,5.7361,5.6085,5.4567,5.2528,5.0488,4.8662,4.7101,4.5822,4.4785,4.4259,4.4008,4.4008,4.4008,4.4008,4.4008,4.4008,4.4008,4.4008,4.4008,4.3467,4.2925,4.2105,4.1424,4.0369,3.9421,3.8868,3.8332,3.7341,3.6135,3.4563,3.2447,2.9573,2.6683,2.3523,2.0619,1.7429,1.5301,1.3702,1.0755,0.6183,0.2152,-0.2688,-0.6987,-1.1801,-1.7147,-2.0878,-2.4322,-2.7216,-3.0104,-3.3194,-3.6791,-3.9335,-4.1566,-4.3636,-4.5263,-4.6156,-4.6496,-4.7694,-4.9122,-5.0622,-5.2349,-5.3663,-5.5265,-5.6665,-5.8039,-5.8732,-5.9199,-5.9199,-5.9199,-5.9199,-5.9297,-5.9433,-5.9453,-5.9473,-5.9785,-6.0571,-6.1774,-6.3025,-6.4888,-6.6673,-6.8544,-6.9775,-7.0844]},{"header":{"parameterUnit":"m.s-1","parameterCategory":1,"la1":31.0,"la2":29.5877,"lo1":-88.7671,"lo2":-86.6584,"dy":0.0162,"dx":0.0185,"nx":115,"ny":88,"refTime":"2026-03-09T12:00:00:Z","depth":0,"parameterNumber":3,"parameterNumberName":"V-component_of_WINDS"},"data":[0.0,0.0,0.0,0.0,0.0,0.0,0.0,0.0,0.0,0.0,0.0,0.0,0.0,0.0,0.0,0.0,0.0,0.0,0.0,0.0,0.0,0.0,0.0,0.0,0.0,0.0,0.0,0.0,0.0,0.0,0.0,0.0,0.0,0.0,0.0,0.0,0.0,0.0,0.0,0.0,0.0,0.0,0.0,0.0,0.0,0.0,0.0,0.0,0.0,0.0,0.0,0.0,0.0,0.0,0.0,0.0,0.0,0.0,0.0,0.0,0.0,0.0,0.0,0.0,0.0,0.0,0.0,0.0,0.0,0.0,0.0,0.0,0.0,0.0,0.0,0.0,0.0,0.0,0.0,0.0,0.0,0.0,0.0,0.0,0.0,0.0,0.0,0.0,0.0,0.0,0.0,0.0,0.0,0.0,0.0,0.0,0.0,0.0,0.0,0.0,0.0,0.0,0.0,0.0,0.0,0.0,0.0,0.0,0.0,0.0,0.0,0.0,0.0,0.0,0.0,0.0,0.0,0.0,0.0,0.0,0.0,0.0,0.0,0.0,0.0,0.0,0.0,0.0,0.0,0.0,0.0,0.0,0.0,0.0,0.0,0.0,0.0,0.0,0.0,0.0,0.0,0.0,0.0,0.0,0.0,0.0,0.0,0.0,0.0,0.0,0.0,0.0,0.0,0.0,0.0,0.0,0.0,0.0,0.0,0.0,0.0,0.0,0.0,0.0,0.0,0.0,0.0,0.0,0.0,0.0,0.0,0.0,0.0,0.0,0.0,0.0,0.0,0.0,0.0,0.0,0.0,0.0,0.0,0.0,0.0,0.0,0.0,0.0,0.0,0.0,0.0,0.0,0.0,0.0,0.0,0.0,0.0,0.0,0.0,0.0,0.0,0.0,0.0,0.0,0.0,0.0,0.0,0.0,0.0,0.0,0.0,0.0,0.0,0.0,0.0,0.0,0.0,0.0,0.0,0.0,0.0,0.0,0.0,0.0,0.0,0.0,0.0,0.0,0.0,0.0,0.0,0.0,0.0,0.0,0.0,0.0,0.0,0.0,0.0,0.0,0.0,0.0,0.0,0.0,0.0,0.0,0.0,0.0,0.0,0.0,0.0,0.0,0.0,0.0,0.0,0.0,0.0,0.0,0.0,0.0,0.0,0.0,0.0,0.0,0.0,0.0,0.0,0.0,0.0,0.0,0.0,0.0,0.0,0.0,0.0,0.0,0.0,0.0,0.0,0.0,0.0,0.0,0.0,0.0,0.0,0.0,0.0,0.0,0.0,0.0,0.0,0.0,0.0,0.0,0.0,0.0,0.0,0.0,0.0,0.0,0.0,0.0,0.0,0.0,0.0,0.0,0.0,0.0,0.0,0.0,0.0,0.0,0.0,0.0,0.0,0.0,0.0,0.0,0.0,0.0,0.0,0.0,0.0,0.0,0.0,0.0,0.0,0.0,0.0,0.0,0.0,0.0,0.0,0.0,0.0,0.0,0.0,0.0,0.0,0.0,0.0,0.0,0.0,0.0,0.0,0.0,0.0,0.0,0.0,0.0,0.0,0.0,0.0,0.0,0.0,0.0,0.0,0.0,0.0,0.0,0.0,0.0,0.0,0.0,0.0,0.0,0.0,0.0,0.0,0.0,0.0,0.0,0.0,0.0,0.0,0.0,0.0,0.0,0.0,0.0,0.0,0.0,0.0,0.0,0.0,0.0,0.0,0.0,0.0,0.0,0.0,0.0,0.0,0.0,0.0,0.0,0.0,0.0,0.0,0.0,0.0,0.0,0.0,0.0,0.0,0.0,0.0,0.0,0.0,0.0,0.0,0.0,0.0,0.0,0.0,0.0,0.0,0.0,0.0,0.0,0.0,0.0,0.0,0.0,0.0,0.0,0.0,0.0,0.0,0.0,0.0,0.0,0.0,0.0,0.0,0.0,0.0,0.0,0.0,0.0,0.0,0.0,0.0,0.0,0.0,0.0,0.0,0.0,0.0,0.0,0.0,0.0,0.0,0.0,0.0,0.0,0.0,0.0,0.0,0.0,0.0,0.0,0.0,0.0,0.0,0.0,0.0,0.0,0.0,0.0,0.0,0.0,0.0,0.0,0.0,0.0,0.0,0.0,0.0,0.0,0.0,0.0,0.0,0.0,0.0,0.0,0.0,0.0,0.0,0.0,0.0,0.0,0.0,0.0,0.0,0.0,0.0,0.0,0.0,0.0,0.0,0.0,0.0,0.0,0.0,0.0,0.0,0.0,0.0,0.0,0.0,0.0,0.0,0.0,0.0,0.0,0.0,0.0,0.0,0.0,0.0,0.0,0.0,0.0,0.0,0.0,0.0,0.0,0.0,0.0,0.0,0.0,0.0,0.0,0.0,0.0,0.0,0.0,0.0,0.0,0.0,0.0,0.0,0.0,0.0,0.0,0.0,0.0,0.0,0.0,0.0,0.0,0.0,0.0,0.0,0.0,0.0,0.0,0.0,0.0,0.0,0.0,0.0,0.0,0.0,0.0,0.0,0.0,0.0,0.0,0.0,0.0,0.0,0.0,0.0,0.0,0.0,0.0,0.0,0.0,0.0,0.0,0.0,0.0,0.0,0.0,0.0,0.0,0.0,0.0,0.0,0.0,0.0,0.0,0.0,0.0,0.0,0.0,0.0,0.0,0.0,0.0,0.0,0.0,0.0,0.0,0.0,0.0,0.0,0.0,0.0,0.0,0.0,0.0,0.0,0.0,0.0,0.0,0.0,0.0,0.0,0.0,0.0,0.0,0.0,0.0,0.0,0.0,0.0,0.0,0.0,0.0,0.0,0.0,0.0,0.0,0.0,0.0,0.0,0.0,0.0,0.0,0.0,0.0,0.0,0.0,0.0,0.0,0.0,0.0,0.0,0.0,0.0,0.0,0.0,0.0,0.0,0.0,0.0,0.0,0.0,0.0,0.0,0.0,0.0,0.0,0.0,0.0,0.0,0.0,0.0,0.0,0.0,0.0,0.0,0.0,0.0,0.0,0.0,0.0,0.0,0.0,0.0,0.0,0.0,0.0,0.0,0.0,0.0,0.0,0.0,0.0,0.0,0.0,0.0,0.0,0.0,0.0,0.0,0.0,0.0,0.0,0.0,0.0,0.0,0.0,0.0,0.0,0.0,0.0,0.0,0.0,0.0,0.0,0.0,0.0,0.0,0.0,0.0,0.0,0.0,0.0,0.0,0.0,0.0,0.0,0.0,0.0,0.0,0.0,0.0,0.0,0.0,0.0,0.0,0.0,0.0,0.0,0.0,0.0,0.0,0.0,0.0,0.0,0.0,0.0,0.0,0.0,0.0,0.0,0.0,0.0,0.0,0.0,0.0,0.0,0.0,0.0,0.0,0.0,0.0,0.0,0.0,0.0,0.0,0.0,0.0,0.0,0.0,0.0,0.0,0.0,0.0,0.0,0.0,0.0,0.0,0.0,0.0,0.0,0.0,0.0,0.0,0.0,0.0,0.0,0.0,0.0,0.0,0.0,0.0,0.0,0.0,0.0,0.0,0.0,0.0,0.0,0.0,0.0,0.0,0.0,0.0,0.0,0.0,0.0,0.0,0.0,0.0,0.0,0.0,0.0,0.0,0.0,0.0,0.0,0.0,0.0,0.0,0.0,0.0,0.0,0.0,0.0,0.0,0.0,0.0,0.0,0.0,0.0,0.0,0.0,0.0,0.0,0.0,0.0,0.0,0.0,0.0,0.0,0.0,0.0,0.0,0.0,0.0,0.0,0.0,0.0,0.0,0.0,0.0,0.0,0.0,0.0,0.0,0.0,0.0,0.0,0.0,0.0,0.0,0.0,0.0,0.0,0.0,0.0,0.0,0.0,0.0,0.0,0.0,0.0,0.0,0.0,0.0,0.0,0.0,0.0,0.0,0.0,0.0,0.0,0.0,0.0,0.0,0.0,0.0,0.0,0.0,0.0,0.0,0.0,0.0,0.0,0.0,0.0,0.0,0.0,0.0,0.0,0.0,0.0,0.0,0.0,0.0,0.0,0.0,0.0,0.0,0.0,0.0,0.0,0.0,0.0,0.0,0.0,0.0,0.0,0.0,0.0,0.0,0.0,0.0,0.0,0.0,0.0,0.0,0.0,0.0,0.0,0.0,0.0,0.0,0.0,0.0,0.0,0.0,0.0,0.0,0.0,0.0,0.0,0.0,0.0,0.0,0.0,0.0,0.0,0.0,0.0,0.0,0.0,0.0,0.0,0.0,0.0,0.0,0.0,0.0,0.0,0.0,0.0,0.0,0.0,0.0,0.0,-3.1216,0.0,0.0,0.0,0.0,0.0,0.0,0.0,0.0,0.0,0.0,0.0,0.0,0.0,0.0,0.0,0.0,0.0,0.0,0.0,0.0,0.0,0.0,0.0,0.0,0.0,0.0,0.0,0.0,0.0,0.0,0.0,0.0,0.0,0.0,0.0,0.0,0.0,0.0,0.0,0.0,0.0,0.0,0.0,0.0,0.0,0.0,0.0,0.0,0.0,0.0,0.0,0.0,0.0,0.0,0.0,0.0,0.0,0.0,0.0,0.0,0.0,0.0,0.0,0.0,0.0,0.0,0.0,0.0,0.0,0.0,0.0,0.0,0.0,0.0,0.0,0.0,0.0,0.0,0.0,0.0,0.0,0.0,0.0,0.0,0.0,0.0,0.0,0.0,0.0,0.0,0.0,0.0,0.0,0.0,0.0,0.0,0.0,0.0,0.0,0.0,0.0,0.0,0.0,0.0,0.0,0.0,0.0,0.0,0.0,0.0,-3.1834,-3.1622,-3.1898,-3.1931,-3.1748,0.0,0.0,0.0,0.0,0.0,0.0,0.0,0.0,0.0,0.0,0.0,0.0,0.0,0.0,0.0,0.0,0.0,0.0,0.0,0.0,0.0,0.0,0.0,0.0,0.0,0.0,0.0,0.0,0.0,0.0,0.0,0.0,0.0,0.0,0.0,0.0,0.0,0.0,0.0,0.0,0.0,0.0,0.0,0.0,0.0,0.0,0.0,0.0,0.0,0.0,0.0,0.0,0.0,0.0,0.0,0.0,0.0,0.0,0.0,0.0,0.0,0.0,0.0,0.0,0.0,0.0,0.0,0.0,0.0,0.0,0.0,0.0,0.0,0.0,0.0,0.0,0.0,0.0,0.0,0.0,0.0,0.0,0.0,0.0,0.0,0.0,0.0,0.0,0.0,0.0,0.0,0.0,0.0,0.0,0.0,0.0,0.0,0.0,0.0,0.0,0.0,0.0,0.0,0.0,0.0,0.0,0.0,0.0,0.0,0.0,0.0,0.0,-3.2482,-3.2637,-3.266,0.0,0.0,0.0,0.0,0.0,0.0,0.0,0.0,0.0,0.0,0.0,0.0,0.0,0.0,0.0,0.0,0.0,0.0,0.0,0.0,0.0,0.0,0.0,0.0,0.0,0.0,0.0,0.0,0.0,0.0,0.0,0.0,0.0,0.0,0.0,0.0,0.0,0.0,0.0,0.0,0.0,0.0,0.0,0.0,0.0,0.0,0.0,0.0,0.0,0.0,0.0,0.0,0.0,0.0,0.0,0.0,0.0,0.0,0.0,0.0,0.0,0.0,0.0,0.0,0.0,0.0,0.0,0.0,0.0,0.0,0.0,0.0,0.0,0.0,0.0,0.0,0.0,0.0,0.0,0.0,0.0,0.0,0.0,0.0,0.0,0.0,0.0,0.0,0.0,0.0,0.0,0.0,0.0,0.0,0.0,0.0,0.0,0.0,0.0,0.0,0.0,0.0,0.0,0.0,0.0,0.0,0.0,0.0,0.0,0.0,-3.2751,-3.2935,-3.3298,0.0,-3.4088,0.0,0.0,0.0,0.0,0.0,0.0,0.0,0.0,0.0,0.0,0.0,0.0,0.0,0.0,0.0,0.0,0.0,0.0,0.0,0.0,0.0,0.0,0.0,0.0,0.0,0.0,0.0,0.0,0.0,0.0,0.0,0.0,0.0,0.0,0.0,0.0,0.0,0.0,0.0,0.0,0.0,0.0,0.0,0.0,0.0,0.0,0.0,0.0,0.0,0.0,0.0,0.0,0.0,0.0,0.0,0.0,0.0,0.0,0.0,0.0,0.0,0.0,0.0,0.0,0.0,0.0,0.0,0.0,0.0,0.0,0.0,0.0,0.0,0.0,0.0,0.0,0.0,0.0,0.0,0.0,0.0,0.0,0.0,0.0,0.0,0.0,0.0,0.0,0.0,0.0,0.0,0.0,0.0,0.0,0.0,0.0,0.0,0.0,0.0,0.0,0.0,0.0,0.0,0.0,0.0,0.0,0.0,0.0,0.0,0.0,0.0,-3.3886,-3.4465,-3.4804,0.0,0.0,0.0,0.0,0.0,0.0,0.0,0.0,0.0,0.0,0.0,0.0,0.0,0.0,0.0,0.0,0.0,0.0,0.0,0.0,0.0,0.0,0.0,0.0,0.0,0.0,0.0,0.0,0.0,0.0,0.0,0.0,0.0,0.0,0.0,0.0,0.0,0.0,0.0,0.0,0.0,0.0,0.0,0.0,0.0,0.0,0.0,0.0,0.0,0.0,0.0,0.0,0.0,0.0,0.0,0.0,0.0,0.0,0.0,0.0,0.0,0.0,0.0,0.0,0.0,0.0,0.0,0.0,0.0,0.0,0.0,0.0,0.0,0.0,0.0,0.0,0.0,0.0,0.0,0.0,0.0,0.0,0.0,0.0,0.0,0.0,0.0,0.0,0.0,0.0,0.0,0.0,0.0,0.0,0.0,0.0,0.0,0.0,0.0,0.0,0.0,0.0,0.0,0.0,0.0,0.0,0.0,0.0,0.0,0.0,-3.4393,0.0,-3.5268,-3.5517,-3.5655,-3.5764,0.0,0.0,0.0,0.0,0.0,0.0,0.0,0.0,0.0,0.0,0.0,0.0,0.0,0.0,0.0,0.0,0.0,0.0,0.0,0.0,0.0,0.0,0.0,0.0,0.0,0.0,0.0,0.0,0.0,0.0,0.0,0.0,0.0,0.0,0.0,0.0,0.0,0.0,0.0,0.0,0.0,0.0,0.0,0.0,0.0,0.0,0.0,0.0,0.0,0.0,0.0,0.0,0.0,0.0,0.0,0.0,0.0,0.0,0.0,0.0,0.0,0.0,0.0,0.0,0.0,0.0,0.0,0.0,0.0,0.0,0.0,0.0,0.0,0.0,0.0,0.0,0.0,0.0,0.0,0.0,0.0,0.0,0.0,0.0,0.0,0.0,0.0,0.0,0.0,0.0,0.0,0.0,0.0,0.0,0.0,0.0,0.0,0.0,0.0,0.0,0.0,0.0,0.0,0.0,0.0,0.0,0.0,0.0,0.0,-3.4281,-3.5558,-3.7021,-3.656,-3.6199,0.0,0.0,0.0,0.0,0.0,0.0,0.0,0.0,0.0,0.0,0.0,0.0,0.0,0.0,0.0,0.0,0.0,0.0,0.0,0.0,0.0,0.0,0.0,0.0,0.0,0.0,0.0,0.0,0.0,0.0,0.0,0.0,0.0,0.0,0.0,0.0,0.0,0.0,0.0,0.0,0.0,0.0,0.0,0.0,0.0,0.0,0.0,0.0,0.0,0.0,0.0,0.0,0.0,0.0,0.0,0.0,0.0,0.0,0.0,0.0,0.0,0.0,0.0,0.0,0.0,0.0,0.0,0.0,0.0,0.0,0.0,0.0,0.0,0.0,0.0,0.0,0.0,0.0,0.0,0.0,0.0,0.0,0.0,0.0,0.0,0.0,0.0,0.0,0.0,0.0,0.0,0.0,0.0,0.0,0.0,0.0,0.0,0.0,0.0,0.0,0.0,0.0,0.0,0.0,0.0,0.0,0.0,0.0,0.0,-3.3946,-3.5648,-3.6787,-3.7221,-3.7201,-3.6704,0.0,0.0,0.0,0.0,0.0,0.0,0.0,0.0,0.0,0.0,0.0,0.0,0.0,0.0,0.0,0.0,0.0,0.0,0.0,0.0,0.0,0.0,0.0,0.0,0.0,0.0,0.0,0.0,0.0,0.0,0.0,0.0,0.0,0.0,0.0,0.0,0.0,0.0,0.0,0.0,0.0,0.0,0.0,0.0,0.0,0.0,0.0,0.0,0.0,0.0,0.0,0.0,0.0,0.0,0.0,0.0,0.0,0.0,0.0,0.0,0.0,0.0,0.0,0.0,0.0,0.0,0.0,0.0,0.0,0.0,0.0,0.0,0.0,0.0,0.0,0.0,0.0,0.0,0.0,0.0,0.0,0.0,0.0,0.0,0.0,0.0,0.0,0.0,0.0,0.0,0.0,0.0,0.0,0.0,0.0,0.0,0.0,0.0,0.0,0.0,0.0,0.0,0.0,0.0,0.0,0.0,0.0,0.0,0.0,-3.478,0.0,-3.7774,0.0,-3.7592,-3.6858,0.0,0.0,0.0,0.0,0.0,0.0,0.0,0.0,0.0,0.0,0.0,0.0,0.0,0.0,0.0,0.0,0.0,0.0,0.0,0.0,0.0,0.0,0.0,0.0,0.0,0.0,0.0,0.0,0.0,0.0,0.0,0.0,0.0,0.0,0.0,0.0,0.0,0.0,0.0,0.0,0.0,0.0,0.0,0.0,0.0,0.0,0.0,0.0,0.0,0.0,0.0,0.0,0.0,0.0,0.0,0.0,0.0,0.0,0.0,0.0,0.0,0.0,0.0,0.0,0.0,0.0,0.0,0.0,0.0,0.0,0.0,0.0,0.0,0.0,0.0,0.0,0.0,0.0,0.0,0.0,0.0,0.0,0.0,0.0,0.0,0.0,0.0,0.0,0.0,0.0,0.0,0.0,0.0,0.0,0.0,0.0,0.0,0.0,0.0,0.0,0.0,0.0,0.0,0.0,0.0,0.0,0.0,0.0,-3.4072,-3.5825,-3.7486,-3.8585,-3.8826,-3.7849,-3.6655,0.0,0.0,0.0,0.0,0.0,0.0,0.0,0.0,0.0,0.0,0.0,0.0,0.0,0.0,0.0,0.0,0.0,0.0,0.0,0.0,0.0,0.0,0.0,0.0,0.0,0.0,0.0,0.0,0.0,0.0,0.0,0.0,0.0,0.0,0.0,0.0,0.0,0.0,0.0,0.0,0.0,0.0,0.0,0.0,0.0,0.0,0.0,0.0,0.0,0.0,0.0,0.0,0.0,0.0,0.0,0.0,0.0,0.0,0.0,0.0,0.0,0.0,0.0,0.0,0.0,0.0,0.0,0.0,0.0,0.0,0.0,0.0,0.0,0.0,0.0,0.0,0.0,0.0,0.0,0.0,0.0,0.0,0.0,0.0,0.0,0.0,0.0,0.0,0.0,0.0,0.0,0.0,0.0,0.0,0.0,0.0,0.0,0.0,0.0,0.0,0.0,0.0,0.0,0.0,0.0,0.0,0.0,0.0,0.0,-3.9673,-4.1441,-4.2151,-4.1636,-4.0469,-3.8448,0.0,0.0,0.0,0.0,0.0,0.0,0.0,0.0,0.0,0.0,0.0,0.0,0.0,0.0,0.0,0.0,0.0,0.0,0.0,0.0,0.0,0.0,0.0,0.0,0.0,0.0,0.0,0.0,0.0,0.0,0.0,0.0,0.0,0.0,0.0,0.0,0.0,0.0,0.0,0.0,0.0,0.0,0.0,0.0,0.0,0.0,0.0,0.0,0.0,0.0,0.0,0.0,0.0,0.0,0.0,0.0,0.0,0.0,0.0,0.0,0.0,0.0,0.0,0.0,0.0,0.0,0.0,0.0,0.0,0.0,0.0,0.0,0.0,0.0,0.0,0.0,0.0,0.0,0.0,0.0,0.0,0.0,0.0,0.0,0.0,0.0,0.0,0.0,0.0,0.0,0.0,0.0,0.0,0.0,0.0,0.0,0.0,0.0,0.0,0.0,0.0,0.0,0.0,0.0,0.0,0.0,0.0,0.0,0.0,-4.8466,-4.8664,-4.8521,-4.794,-4.5986,-4.2611,-3.7698,0.0,0.0,0.0,0.0,0.0,0.0,0.0,0.0,0.0,0.0,0.0,0.0,0.0,0.0,0.0,0.0,0.0,0.0,0.0,0.0,0.0,0.0,0.0,0.0,0.0,0.0,0.0,0.0,0.0,0.0,0.0,0.0,0.0,0.0,0.0,0.0,0.0,0.0,0.0,0.0,0.0,0.0,0.0,0.0,0.0,0.0,0.0,0.0,0.0,0.0,0.0,0.0,0.0,0.0,0.0,0.0,0.0,0.0,0.0,0.0,0.0,0.0,0.0,0.0,0.0,0.0,0.0,0.0,0.0,0.0,0.0,0.0,0.0,0.0,0.0,0.0,0.0,0.0,0.0,0.0,0.0,0.0,0.0,0.0,0.0,0.0,0.0,0.0,0.0,0.0,0.0,0.0,0.0,0.0,0.0,0.0,0.0,0.0,0.0,0.0,0.0,0.0,0.0,0.0,0.0,0.0,0.0,0.0,-6.1362,-5.9103,-5.7782,-5.7094,-5.3757,-4.8596,0.0,0.0,0.0,0.0,0.0,0.0,0.0,0.0,0.0,0.0,0.0,0.0,0.0,0.0,0.0,0.0,0.0,0.0,0.0,0.0,0.0,0.0,0.0,0.0,0.0,0.0,0.0,0.0,0.0,0.0,0.0,0.0,0.0,0.0,0.0,0.0,0.0,0.0,0.0,0.0,0.0,0.0,0.0,0.0,0.0,0.0,0.0,0.0,0.0,0.0,0.0,0.0,0.0,0.0,0.0,0.0,0.0,0.0,0.0,0.0,0.0,0.0,0.0,0.0,0.0,0.0,0.0,0.0,0.0,0.0,0.0,0.0,0.0,0.0,0.0,0.0,0.0,0.0,0.0,0.0,0.0,0.0,0.0,0.0,0.0,0.0,0.0,0.0,0.0,0.0,0.0,0.0,0.0,0.0,0.0,0.0,0.0,0.0,0.0,0.0,0.0,0.0,0.0,0.0,0.0,0.0,0.0,0.0,0.0,-7.0162,-7.5638,-7.4445,-6.6568,-6.0147,-5.3657,0.0,0.0,0.0,0.0,0.0,0.0,0.0,0.0,0.0,0.0,0.0,0.0,0.0,0.0,0.0,0.0,0.0,0.0,0.0,0.0,0.0,0.0,0.0,0.0,0.0,0.0,0.0,0.0,0.0,0.0,0.0,0.0,0.0,0.0,0.0,0.0,0.0,0.0,0.0,0.0,0.0,0.0,0.0,0.0,0.0,0.0,0.0,0.0,0.0,0.0,0.0,0.0,0.0,0.0,0.0,0.0,0.0,0.0,0.0,0.0,0.0,0.0,0.0,0.0,0.0,0.0,0.0,0.0,0.0,0.0,0.0,0.0,0.0,0.0,0.0,0.0,0.0,0.0,0.0,0.0,0.0,0.0,0.0,0.0,0.0,0.0,0.0,0.0,0.0,0.0,0.0,0.0,0.0,0.0,0.0,0.0,0.0,0.0,0.0,0.0,0.0,0.0,0.0,0.0,0.0,0.0,0.0,0.0,-6.7175,-7.6383,-8.5774,-8.748,-8.0734,-6.998,-6.0385,0.0,0.0,0.0,0.0,0.0,0.0,0.0,0.0,0.0,0.0,0.0,0.0,0.0,0.0,0.0,0.0,0.0,0.0,0.0,0.0,0.0,0.0,0.0,0.0,0.0,0.0,0.0,0.0,0.0,0.0,0.0,0.0,0.0,0.0,0.0,0.0,0.0,0.0,0.0,0.0,0.0,0.0,0.0,0.0,0.0,0.0,0.0,0.0,0.0,0.0,0.0,0.0,0.0,0.0,0.0,0.0,0.0,0.0,0.0,0.0,0.0,0.0,0.0,0.0,0.0,0.0,0.0,0.0,0.0,0.0,0.0,0.0,0.0,0.0,0.0,0.0,0.0,0.0,0.0,0.0,0.0,0.0,0.0,0.0,0.0,0.0,0.0,0.0,0.0,0.0,0.0,0.0,0.0,0.0,0.0,0.0,0.0,0.0,0.0,0.0,0.0,0.0,0.0,0.0,0.0,0.0,0.0,0.0,-7.3312,-8.0968,-9.18,-9.6896,-9.5441,-8.0678,-6.7611,0.0,0.0,0.0,0.0,0.0,0.0,0.0,0.0,0.0,0.0,0.0,0.0,0.0,0.0,0.0,0.0,0.0,0.0,0.0,0.0,0.0,0.0,0.0,0.0,0.0,0.0,0.0,0.0,0.0,0.0,0.0,0.0,0.0,0.0,0.0,0.0,0.0,0.0,0.0,0.0,0.0,0.0,0.0,0.0,0.0,0.0,0.0,0.0,0.0,0.0,0.0,0.0,0.0,0.0,0.0,0.0,0.0,0.0,0.0,0.0,0.0,0.0,0.0,0.0,0.0,0.0,0.0,0.0,0.0,0.0,0.0,0.0,0.0,0.0,0.0,0.0,0.0,0.0,0.0,0.0,0.0,0.0,0.0,0.0,0.0,0.0,0.0,0.0,0.0,0.0,0.0,0.0,0.0,0.0,0.0,0.0,0.0,0.0,0.0,0.0,0.0,0.0,0.0,0.0,0.0,0.0,0.0,0.0,-7.8489,-8.8202,-9.5997,-9.9527,-9.8132,-8.3919,-7.2253,0.0,0.0,0.0,0.0,0.0,0.0,0.0,0.0,0.0,0.0,0.0,0.0,0.0,0.0,0.0,0.0,0.0,0.0,0.0,0.0,0.0,0.0,0.0,0.0,0.0,0.0,0.0,0.0,0.0,0.0,0.0,0.0,0.0,0.0,0.0,0.0,0.0,0.0,0.0,0.0,0.0,0.0,0.0,0.0,0.0,0.0,0.0,0.0,-4.9658,0.0,0.0,0.0,0.0,0.0,0.0,0.0,0.0,0.0,0.0,0.0,0.0,0.0,0.0,0.0,0.0,0.0,0.0,0.0,0.0,0.0,0.0,0.0,0.0,0.0,0.0,0.0,0.0,0.0,0.0,0.0,0.0,0.0,0.0,0.0,0.0,0.0,0.0,0.0,0.0,0.0,0.0,0.0,0.0,0.0,0.0,0.0,0.0,0.0,0.0,0.0,0.0,0.0,0.0,0.0,0.0,0.0,0.0,0.0,-8.1991,-9.2333,-9.855,-10.1222,-9.9619,-8.8792,-7.7928,0.0,0.0,0.0,0.0,0.0,0.0,0.0,0.0,0.0,0.0,0.0,0.0,0.0,0.0,0.0,0.0,0.0,0.0,0.0,0.0,0.0,0.0,0.0,0.0,0.0,0.0,0.0,0.0,0.0,0.0,0.0,0.0,0.0,0.0,0.0,0.0,0.0,0.0,0.0,0.0,0.0,0.0,0.0,0.0,0.0,0.0,0.0,0.0,0.0,0.0,0.0,0.0,0.0,0.0,0.0,0.0,0.0,0.0,0.0,0.0,0.0,0.0,0.0,0.0,0.0,0.0,0.0,0.0,0.0,0.0,0.0,0.0,0.0,0.0,0.0,0.0,0.0,0.0,0.0,0.0,0.0,0.0,0.0,0.0,0.0,0.0,0.0,0.0,0.0,0.0,0.0,0.0,0.0,0.0,0.0,0.0,0.0,0.0,0.0,0.0,0.0,0.0,0.0,0.0,0.0,0.0,0.0,-7.4239,-8.5198,-9.5525,-10.0397,-10.2167,-10.1069,-9.3038,-8.243,-6.9806,0.0,0.0,0.0,0.0,0.0,0.0,0.0,0.0,0.0,0.0,0.0,0.0,0.0,0.0,0.0,0.0,0.0,0.0,0.0,0.0,0.0,0.0,0.0,0.0,0.0,0.0,0.0,0.0,0.0,0.0,0.0,0.0,0.0,0.0,0.0,0.0,0.0,0.0,-4.4861,-4.8469,0.0,0.0,0.0,0.0,0.0,0.0,0.0,0.0,-5.5599,0.0,0.0,0.0,0.0,0.0,0.0,0.0,0.0,0.0,0.0,0.0,0.0,0.0,0.0,0.0,0.0,0.0,0.0,0.0,0.0,0.0,0.0,0.0,0.0,0.0,0.0,0.0,0.0,0.0,0.0,0.0,0.0,0.0,0.0,0.0,0.0,0.0,0.0,0.0,0.0,0.0,0.0,0.0,0.0,0.0,0.0,0.0,0.0,0.0,0.0,0.0,0.0,0.0,0.0,0.0,0.0,-6.9122,-7.8831,-8.9118,-10.0154,-10.1989,-10.221,-10.0942,-9.2363,-8.2576,-7.2058,0.0,0.0,0.0,0.0,0.0,0.0,0.0,0.0,0.0,0.0,0.0,0.0,0.0,0.0,0.0,0.0,0.0,0.0,0.0,0.0,0.0,0.0,0.0,0.0,0.0,0.0,0.0,0.0,0.0,0.0,0.0,0.0,0.0,0.0,0.0,0.0,0.0,0.0,0.0,-5.5415,-5.6598,0.0,0.0,0.0,0.0,0.0,0.0,0.0,0.0,-6.1366,0.0,0.0,0.0,0.0,0.0,0.0,0.0,0.0,0.0,0.0,0.0,0.0,0.0,0.0,0.0,0.0,0.0,0.0,0.0,0.0,0.0,0.0,0.0,0.0,0.0,0.0,0.0,0.0,0.0,0.0,0.0,0.0,0.0,0.0,0.0,0.0,0.0,0.0,0.0,0.0,0.0,0.0,0.0,0.0,0.0,0.0,0.0,0.0,0.0,0.0,0.0,0.0,0.0,0.0,0.0,-7.2931,-8.3308,-9.3451,-10.3087,-10.3722,-10.3338,-10.2182,-9.3453,-8.3589,0.0,0.0,0.0,0.0,0.0,0.0,0.0,0.0,0.0,0.0,0.0,0.0,0.0,0.0,0.0,0.0,0.0,0.0,0.0,0.0,0.0,0.0,0.0,0.0,0.0,0.0,0.0,0.0,0.0,0.0,0.0,0.0,0.0,0.0,0.0,0.0,0.0,0.0,0.0,0.0,-6.1989,-6.4329,-6.8949,0.0,0.0,0.0,0.0,0.0,0.0,-6.7958,-6.6406,0.0,0.0,0.0,0.0,0.0,0.0,0.0,0.0,0.0,0.0,0.0,0.0,0.0,0.0,0.0,0.0,0.0,0.0,0.0,0.0,0.0,0.0,0.0,0.0,0.0,0.0,0.0,0.0,0.0,0.0,0.0,0.0,0.0,0.0,0.0,0.0,0.0,0.0,0.0,0.0,0.0,0.0,0.0,0.0,0.0,0.0,0.0,0.0,0.0,0.0,0.0,0.0,0.0,0.0,0.0,-7.6008,-8.6968,-9.6676,-10.4732,-10.4481,-10.396,-10.3278,-9.3645,-8.3573,0.0,0.0,0.0,0.0,0.0,0.0,0.0,0.0,0.0,0.0,0.0,0.0,0.0,0.0,0.0,0.0,0.0,0.0,0.0,0.0,0.0,0.0,0.0,0.0,0.0,0.0,0.0,0.0,0.0,0.0,0.0,0.0,0.0,0.0,0.0,0.0,0.0,0.0,0.0,0.0,0.0,-7.1201,-7.6623,-7.1936,0.0,0.0,0.0,0.0,-7.1245,-7.3462,0.0,0.0,0.0,0.0,0.0,0.0,0.0,0.0,0.0,0.0,0.0,0.0,0.0,0.0,0.0,0.0,0.0,0.0,0.0,0.0,0.0,0.0,0.0,0.0,0.0,0.0,0.0,0.0,0.0,0.0,0.0,0.0,0.0,0.0,0.0,0.0,0.0,0.0,0.0,0.0,0.0,0.0,0.0,0.0,0.0,0.0,0.0,0.0,0.0,0.0,0.0,0.0,0.0,0.0,0.0,0.0,-7.8298,-8.8825,-9.7659,-10.4074,-10.408,-10.3397,-10.2655,-9.0615,-8.0377,0.0,0.0,0.0,0.0,0.0,0.0,0.0,0.0,0.0,0.0,0.0,0.0,0.0,0.0,0.0,0.0,0.0,0.0,0.0,0.0,0.0,0.0,0.0,0.0,0.0,0.0,0.0,0.0,0.0,0.0,0.0,0.0,0.0,0.0,0.0,0.0,0.0,0.0,0.0,0.0,0.0,-7.3597,-8.086,-7.6792,-7.2095,0.0,0.0,-7.6568,-7.9248,-8.4819,0.0,0.0,0.0,0.0,0.0,0.0,0.0,0.0,0.0,0.0,0.0,0.0,0.0,0.0,0.0,0.0,0.0,0.0,0.0,0.0,0.0,0.0,0.0,0.0,0.0,0.0,0.0,0.0,0.0,0.0,0.0,0.0,0.0,0.0,0.0,0.0,0.0,0.0,0.0,0.0,0.0,0.0,0.0,0.0,0.0,0.0,0.0,0.0,0.0,0.0,0.0,0.0,0.0,0.0,0.0,-6.8382,-7.9926,-9.214,-10.085,-10.5301,-10.46,-10.3722,-10.3036,-9.0804,-8.0387,0.0,0.0,0.0,0.0,0.0,0.0,0.0,0.0,0.0,0.0,0.0,0.0,0.0,0.0,0.0,0.0,0.0,0.0,0.0,0.0,0.0,0.0,0.0,0.0,0.0,0.0,0.0,0.0,0.0,0.0,0.0,0.0,0.0,0.0,0.0,0.0,0.0,0.0,0.0,0.0,0.0,0.0,-8.3228,-8.3141,0.0,0.0,0.0,-8.3527,-8.3217,0.0,0.0,0.0,0.0,0.0,0.0,0.0,0.0,0.0,0.0,0.0,0.0,0.0,0.0,0.0,0.0,0.0,0.0,0.0,0.0,0.0,0.0,0.0,0.0,0.0,0.0,0.0,0.0,0.0,0.0,0.0,0.0,0.0,0.0,0.0,0.0,0.0,0.0,0.0,0.0,0.0,0.0,0.0,0.0,0.0,0.0,0.0,0.0,0.0,0.0,0.0,0.0,0.0,0.0,0.0,0.0,0.0,-8.134,-9.4584,-10.3087,-10.6229,-10.4929,-10.3913,-10.3236,-9.1917,0.0,0.0,0.0,0.0,0.0,0.0,0.0,0.0,0.0,0.0,0.0,0.0,0.0,0.0,0.0,0.0,0.0,0.0,0.0,0.0,0.0,0.0,0.0,0.0,0.0,0.0,0.0,-3.699,0.0,0.0,0.0,0.0,0.0,0.0,0.0,0.0,0.0,0.0,0.0,0.0,0.0,0.0,-8.1207,-8.6018,-8.9311,-9.066,0.0,0.0,-9.0032,-8.8603,-9.394,-9.4001,0.0,0.0,0.0,0.0,0.0,0.0,0.0,0.0,0.0,0.0,0.0,0.0,0.0,0.0,0.0,0.0,0.0,0.0,0.0,0.0,0.0,0.0,0.0,0.0,0.0,0.0,0.0,0.0,0.0,0.0,0.0,0.0,0.0,0.0,0.0,0.0,0.0,0.0,0.0,0.0,0.0,0.0,0.0,0.0,0.0,0.0,0.0,0.0,0.0,0.0,0.0,0.0,0.0,0.0,0.0,-8.2469,-9.5066,-10.3087,-10.6229,-10.4736,-10.3722,-10.3266,-9.3429,-8.3552,0.0,0.0,0.0,0.0,0.0,0.0,0.0,0.0,0.0,0.0,0.0,0.0,0.0,0.0,0.0,0.0,0.0,0.0,0.0,0.0,0.0,0.0,0.0,0.0,0.0,0.0,0.0,0.0,0.0,0.0,0.0,0.0,0.0,0.0,0.0,0.0,0.0,0.0,0.0,0.0,0.0,-8.363,-9.0149,-9.4682,-9.7644,0.0,0.0,-9.6302,-9.7784,-10.4975,-10.4092,-8.5097,0.0,0.0,0.0,0.0,0.0,0.0,0.0,0.0,0.0,0.0,0.0,0.0,0.0,0.0,0.0,0.0,0.0,0.0,0.0,0.0,0.0,0.0,0.0,0.0,0.0,0.0,0.0,0.0,0.0,0.0,0.0,0.0,0.0,0.0,0.0,0.0,0.0,0.0,0.0,0.0,0.0,0.0,0.0,0.0,0.0,0.0,0.0,0.0,0.0,0.0,0.0,0.0,0.0,-7.1016,-8.209,-9.4885,-10.2877,-10.563,-10.469,-10.4424,-10.5193,-9.6771,-8.7912,0.0,0.0,0.0,0.0,0.0,0.0,0.0,0.0,0.0,0.0,0.0,0.0,0.0,0.0,0.0,0.0,0.0,0.0,0.0,0.0,0.0,0.0,0.0,0.0,0.0,0.0,0.0,0.0,-5.674,-5.803,-5.4715,0.0,0.0,0.0,0.0,0.0,0.0,0.0,0.0,0.0,0.0,-8.7485,-9.5721,-10.0697,0.0,0.0,-10.2612,-10.159,-9.8587,-10.1375,-9.9002,-8.4629,-7.6115,0.0,0.0,0.0,0.0,0.0,0.0,0.0,0.0,0.0,0.0,0.0,0.0,0.0,0.0,0.0,0.0,0.0,0.0,0.0,0.0,0.0,0.0,0.0,0.0,0.0,0.0,0.0,0.0,0.0,0.0,0.0,0.0,0.0,0.0,0.0,0.0,0.0,0.0,0.0,0.0,0.0,0.0,0.0,0.0,0.0,0.0,0.0,0.0,0.0,0.0,0.0,0.0,-7.1291,-8.2667,-9.5642,-10.3908,-10.6941,-10.625,-10.6202,-10.6434,-10.0297,-9.2764,0.0,0.0,0.0,0.0,0.0,0.0,0.0,0.0,0.0,0.0,0.0,0.0,0.0,0.0,0.0,0.0,0.0,0.0,0.0,0.0,0.0,0.0,0.0,0.0,0.0,0.0,0.0,0.0,-6.0108,-5.9626,-5.3589,0.0,0.0,0.0,0.0,0.0,0.0,0.0,0.0,0.0,0.0,-9.194,-9.8889,-10.3482,-10.5546,-10.3729,-10.3253,-10.1629,-9.7494,-9.6964,-9.3763,-8.4255,0.0,0.0,0.0,0.0,0.0,0.0,0.0,0.0,0.0,0.0,0.0,0.0,0.0,0.0,0.0,0.0,0.0,0.0,0.0,0.0,0.0,0.0,0.0,0.0,0.0,0.0,0.0,0.0,0.0,0.0,0.0,0.0,0.0,0.0,0.0,0.0,0.0,0.0,0.0,0.0,0.0,0.0,0.0,0.0,0.0,0.0,0.0,0.0,0.0,0.0,0.0,0.0,0.0,0.0,-8.4969,-9.7721,-10.6335,-11.0317,-10.964,-10.8639,-10.7597,-10.3956,-9.7774,-8.8685,0.0,0.0,0.0,0.0,0.0,0.0,0.0,0.0,0.0,0.0,0.0,0.0,0.0,0.0,0.0,0.0,0.0,0.0,0.0,0.0,0.0,0.0,0.0,0.0,0.0,0.0,-5.3283,-5.5516,-5.5206,0.0,0.0,0.0,0.0,0.0,0.0,0.0,0.0,0.0,0.0,-8.7185,-9.684,-9.8797,-10.2128,-10.354,-10.1522,-9.7894,-9.5288,-9.5208,-9.3732,-9.057,0.0,0.0,0.0,0.0,0.0,0.0,0.0,0.0,0.0,0.0,0.0,0.0,0.0,0.0,0.0,0.0,0.0,0.0,0.0,0.0,0.0,0.0,0.0,0.0,0.0,0.0,0.0,-5.2901,-5.1998,0.0,0.0,0.0,0.0,0.0,0.0,0.0,0.0,0.0,0.0,0.0,-6.7913,-6.8058,0.0,0.0,0.0,0.0,0.0,0.0,0.0,0.0,0.0,0.0,0.0,0.0,-7.208,-8.365,-9.7454,-10.5781,-10.8595,-10.9776,-11.0482,-11.0256,-10.7774,-10.0353,-8.7709,0.0,0.0,0.0,0.0,0.0,0.0,0.0,0.0,0.0,0.0,0.0,0.0,0.0,0.0,0.0,0.0,0.0,0.0,0.0,0.0,0.0,0.0,0.0,0.0,0.0,-5.6191,0.0,0.0,0.0,0.0,0.0,0.0,0.0,0.0,0.0,0.0,0.0,-6.964,-8.0288,-8.6786,-9.2151,-9.6656,-9.8485,-10.0341,0.0,0.0,0.0,0.0,0.0,0.0,0.0,0.0,0.0,0.0,0.0,0.0,0.0,0.0,-6.7911,-6.105,-6.0397,-6.0889,-6.09,0.0,0.0,0.0,0.0,0.0,0.0,0.0,0.0,0.0,0.0,0.0,0.0,0.0,0.0,0.0,0.0,-5.958,0.0,0.0,0.0,0.0,0.0,0.0,0.0,0.0,-7.1876,-7.5992,-7.8817,-7.9037,-7.8312,0.0,-7.2515,-6.5496,0.0,0.0,0.0,0.0,0.0,0.0,0.0,0.0,-7.303,-8.4195,-9.8128,-10.6519,-10.8933,-11.0863,-11.1939,-11.2118,-10.9154,-10.2259,-9.1103,-8.1757,-7.2267,0.0,0.0,0.0,0.0,0.0,0.0,0.0,0.0,0.0,0.0,0.0,0.0,0.0,0.0,0.0,0.0,0.0,0.0,0.0,0.0,0.0,0.0,0.0,-5.9343,0.0,0.0,0.0,0.0,0.0,0.0,0.0,0.0,0.0,-6.2814,-6.885,-7.6403,-8.5529,-8.9696,-9.2276,-9.323,0.0,0.0,0.0,0.0,0.0,0.0,0.0,-8.3426,-8.1831,-8.2363,-8.3747,-8.6053,-8.55,-8.5022,-8.6204,0.0,0.0,-7.3661,-7.2289,-7.2988,-7.3527,-7.4709,-7.5837,-7.6725,-7.8363,-8.0004,0.0,0.0,0.0,0.0,0.0,0.0,0.0,0.0,-7.1307,-7.0743,0.0,-7.0225,0.0,0.0,0.0,0.0,0.0,0.0,0.0,0.0,-8.5246,-8.9876,-8.8393,-8.891,-8.8338,-8.6622,-8.2151,-7.8345,-7.4739,-6.2612,0.0,0.0,0.0,0.0,0.0,0.0,-7.5246,-8.6818,-9.9666,-10.8068,-11.1628,-11.2817,-11.3323,-11.2958,-10.844,-10.3596,-9.8753,-9.0567,-8.2536,-7.4854,-6.5527,0.0,0.0,0.0,0.0,0.0,0.0,0.0,0.0,0.0,0.0,0.0,0.0,0.0,0.0,0.0,0.0,0.0,0.0,0.0,0.0,-6.0457,0.0,0.0,0.0,0.0,0.0,0.0,0.0,0.0,0.0,0.0,-7.1429,-7.7254,-8.341,-8.9157,0.0,0.0,0.0,0.0,-9.6281,-8.8918,-8.7507,-8.7029,-8.5847,-8.5403,-8.6353,-8.9639,0.0,0.0,-10.0859,-9.9023,-9.7302,-9.9028,-9.9824,-9.7212,-8.6613,-8.5036,-8.5711,-8.7167,-8.8128,-8.9482,-9.1592,-9.2432,-9.349,-7.6183,0.0,0.0,0.0,0.0,-7.2932,-7.8625,-8.3983,-8.6768,-8.6531,-8.4059,-8.1779,0.0,0.0,0.0,0.0,0.0,0.0,-7.9298,-8.4708,-9.0265,-9.4296,-9.718,-9.7939,-9.7435,-9.5944,-9.2605,-8.9797,-8.7317,-8.0871,-7.0521,-5.6947,0.0,0.0,0.0,0.0,-7.9221,-8.9381,-10.016,-10.72,-11.0333,-11.2307,-11.3133,-11.2498,-10.8936,-10.4874,-10.0719,-9.6364,-9.0036,-8.1467,-7.4972,0.0,0.0,0.0,0.0,0.0,0.0,0.0,0.0,0.0,0.0,0.0,0.0,0.0,0.0,0.0,0.0,0.0,0.0,0.0,-6.0032,-6.258,-6.1656,0.0,0.0,0.0,0.0,0.0,0.0,0.0,0.0,0.0,-8.295,-8.3218,-8.4626,0.0,0.0,-8.9547,-8.7858,-8.9715,-9.2145,-9.4833,0.0,0.0,0.0,-9.412,-9.2897,-9.5144,-9.9676,-10.3945,-10.664,-10.6797,-10.6914,-10.7964,-10.8431,-10.7604,-10.5309,-10.1172,-9.9005,-9.9795,-10.0553,-10.1168,-10.1841,-10.3026,-10.4024,-8.8652,-8.0366,-7.6669,-7.5685,-7.7123,-8.3067,-8.847,-9.341,-9.666,-9.6678,-9.4336,-9.2603,-8.7307,-7.9364,-7.5635,0.0,0.0,0.0,-8.6048,-9.2126,-9.4767,-9.8122,-10.1633,-10.2454,-10.2075,-10.0684,-9.8568,-9.6549,-9.4585,-9.0302,-8.2445,-7.12,0.0,0.0,-6.7565,-7.5558,-8.3532,-9.1393,-10.0644,-10.6557,-10.8876,-11.132,-11.2168,-11.1439,-10.8903,-10.647,-10.4054,-10.075,-9.5996,-8.9713,-8.3178,-7.5617,0.0,0.0,0.0,0.0,0.0,0.0,0.0,0.0,0.0,0.0,0.0,-4.6413,0.0,0.0,0.0,0.0,-5.7365,-6.1675,-6.5868,-6.6726,0.0,0.0,0.0,0.0,0.0,0.0,0.0,-6.9656,-7.6893,-8.3864,-8.9498,-8.9932,-9.0441,-9.2633,-9.1902,-9.0663,-8.9331,0.0,-9.5532,-9.8588,-9.7377,-9.7691,-10.2139,-10.1372,-10.0997,-10.3441,-10.7331,-11.0624,-11.207,-11.3047,-11.3828,-11.4297,-11.4452,-11.4599,-11.5149,-11.2071,-10.9299,-10.8844,-10.9056,-10.9438,-10.9875,-11.0769,-11.153,-9.9018,-9.7264,-8.8472,-8.589,-8.7771,-9.2486,-9.6083,-9.9115,-10.249,-10.2539,-10.0585,-10.2086,-9.825,-9.0664,-8.6634,0.0,0.0,-8.9216,-9.2499,-9.7271,-9.9259,-10.1225,-10.3055,-10.3718,-10.3339,-10.2075,-10.1026,-9.9703,-9.7903,-9.3654,-9.0202,-8.7886,-8.084,-7.6624,-7.5819,-8.2051,-8.7828,-9.2752,-10.0708,-10.5722,-10.7738,-10.9981,-11.0776,-11.0113,-10.8623,-10.7921,-10.7679,-10.3795,-10.048,-9.7959,-9.0369,-8.2989,-7.6256,0.0,0.0,0.0,0.0,0.0,0.0,0.0,0.0,0.0,0.0,0.0,0.0,0.0,0.0,0.0,-6.7347,0.0,-7.3475,-7.2264,0.0,0.0,0.0,-6.7008,-6.95,-7.2971,-7.6673,-8.0558,0.0,0.0,0.0,0.0,-9.9173,-9.8596,-9.8904,-9.7595,-9.3191,-9.9436,-10.3695,-10.1332,-10.3044,-10.5062,-10.6269,-10.748,-10.9377,-11.2311,-11.4869,-11.5891,-11.6679,-11.7461,-11.8164,-11.8008,-11.8242,-11.8196,-11.8257,-11.7689,-11.7325,-11.4614,-11.4255,-11.4657,-11.5512,-11.5778,-11.5908,-10.2124,-10.1631,-9.9406,-9.769,-9.6982,-10.1762,-10.4993,-10.721,-10.9515,-10.9159,-10.6807,-10.5596,-10.1974,-9.6873,-9.6408,-9.6236,-9.6205,-9.7454,-9.9049,-10.0748,-10.1888,-10.2707,-10.375,-10.3939,-10.3592,-10.2739,-10.1913,-10.1029,-10.0084,-9.7401,-9.5287,-9.3574,-9.0002,-8.5444,-8.0427,-8.3755,-8.8284,-9.3763,-9.7914,-10.2927,-10.839,-10.9859,-11.008,-10.9385,-10.7979,-10.657,-10.5484,-10.3931,-10.1804,-9.8945,-9.4703,-8.9874,-8.4274,-7.1827,0.0,0.0,0.0,0.0,0.0,0.0,0.0,0.0,0.0,-5.2188,-5.2231,0.0,-6.2193,0.0,-6.9388,-7.4752,-7.6854,-7.6792,0.0,0.0,-7.6506,-7.7929,-7.9845,-8.4773,-8.843,-8.9393,-9.3785,-9.7672,-9.9942,-10.2751,-10.5251,-10.6828,-10.4559,-10.252,-10.2136,-10.4823,-10.7531,-10.8278,-11.0459,-11.2511,-11.2754,-11.3862,-11.5037,-11.6656,-11.733,-11.7734,-11.7968,-11.8164,-11.8281,-11.8281,-11.8306,-11.8287,-11.8286,-11.8193,-11.7855,-11.7092,-11.6866,-11.6881,-11.7133,-11.6987,-11.6895,-10.4302,-10.4011,-10.4863,-10.4274,-10.2885,-10.6109,-10.8027,-10.9249,-11.2118,-11.2607,-11.1222,-10.8838,-10.5636,-10.2002,-10.2037,-10.1537,-10.0922,-10.1314,-10.1796,-10.2423,-10.277,-10.3339,-10.4003,-10.4034,-10.3497,-10.2549,-10.217,-10.1443,-10.04,-9.9135,-9.8023,-9.6881,-9.5054,-9.1553,-8.6518,-8.7055,-8.9086,-9.2463,-9.7446,-10.2654,-10.7716,-10.8737,-10.8093,-10.5741,-10.3782,-10.1434,-9.8796,-9.7187,-9.5413,-9.3433,-9.1274,-8.8012,-8.3226,-7.3612,-6.5478,0.0,0.0,0.0,0.0,0.0,0.0,0.0,0.0,0.0,0.0,0.0,-6.8381,0.0,-7.487,0.0,-8.1415,-8.2395,-8.3187,-8.4016,-8.6324,-8.8671,-9.071,-9.4864,-9.7865,-9.8634,-10.1827,-10.4674,-10.6367,-10.8444,-11.0406,-11.2214,-11.0752,-10.9332,-10.8873,-10.9958,-11.1455,-11.3041,-11.5172,-11.6712,-11.6944,-11.7408,-11.7855,-11.8051,-11.8175,-11.8239,-11.8281,-11.8281,-11.8281,-11.8281,-11.8297,-11.8257,-11.8184,-11.8091,-11.7974,-11.7775,-11.7645,-11.7482,-11.7329,-11.7235,-11.7018,-10.5556,-10.5463,-10.7187,-10.7274,-10.6603,-10.7729,-10.8346,-10.8869,-11.2537,-11.3973,-11.3679,-11.1178,-10.8455,-10.5625,-10.4884,-10.4078,-10.3323,-10.2558,-10.2585,-10.3086,-10.3055,-10.3402,-10.4003,-10.4034,-10.3339,-10.2138,-10.2043,-10.1317,-10.0179,-9.97,-9.9093,-9.8514,-9.7381,-9.5356,-9.2295,-9.0606,-9.0212,-9.1215,-9.8333,-10.3457,-10.6229,-10.6905,-10.5111,-10.0871,-9.8023,-9.4815,-9.1183,-8.8449,-8.6677,-8.589,-8.4897,-8.2899,-7.9727,-7.3712,-6.8219,0.0,-5.8497,0.0,0.0,0.0,0.0,0.0,0.0,0.0,0.0,-7.1538,-7.4685,-7.8247,-8.2065,-8.5082,-8.7121,-8.8997,-9.1141,-9.3672,-9.6134,-9.8519,-10.0827,-10.3212,-10.5251,-10.6751,-10.8367,-11.0021,-11.1483,-11.3214,-11.4445,-11.5138,-11.5561,-11.5066,-11.3805,-11.3928,-11.482,-11.6082,-11.7574,-11.8353,-11.8604,-11.8722,-11.8554,-11.8169,-11.8092,-11.815,-11.8281,-11.8281,-11.8281,-11.8281,-11.8297,-11.8257,-11.8106,-11.8013,-11.7839,-11.7686,-11.7461,-11.7269,-11.7127,-11.7018,-11.6866,-10.5583,-10.6514,-10.7568,-10.7968,-10.7846,-11.0075,-11.0992,-11.1226,-11.305,-11.3095,-11.1549,-10.987,-10.8014,-10.6172,-10.5466,-10.4729,-10.3787,-10.3756,-10.3655,-10.3813,-10.3813,-10.3876,-10.4034,-10.4034,-10.3592,-10.2802,-10.2265,-10.1698,-10.1129,-10.0079,-9.9247,-9.8787,-9.7314,-9.5271,0.0,0.0,0.0,0.0,-10.0313,-10.3586,-10.4064,-10.3115,-10.0975,-9.749,-9.4216,0.0,-8.9121,-8.6578,-8.4966,-8.4529,-8.385,0.0,0.0,0.0,0.0,0.0,0.0,0.0,0.0,0.0,0.0,0.0,-7.64,-7.5643,-7.1685,-7.6067,-8.1269,-8.6298,-8.8482,-9.1283,-9.55,-9.7584,-9.9475,-10.1519,-10.3366,-10.4982,-10.6174,-10.7867,-10.9136,-10.9444,-11.0944,-11.2329,-11.3291,-11.4445,-11.533,-11.6099,-11.6407,-11.633,-11.5874,-11.5961,-11.6589,-11.7522,-11.8136,-11.8542,-11.8608,-11.8277,-11.8047,-11.7857,-11.7988,-11.8162,-11.8242,-11.8281,-11.8281,-11.8281,-11.8258,-11.8179,-11.8106,-11.7935,-11.7736,-11.7482,-11.7264,-11.713,-11.7091,-11.6788,-11.6265,-10.5777,0.0,-10.8058,-10.8566,0.0,-11.0943,-11.2136,-11.2259,-11.3785,-11.3454,-11.1865,-11.0639,-10.8935,-10.6653,-10.6107,-10.5139,-10.4003,-10.3655,-10.3687,-10.4003,-10.3655,-10.3687,-10.4034,-10.4034,-10.3655,-10.2991,-10.2806,-10.2399,-10.151,-10.1279,-10.0723,-10.0118,-9.9144,-9.7814,-9.6516,-9.6506,-9.6588,-9.6662,-10.0309,-10.3162,-10.4865,-10.3869,-10.1182,-9.6879,0.0,0.0,0.0,0.0,0.0,0.0,0.0,0.0,0.0,0.0,0.0,-8.0959,-7.8163,-7.6704,-7.7268,-7.9632,-8.2086,-8.4514,-8.7378,-8.6672,-8.1145,-8.4471,-8.8689,-9.3289,-9.508,-9.7515,-10.1453,-10.3295,-10.4816,-10.621,-10.7482,-10.8482,-10.8983,-11.006,-11.0829,-11.0944,-11.1945,-11.3022,-11.3907,-11.4753,-11.5599,-11.633,-11.6484,-11.6484,-11.6484,-11.6529,-11.6924,-11.79,-11.8178,-11.8331,-11.84,-11.8298,-11.7994,-11.7901,-11.7915,-11.8101,-11.8232,-11.828,-11.828,-11.8306,-11.8218,-11.8119,-11.7975,-11.7785,-11.7412,-11.6799,-11.6672,-11.6476,-11.6038,-11.6099,-11.5993,-10.5674,-10.6213,-10.8688,-10.9515,-10.9336,-11.1566,-11.2655,-11.2972,0.0,0.0,0.0,-11.153,-10.9621,-10.704,-10.6394,-10.5326,-10.4003,-10.3434,-10.3465,-10.3971,-10.3434,-10.3465,-10.4003,-10.4034,-10.3882,-10.3344,-10.3704,-10.3196,-10.2208,-10.2577,-10.2516,-10.1836,-10.1385,-10.1138,-10.1012,-10.1306,-10.0555,-9.9175,-10.0529,-10.2759,-10.5681,-10.4815,-10.1988,-9.7027,-9.3581,-8.888,-8.3092,-8.122,-7.9888,-7.9171,-8.0767,-8.2072,-8.2843,-8.4271,-8.5191,-8.5544,-8.631,-8.7112,-8.7912,-9.0041,-9.2024,-9.3602,-9.6355,-9.6101,-9.1831,-9.3176,-9.573,-9.917,-10.0752,-10.2808,-10.5829,-10.7102,-10.8184,-10.9167,-10.994,-11.0406,-11.0444,-11.106,-11.1522,-11.1752,-11.2291,-11.3099,-11.4099,-11.4868,-11.5599,-11.6292,-11.6484,-11.6484,-11.6484,-11.6484,-11.6798,-11.7463,-11.7668,-11.7868,-11.8062,-11.7936,-11.7935,-11.7503,-11.7468,-11.7592,-11.771,-11.781,-11.7841,-11.7692,-11.7703,-11.7504,-11.7357,-11.6996,-11.6522,-11.5552,-11.5576,-11.5524,-11.4669,-11.5013,-11.5062,-10.6047,-10.7699,-10.8928,-11.0386,-11.1925,-11.3054,-11.3597,-11.3645,-11.4172,-11.3095,-11.1176,-10.9878,-10.8451,-10.6795,-10.5695,-10.4864,-10.4034,-10.3908,-10.3939,0.0,-10.3908,-10.3939,-10.4034,-10.4363,-10.4495,-10.4499,-10.4249,-10.4345,-10.4339,-10.3679,-10.3425,-10.3499,-10.3294,-10.3276,-10.3435,-10.3304,-10.3596,-10.4175,-10.3244,-10.3116,-10.3482,-10.1855,-9.9642,-9.6506,-9.3062,-8.9562,-8.6341,-8.448,-8.3397,-8.3517,-8.4379,-8.6364,-8.9569,-9.0545,-9.2041,-9.4326,-9.5471,-9.6061,-9.6208,-9.7823,-9.9475,-10.1017,-10.2228,-10.142,-9.8231,-9.8903,-10.0536,-10.2905,-10.3724,-10.5171,-10.77,-10.8583,-10.9366,-11.0471,-11.0916,-11.116,-11.1248,-11.1445,-11.1829,-11.2483,-11.2637,-11.3407,-11.4753,-11.5215,-11.5638,-11.6292,-11.6484,-11.6484,-11.6484,-11.6484,-11.6522,-11.6682,-11.6809,-11.6936,-11.7097,-11.663,-11.6554,-11.6479,-11.619,-11.6008,-11.6155,-11.6247,-11.6274,-11.6126,-11.6101,-11.5868,-11.5625,-11.5158,-11.4815,-11.427,-11.3941,-11.3504,-11.3287,-11.319,-11.2759,-10.6543,-10.8049,-10.9522,-11.1205,-11.2846,-11.3959,-11.4011,-11.3385,-11.3352,-11.2376,-11.0916,-10.984,-10.8441,-10.6821,-10.5971,-10.5046,-10.4034,-10.4034,-10.4034,-10.4003,-10.4199,-10.4363,-10.4363,-10.4853,-10.5015,-10.4983,-10.5178,-10.5269,-10.5164,-10.5014,-10.4789,-10.4637,-10.4323,-10.425,-10.4361,-10.4491,-10.4807,-10.5281,-10.4615,-10.4726,-10.5371,-10.3934,-10.2419,-10.0893,-9.8025,-9.5311,-9.2658,-9.168,-9.1113,-9.1089,-9.2066,-9.3817,-9.6553,-9.7741,-9.922,-10.1002,-10.2045,-10.2485,-10.2485,-10.3586,-10.4761,-10.5899,-10.6339,-10.5972,-10.4504,-10.3198,-10.3301,-10.491,-10.5612,-10.6715,-10.8628,-10.9353,-10.9986,-11.0589,-11.0903,-11.1323,-11.1799,-11.2005,-11.2396,-11.3291,-11.383,-11.4407,-11.5176,-11.5676,-11.6022,-11.6446,-11.6484,-11.6484,-11.6484,-11.6484,-11.6484,-11.6484,-11.6529,-11.6659,-11.6707,-11.6285,-11.6063,-11.6258,-11.5785,-11.5499,-11.557,-11.562,-11.5624,-11.5643,-11.5463,-11.5233,-11.4891,-11.4534,-11.389,-11.2943,-11.2649,-11.2257,-11.1534,-11.0382,-10.9823,-10.7315,-10.8617,-11.0078,-11.1746,-11.3197,-11.4315,-11.4018,-11.3021,-11.2358,-11.1585,-11.0488,-10.9696,-10.8524,-10.7075,-10.651,-10.5678,-10.4572,-10.4319,-10.4255,-10.4255,-10.4622,-10.4722,-10.4722,-10.5176,-10.5498,-10.5658,-10.6136,-10.6128,-10.611,-10.6255,-10.6144,-10.5636,-10.5166,-10.4946,-10.5089,-10.524,-10.5421,-10.5561,-10.5561,-10.6208,-10.74,-10.6325,-10.5482,-10.5107,-10.3348,-10.1242,-9.9037,-9.8924,-9.8904,-9.8619,-9.9789,-10.1174,-10.2732,-10.4057,-10.5022,-10.5899,-10.6559,-10.6926,-10.6963,-10.7514,-10.8138,-10.8725,-10.8799,-10.8799,-10.8578,-10.6654,-10.562,-10.646,-10.707,-10.7904,-10.8822,-10.9507,-11.0094,-11.0416,-11.0816,-11.1404,-11.233,-11.2628,-11.3112,-11.4132,-11.4868,-11.5291,-11.5599,-11.6099,-11.6446,-11.6446,-11.6484,-11.6484,-11.6484,-11.6484,-11.6484,-11.6446,-11.6369,-11.6111,-11.6244,-11.5628,-11.5366,-11.5703,-11.5168,-11.4831,-11.4862,-11.5021,-11.5056,-11.4878,-11.4722,-11.4318,-11.4034,-11.3545,-11.2735,-11.1594,-11.1097,-11.0583,-10.9341,-10.7988,-10.7351,-10.8239,-10.9924,-11.069,-11.1988,-11.3721,-11.3629,-11.343,-11.279,-11.1842,-11.0768,-10.9728,-10.9226,-10.8474,-10.7775,-10.7238,-10.6626,-10.5804,-10.5267,-10.5014,-10.4919,-10.4844,-10.4722,-10.4916,-10.553,-10.6136,-10.6452,-10.6922,-10.7167,-10.7465,-10.7364,-10.7121,-10.6655,-10.6039,-10.5851,-10.6071,-10.5647,-10.5595,-10.6287,-10.6287,-10.6624,-10.74,-10.6967,-10.6764,-10.6697,-10.5851,-10.4799,-10.3354,-10.402,-10.4297,-10.4338,-10.5252,-10.6307,-10.6994,-10.7634,-10.8061,-10.8431,-10.8542,-10.8578,-10.8578,-10.8615,-10.8762,-10.8799,-10.8872,-10.8909,-10.8872,-10.8761,-10.8413,-10.8224,-10.8436,-10.8597,-10.8366,-10.8885,-10.9647,-11.0605,-11.1063,-11.18,-11.2831,-11.3315,-11.3855,-11.4879,-11.5247,-11.5561,-11.6176,-11.6407,-11.6484,-11.6484,-11.6484,-11.6484,-11.6484,-11.6484,-11.6407,-11.633,-11.5907,-11.5307,-11.4896,-11.4077,-11.4073,-11.4149,-11.3593,-11.3483,-11.3563,-11.355,-11.3337,-11.3629,-11.3139,-11.2786,-11.2225,-11.1526,-11.0984,-11.0227,-10.9443,-10.8445,-10.7446,-10.6453,-10.6227,-10.9584,-11.069,-11.1417,-11.2523,-11.3753,-11.3638,-11.304,-11.2183,-11.1523,-11.0448,-10.9121,-10.8718,-10.8167,-10.7364,-10.7195,-10.6784,-10.612,-10.5836,-10.5877,-10.6043,-10.6222,-10.6199,-10.6139,-10.6908,-10.7187,-10.6922,-10.7354,-10.7815,-10.8021,-10.7879,-10.768,-10.7496,-10.7091,-10.6869,-10.7013,-10.7139,-10.7392,-10.767,-10.7979,-10.8148,-10.8454,-10.7812,-10.7779,-10.8118,-10.7509,-10.6659,-10.5824,-10.6293,-10.6857,-10.738,-10.8094,-10.8777,-10.9475,-10.9695,-10.9892,-11.0017,-11.0106,-11.023,-11.023,-11.023,-11.023,-11.023,-11.023,-11.0317,-11.0367,-11.0624,-11.0544,-10.9932,-10.9697,-10.9562,-10.9566,-10.9856,-11.032,-11.0825,-11.1259,-11.2001,-11.3155,-11.3756,-11.4502,-11.5505,-11.5848,-11.6099,-11.6407,-11.6484,-11.6484,-11.6484,-11.6484,-11.6484,-11.6484,-11.6484,-11.6298,-11.5918,-11.5619,-11.5393,-11.5051,-11.465,-11.4203,-11.3809,-11.3321,-11.2976,-11.2994,-11.3046,-11.3008,-11.2733,-11.2401,-11.2034,-11.1537,-11.0807,-11.0166,-10.9246,-10.785,-10.6747,-10.6107,-10.4948,-10.4467,-11.0721,-11.1268,-11.1957,-11.2877,-11.3611,-11.3419,-11.2653,-11.1737,-11.0936,-11.0001,-10.8983,-10.8377,-10.7953,-10.7681,-10.7649,-10.7333,-10.6889,-10.6836,-10.6908,-10.721,-10.7513,-10.7488,-10.749,-10.8058,-10.817,-10.7868,-10.7913,-10.8304,-10.8572,-10.8441,-10.8292,-10.8339,-10.8,-10.7889,-10.8175,-10.8433,-10.8718,-10.8718,-10.9029,-10.9268,-10.9369,-10.893,-10.8727,-10.8931,-10.8491,-10.7944,-10.7338,-10.7874,-10.8488,-10.9139,-10.9766,-11.0362,-11.0821,-11.0873,-11.0736,-11.0609,-11.0791,-11.0917,-11.1096,-11.1007,-11.1007,-11.1221,-11.1096,-11.1184,-11.1533,-11.1789,-11.1736,-11.1391,-11.0959,-11.075,-11.0346,-11.0573,-11.0796,-11.1056,-11.1591,-11.2402,-11.3443,-11.4164,-11.497,-11.5804,-11.6176,-11.6439,-11.6484,-11.6484,-11.6484,-11.6484,-11.6484,-11.6484,-11.6484,-11.6529,-11.638,-11.5892,-11.5899,-11.5784,-11.5511,-11.4817,-11.4355,-11.4034,-11.3434,-11.2959,-11.2966,-11.2986,-11.2814,-11.2505,-11.2195,-11.165,-11.0916,-11.0306,-10.9295,-10.8242,-10.6894,-10.5506,-10.49,-10.3594,-10.2564,-11.1086,-11.1598,-11.2167,-11.2732,-11.3054,-11.2418,-11.2033,-11.147,-11.049,-10.9587,-10.8781,-10.8377,-10.8345,-10.8824,-10.8792,-10.8824,-10.8697,-10.8396,-10.8307,-10.8409,-10.8293,-10.8232,-10.8617,-10.8476,-10.8774,-10.9258,-10.885,-10.8704,-10.8971,-10.9053,-10.9169,-10.9511,-10.8845,-10.8944,-10.9413,-10.9016,-10.8924,-10.9197,-10.9335,-10.9572,-11.0147,-11.0215,-10.9642,-10.893,-10.8624,-10.8516,-10.8547,-10.908,-10.9444,-10.9599,-11.068,-11.1232,-11.1179,-11.0893,-11.0622,-11.0196,-11.0145,-11.0332,-11.081,-11.0755,-11.0755,-11.108,-11.1064,-11.1007,-11.1521,-11.1742,-11.1921,-11.2095,-11.2189,-11.1675,-11.0523,-11.0644,-11.0945,-11.1542,-11.2137,-11.2831,-11.3716,-11.4464,-11.5212,-11.562,-11.602,-11.6347,-11.6484,-11.6484,-11.6484,-11.6484,-11.6484,-11.6484,-11.6484,-11.6573,-11.6624,-11.6749,-11.6748,-11.6611,-11.5172,-11.4659,-11.4252,-11.3865,-11.3535,-11.2962,-11.2908,-11.2853,-11.2556,-11.2243,-11.1799,-11.1218,-11.0398,-10.9364,-10.8199,-10.7135,-10.5949,-10.481,-10.3795,-10.2769,-10.1746,-11.1988,-11.2199,-11.2377,-11.2555,-11.2523,-11.2447,-11.1686,-11.0814,-11.0386,-10.9422,-10.8675,-10.8548,-10.8718,-10.8919,-10.9394,-10.9561,-10.933,-10.9273,-10.9312,-10.9579,-10.9263,-10.9426,-10.9842,-10.9788,-10.9926,-11.0102,-10.9812,-10.9401,-10.912,-10.9383,-10.9497,-10.9611,-10.9847,-11.0145,-11.0362,-11.0442,-11.0448,-11.0587,-11.0587,-11.0722,-11.0925,-11.1272,-11.1004,-11.0289,-10.9677,-10.9198,-10.9234,-10.9265,-10.9352,-10.9929,-11.0381,-11.0751,-11.0836,-11.0763,-11.0844,-11.0956,-11.0983,-11.1117,-11.1445,-11.1445,-11.1541,-11.1826,-11.1539,-11.1559,-11.2109,-11.2037,-11.2041,-11.2368,-11.2449,-11.2158,-11.186,-11.1716,-11.1828,-11.2167,-11.2513,-11.2888,-11.3477,-11.4137,-11.4654,-11.5173,-11.5764,-11.6205,-11.6347,-11.6439,-11.6484,-11.6484,-11.6484,-11.6484,-11.6529,-11.6611,-11.6743,-11.6981,-11.7153,-11.722,-11.6984,-11.5561,-11.47,-11.4075,-11.3615,-11.3072,-11.285,-11.2539,-11.229,-11.1838,-11.1419,-11.0635,-10.9733,-10.8299,-10.7135,-10.5998,-10.4907,-10.383,-10.2663,-10.1678,-10.069,-11.2377,-11.2377,-11.2377,-11.2377,-11.2314,-11.1872,-11.1176,-11.0228,-10.996,-10.9263,-10.8643,-10.8888,-10.9226,-10.9394,-11.0061,-11.0359,-11.013,-10.9937,-11.0005,-11.03,-10.9976,-11.0099,-11.0508,-11.055,-11.0629,-11.0651,-11.036,-10.9782,-10.9301,-10.9497,-10.979,-11.0081,-11.0514,-11.08,-11.0976,-11.1258,-11.1399,-11.1399,-11.1399,-11.1365,-11.1365,-11.1784,-11.1822,-11.1549,-11.0833,-11.0383,-11.0154,-10.9747,-10.9712,-11.0104,-11.0168,-11.023,-11.0293,-11.036,-11.0481,-11.0763,-11.0797,-11.104,-11.1486,-11.1486,-11.1587,-11.2085,-11.1844,-11.1993,-11.2779,-11.2688,-11.266,-11.2888,-11.2938,-11.2863,-11.2566,-11.2492,-11.2492,-11.2529,-11.265,-11.2884,-11.315,-11.3695,-11.4335,-11.5056,-11.5658,-11.602,-11.6253,-11.6393,-11.6484,-11.6484,-11.6484,-11.6522,-11.6573,-11.674,-11.6865,-11.7127,-11.7384,-11.7647,-11.7485,-11.6551,-11.5518,-11.4865,-11.3899,-11.3301,-11.2639,-11.2302,-11.1882,-11.1417,-11.0721,-10.9903,-10.8709,-10.7289,-10.6119,-10.509,-10.3927,-10.2934,-10.1786,-10.0725,-9.993,-11.2377,-11.2377,-11.2377,-11.2377,-11.2188,-11.1082,-11.0386,-11.0276,-10.948,-10.911,-10.8919,-10.9362,-10.9696,-11.0227,-11.072,-11.1046,-11.1208,-11.0688,-11.0362,-11.0457,-11.0122,-11.0264,-11.0541,-11.0662,-11.0848,-11.1154,-11.0577,-10.9998,-10.9597,-10.9744,-11.0182,-11.0691,-11.08,-11.0976,-11.1399,-11.1399,-11.1399,-11.1399,-11.1399,-11.1399,-11.1399,-11.1784,-11.2163,-11.2334,-11.2022,-11.1735,-11.1368,-11.0831,-11.0508,-11.053,-11.0489,-11.0203,-10.9844,-10.9867,-10.9667,-10.9636,-10.9536,-10.9942,-11.0659,-11.0624,-11.0909,-11.1498,-11.1522,-11.2085,-11.3132,-11.3566,-11.3672,-11.3778,-11.3674,-11.3495,-11.2789,-11.264,-11.2603,-11.2492,-11.265,-11.2844,-11.2961,-11.3481,-11.427,-11.5115,-11.562,-11.5932,-11.6215,-11.6393,-11.6484,-11.6484,-11.6484,-11.6573,-11.6659,-11.6865,-11.7094,-11.7329,-11.7555,-11.7792,-11.767,-11.7398,-11.6519,-11.5646,-11.455,-11.3629,-11.2712,-11.215,-11.1375,-11.0863,-10.9771,-10.8942,-10.7665,-10.6323,-10.5288,-10.4156,-10.3137,-10.1999,-10.1024,-10.0045,-9.9382,-11.2377,-11.2377,-11.2377,-11.2377,-11.2251,-11.1366,-11.0941,-11.075,-10.9969,-10.9503,-10.9426,-10.9696,-11.0227,-11.072,-11.1209,-11.1499,-11.1947,-11.1418,-11.1091,-11.0835,-11.0493,-11.0442,-11.0596,-11.0902,-11.1319,-11.1869,-11.177,-11.1126,-11.0577,-11.0671,-11.0907,-11.0901,-11.1117,-11.1258,-11.1399,-11.1399,-11.1399,-11.1399,-11.1399,-11.1399,-11.1399,-11.206,-11.2334,-11.2572,-11.2804,-11.2961,-11.2851,-11.1774,-11.1117,-11.1048,-11.0668,-11.0401,-11.0018,-10.9843,-10.9944,-11.0055,-11.0055,-11.0254,-11.0717,-11.0831,-11.0987,-11.1474,-11.1517,-11.2177,-11.3297,-11.3369,-11.3676,-11.4159,-11.4326,-11.4075,-11.3526,-11.3421,-11.3198,-11.2566,-11.2609,-11.2725,-11.3033,-11.3485,-11.4041,-11.4777,-11.5288,-11.5673,-11.6069,-11.6347,-11.6484,-11.6529,-11.6573,-11.6659,-11.6784,-11.7018,-11.7225,-11.7489,-11.773,-11.7933,-11.7887,-11.7694,-11.7108,-11.6051,-11.4976,-11.3707,-11.2749,-11.1686,-11.0978,-10.9992,-10.8904,-10.7848,-10.6534,-10.5413,-10.4441,-10.3373,-10.2246,-10.1279,-10.0274,-9.9499,-9.8821,-11.2219,-11.1998,-11.1966,-11.1808,-11.1524,-11.1004,-11.064,-11.0541,-11.0183,-10.9945,-11.0093,-11.0524,-11.0851,-11.1371,-11.182,-11.2172,-11.2423,-11.2309,-11.198,-11.1429,-11.0629,-11.042,-11.0539,-11.0658,-11.1174,-11.1803,-11.2055,-11.1925,-11.1324,-11.1431,-11.1498,-11.1414,-11.163,-11.1636,-11.1467,-11.167,-11.1703,-11.1467,-11.1399,-11.1399,-11.1539,-11.206,-11.247,-11.2606,-11.3178,-11.3576,-11.3507,-11.2645,-11.2024,-11.161,-11.1003,-11.03,-11.01,-10.9788,-10.9738,-10.9949,-11.0071,-11.0192,-11.0553,-11.0448,-11.0791,-11.1352,-11.1419,-11.2017,-11.3169,-11.3431,-11.3937,-11.4457,-11.4681,-11.4556,-11.4141,-11.4075,-11.3897,-11.3532,-11.3198,-11.332,-11.3704,-11.4235,-11.4694,-11.5273,-11.5668,-11.5871,-11.6185,-11.6347,-11.6522,-11.6573,-11.6701,-11.6865,-11.6942,-11.7186,-11.7433,-11.7668,-11.7839,-11.8001,-11.8115,-11.7901,-11.7623,-11.653,-11.5308,-11.3905,-11.2696,-11.1323,-11.0358,-10.9057,-10.7885,-10.702,-10.5851,-10.4686,-10.3608,-10.2455,-10.1388,-10.05,-9.9582,-9.8907,-9.8371,-11.1935,-11.1366,-11.1271,-11.1099,-11.0498,-11.0179,-11.0204,-11.0012,-11.0248,-11.0424,-11.0884,-11.1371,-11.1693,-11.2172,-11.2489,-11.2646,-11.296,-11.305,-11.2775,-11.1948,-11.1074,-11.0412,-11.0312,-11.0312,-11.0677,-11.1358,-11.1859,-11.2091,-11.2269,-11.2193,-11.2122,-11.2549,-11.2515,-11.2245,-11.194,-11.2245,-11.2245,-11.1805,-11.167,-11.167,-11.167,-11.2196,-11.2607,-11.2607,-11.3247,-11.3576,-11.3541,-11.3403,-11.3093,-11.2334,-11.1127,-11.0472,-11.0161,-10.954,-10.9552,-10.9837,-10.9663,-10.9892,-11.0069,-11.0366,-11.0541,-11.1142,-11.1473,-11.1986,-11.3199,-11.3716,-11.4059,-11.4542,-11.4873,-11.4936,-11.4619,-11.4688,-11.4734,-11.4862,-11.4312,-11.4362,-11.5351,-11.5695,-11.5861,-11.6157,-11.645,-11.6575,-11.6435,-11.6547,-11.6573,-11.6701,-11.6826,-11.698,-11.7225,-11.7443,-11.7634,-11.7858,-11.8002,-11.8052,-11.8081,-11.7481,-11.7135,-11.6152,-11.4964,-11.3541,-11.2167,-11.0786,-10.9379,-10.8063,-10.6936,-10.6071,-10.5198,-10.4024,-10.297,-10.1928,-10.0837,-9.9814,-9.9026,-9.8459,-9.8126,-11.1669,-11.1798,-11.1322,-11.1146,-11.1203,-11.0736,-11.0617,-11.0858,-11.0682,-11.1046,-11.1338,-11.1853,-11.2172,-11.2646,-11.2803,-11.296,-11.3271,-11.3426,-11.2996,-11.2267,-11.1439,-11.0677,-11.0279,-11.018,-11.0661,-11.1626,-11.2175,-11.2641,-11.2943,-11.3223,-11.3267,-11.3327,-11.3293,-11.3226,-11.309,-11.3192,-11.3226,-11.3057,-11.2989,-11.2989,-11.3029,-11.3115,-11.329,-11.3256,-11.3522,-11.3679,-11.361,-11.3576,-11.3231,-11.2507,-11.2093,-11.1541,-11.1058,-11.0748,-11.0575,-11.0703,-11.0738,-11.0807,-11.09,-11.09,-11.1245,-11.1743,-11.1708,-11.2106,-11.3293,-11.3414,-11.3758,-11.4313,-11.5029,-11.5204,-11.4869,-11.5124,-11.5503,-11.5716,-11.5241,-11.4994,-11.5615,-11.5919,-11.6238,-11.694,-11.6927,-11.7003,-11.7049,-11.6869,-11.674,-11.6826,-11.7016,-11.7225,-11.7472,-11.7659,-11.7896,-11.7976,-11.8091,-11.8085,-11.7858,-11.7177,-11.6479,-11.5575,-11.4273,-11.2733,-11.1364,-10.9963,-10.8471,-10.6968,-10.6144,-10.529,-10.4347,-10.3273,-10.2315,-10.1279,-10.0159,-9.9145,-9.8701,-9.8249,-9.8126,-11.1845,-11.1873,-11.1171,-11.0725,-11.0713,-11.0498,-11.0672,-11.1105,-11.1241,-11.1532,-11.198,-11.2331,-11.2646,-11.296,-11.3116,-11.3116,-11.3426,-11.3426,-11.2996,-11.2234,-11.1391,-11.0678,-11.0147,-10.9981,-11.0528,-11.1491,-11.2221,-11.265,-11.3055,-11.3604,-11.3826,-11.3733,-11.3902,-11.3902,-11.3564,-11.3936,-11.3902,-11.3666,-11.3598,-11.3598,-11.3564,-11.3898,-11.411,-11.4145,-11.4312,-11.4438,-11.4128,-11.4059,-11.3714,-11.3024,-11.261,-11.2196,-11.1817,-11.1437,-11.1334,-11.1299,-11.1299,-11.1299,-11.1299,-11.1299,-11.1684,-11.2086,-11.2041,-11.2475,-11.3208,-11.3324,-11.3377,-11.423,-11.4695,-11.4947,-11.5221,-11.5798,-11.6355,-11.657,-11.6363,-11.6308,-11.6664,-11.7229,-11.7564,-11.7862,-11.7784,-11.7528,-11.7777,-11.7155,-11.6942,-11.7016,-11.7251,-11.7472,-11.7673,-11.7916,-11.7974,-11.7967,-11.7928,-11.7819,-11.7499,-11.687,-11.5498,-11.4581,-11.2705,-11.133,-11.0152,-10.8811,-10.7542,-10.6181,-10.5326,-10.4468,-10.3544,-10.2524,-10.1462,-10.0387,-9.9347,-9.8667,-9.8337,-9.8249,-9.8003,-11.2217,-11.1513,-11.0978,-11.0305,-10.9959,-11.0227,-11.0785,-11.1079,-11.1532,-11.198,-11.2646,-11.2803,-11.3116,-11.3426,-11.3271,-11.3426,-11.3426,-11.3426,-11.283,-11.2055,-11.1227,-11.0277,-10.9957,-10.9924,-11.037,-11.1197,-11.1699,-11.2314,-11.2897,-11.3455,-11.3767,-11.397,-11.4477,-11.4444,-11.4274,-11.4545,-11.441,-11.4105,-11.4105,-11.4105,-11.4181,-11.4579,-11.4828,-11.507,-11.524,-11.5335,-11.4921,-11.4679,-11.4335,-11.3748,-11.2955,-11.261,-11.2472,-11.1886,-11.1679,-11.1713,-11.1782,-11.1748,-11.1644,-11.1782,-11.1902,-11.2573,-11.2559,-11.288,-11.3551,-11.3607,-11.3496,-11.4167,-11.4197,-11.4858,-11.5698,-11.6587,-11.7021,-11.7247,-11.7494,-11.7741,-11.828,-11.8835,-11.9223,-11.9251,-11.8791,-11.8497,-11.8068,-11.7517,-11.702,-11.7251,-11.7461,-11.7698,-11.7858,-11.8041,-11.7928,-11.7734,-11.7632,-11.7465,-11.7075,-11.656,-11.4892,-11.3414,-11.0992,-10.9343,-10.8478,-10.7316,-10.6434,-10.5486,-10.4738,-10.3876,-10.2904,-10.1893,-10.0725,-9.9814,-9.8907,-9.8459,-9.8126,-9.8126,-9.8003,-11.1651,-11.1283,-11.094,-11.1013,-11.1176,-11.1532,-11.1853,-11.2013,-11.2331,-11.2646,-11.2803,-11.3116,-11.3271,-11.3426,-11.3426,-11.3426,-11.3393,-11.3294,-11.2884,-11.1792,-11.0395,-11.017,-11.0337,-11.0193,-11.0437,-11.1061,-11.1641,-11.2122,-11.2745,-11.359,-11.4444,-11.4477,-11.5019,-11.5492,-11.5357,-11.5289,-11.5526,-11.5357,-11.5289,-11.5367,-11.5519,-11.5537,-11.5719,-11.5962,-11.5926,-11.5818,-11.5507,-11.499,-11.4645,-11.4335,-11.3817,-11.3403,-11.3231,-11.3093,-11.2955,-11.292,-11.2989,-11.3024,-11.3058,-11.2955,-11.332,-11.3789,-11.3464,-11.356,-11.4466,-11.4187,-11.4022,-11.4196,-11.4771,-11.5492,-11.6213,-11.6837,-11.7218,-11.7516,-11.74,-11.7531,-11.8048,-11.8878,-11.952,-11.9843,-11.9811,-11.9536,-11.9018,-11.8373,-11.7932,-11.7694,-11.7683,-11.7935,-11.7998,-11.8109,-11.7733,-11.735,-11.7242,-11.6944,-11.5926,-11.5205,-11.3682,-11.209,-10.9855,-10.796,-10.7042,-10.6443,-10.5714,-10.5035,-10.4324,-10.3409,-10.2351,-10.1244,-10.0194,-9.9382,-9.8667,-9.8235,-9.7867,-9.7935,-9.7867,-11.1977,-11.1887,-11.1663,-11.1693,-11.182,-11.2139,-11.2331,-11.2489,-11.2646,-11.296,-11.3116,-11.3271,-11.3426,-11.3426,-11.3426,-11.3426,-11.3227,-11.2818,-11.2306,-11.1609,-11.0671,-11.0404,-11.0657,-11.08,-11.0942,-11.1185,-11.1455,-11.1799,-11.2346,-11.3361,-11.4105,-11.4308,-11.5256,-11.5695,-11.5797,-11.5797,-11.5763,-11.5763,-11.5797,-11.5976,-11.6308,-11.6463,-11.6645,-11.7027,-11.6923,-11.6749,-11.6335,-11.6025,-11.5576,-11.5162,-11.4817,-11.4266,-11.3714,-11.3576,-11.361,-11.3576,-11.3576,-11.3576,-11.3576,-11.3576,-11.3804,-11.4612,-11.4195,-11.4683,-11.505,-11.5,-11.4981,-11.5165,-11.5488,-11.5809,-11.6609,-11.7058,-11.7387,-11.7568,-11.7452,-11.7562,-11.7986,-11.8758,-11.9528,-11.9958,-12.0057,-11.9838,-11.9451,-11.8907,-11.8361,-11.7906,-11.7816,-11.8027,-11.7832,-11.7817,-11.7272,-11.6902,-11.6789,-11.6228,-11.4934,-11.3681,-11.2205,-11.0677,-10.8931,-10.7294,-10.6096,-10.5626,-10.5217,-10.4478,-10.3706,-10.2663,-10.1606,-10.0613,-9.9733,-9.9061,-9.8425,-9.7923,-9.7631,-9.7495,-9.7394,-11.2542,-11.2541,-11.2434,-11.2363,-11.2363,-11.2331,-11.2646,-11.2803,-11.2803,-11.3116,-11.3426,-11.3426,-11.3426,-11.3426,-11.3426,-11.3426,-11.3216,-11.2557,-11.2009,-11.1973,-11.1074,-11.0758,-11.0976,-11.1084,-11.1225,-11.1399,-11.1467,-11.1467,-11.1805,-11.2685,-11.3496,-11.3835,-11.4917,-11.5594,-11.5763,-11.5797,-11.5797,-11.5797,-11.5797,-11.6121,-11.641,-11.677,-11.7299,-11.7853,-11.7922,-11.7646,-11.7163,-11.6887,-11.6611,-11.609,-11.5986,-11.5261,-11.4432,-11.3783,-11.3748,-11.3783,-11.3714,-11.3576,-11.3576,-11.3707,-11.3969,-11.4612,-11.4705,-11.5173,-11.5855,-11.6026,-11.6114,-11.6177,-11.6362,-11.6184,-11.6934,-11.7265,-11.7487,-11.7633,-11.7604,-11.7615,-11.7887,-11.8425,-11.8927,-11.9428,-11.9814,-11.9754,-11.9567,-11.9112,-11.8643,-11.8203,-11.8158,-11.8077,-11.7889,-11.7536,-11.7052,-11.6337,-11.6142,-11.5127,-11.3787,-11.229,-11.0817,-10.9522,-10.7941,-10.6644,-10.5307,-10.4851,-10.4478,-10.3769,-10.3006,-10.1928,-10.1059,-10.0045,-9.9264,-9.8614,-9.8215,-9.7867,-9.7529,-9.7123,-9.7123,-11.241,-11.2336,-11.2554,-11.2712,-11.2745,-11.2993,-11.3238,-11.3271,-11.3238,-11.3271,-11.3426,-11.3426,-11.3426,-11.3426,-11.3426,-11.3581,-11.3555,-11.2859,-11.2489,-11.2382,-11.1464,-11.1043,-11.1258,-11.1399,-11.1399,-11.1399,-11.1399,-11.1399,-11.1568,-11.2245,-11.2989,-11.3632,-11.4511,-11.5188,-11.5594,-11.5797,-11.5797,-11.5797,-11.5797,-11.6121,-11.6696,-11.7121,-11.7402,-11.8094,-11.8094,-11.8025,-11.7784,-11.7335,-11.699,-11.6751,-11.65,-11.6184,-11.5935,-11.5186,-11.4709,-11.4467,-11.4122,-11.3845,-11.3742,-11.3838,-11.4228,-11.4612,-11.5118,-11.5824,-11.6593,-11.719,-11.7147,-11.6978,-11.6937,-11.6993,-11.8156,-11.7896,-11.7633,-11.7604,-11.7351,-11.708,-11.7173,-11.7476,-11.8152,-11.8729,-11.9168,-11.9609,-11.9394,-11.9237,-11.8869,-11.8442,-11.824,-11.8163,-11.799,-11.7516,-11.6958,-11.6211,-11.5463,-11.4065,-11.2604,-11.1021,-10.9594,-10.8591,-10.7179,-10.6057,-10.4943,-10.4252,-10.3706,-10.2868,-10.2246,-10.1462,-10.05,-9.9499,-9.8941,-9.8371,-9.8092,-9.7935,-9.7563,-9.7191,-9.7428,-11.2626,-11.2456,-11.2564,-11.2554,-11.262,-11.2709,-11.2863,-11.2929,-11.3261,-11.3426,-11.3426,-11.3426,-11.3581,-11.3734,-11.3734,-11.3854,-11.3977,-11.3206,-11.2898,-11.2718,-11.1751,-11.1151,-11.1399,-11.1399,-11.1399,-11.1399,-11.1399,-11.1399,-11.1467,-11.2143,-11.2651,-11.3192,-11.4063,-11.484,-11.5289,-11.5628,-11.5763,-11.5797,-11.5831,-11.6266,-11.698,-11.7262,-11.7819,-11.7957,-11.8265,-11.83,-11.8334,-11.8295,-11.8152,-11.8118,-11.8205,-11.8128,-11.7814,-11.7292,-11.6397,-11.5477,-11.473,-11.4184,-11.3942,-11.3969,-11.4228,-11.4612,-11.5243,-11.6067,-11.6953,-11.7466,-11.7677,-11.7573,-11.7591,-11.7614,-11.7999,-11.8072,-11.7905,-11.7701,-11.7416,-11.7229,-11.7055,-11.703,-11.7458,-11.8092,-11.8952,-11.9399,-11.9284,-11.9146,-11.8957,-11.8741,-11.8437,-11.8194,-11.8052,-11.7447,-11.6744,-11.5476,-11.4471,-11.2846,-11.1383,-10.9964,-10.8517,-10.7455,-10.651,-10.5362,-10.4478,-10.3671,-10.2766,-10.1821,-10.1279,-10.0837,-9.993,-9.8907,-9.8459,-9.8126,-9.7969,-9.7901,-9.7563,-9.7394,-9.7597,-11.2737,-11.2696,-11.2411,-11.22,-11.2101,-11.2267,-11.2333,-11.2432,-11.3095,-11.3426,-11.3426,-11.3581,-11.3734,-11.4007,-11.4159,-11.4462,-11.4662,-11.3682,-11.3324,-11.293,-11.2204,-11.1636,-11.1399,-11.1399,-11.1399,-11.1399,-11.1399,-11.1399,-11.1467,-11.1906,-11.2245,-11.2854,-11.3928,-11.4603,-11.485,-11.5492,-11.5695,-11.5976,-11.5976,-11.641,-11.7121,-11.7957,-11.8367,-11.8367,-11.8637,-11.8876,-11.8949,-11.9074,-11.9226,-11.9452,-11.9617,-11.998,-12.0073,-11.98,-11.8689,-11.6992,-11.59,-11.4956,-11.4514,-11.4228,-11.4357,-11.474,-11.5579,-11.651,-11.7197,-11.7794,-11.7875,-11.8142,-11.8022,-11.8213,-11.837,-11.8312,-11.8201,-11.7888,-11.7748,-11.7611,-11.7154,-11.7001,-11.7059,-11.7823,-11.8775,-11.916,-11.9085,-11.8885,-11.8702,-11.8828,-11.8538,-11.8027,-11.7779,-11.7155,-11.6272,-11.4708,-11.3289,-11.1663,-11.023,-10.8922,-10.7603,-10.6473,-10.5671,-10.4774,-10.3902,-10.3107,-10.2034,-10.1059,-10.0387,-9.993,-9.9145,-9.858,-9.8371,-9.8126,-9.8003,-9.7901,-9.7698,-9.7563,-9.7631,-11.2597,-11.2279,-11.2333,-11.1869,-11.1524,-11.1969,-11.2267,-11.23,-11.3029,-11.3426,-11.3227,-11.3635,-11.3874,-11.4026,-11.4628,-11.4993,-11.4906,-11.4481,-11.3884,-11.3387,-11.2576,-11.2008,-11.1501,-11.1399,-11.1399,-11.1399,-11.1399,-11.1399,-11.1433,-11.1534,-11.1906,-11.2583,-11.3361,-11.4072,-11.4892,-11.557,-11.5942,-11.6266,-11.641,-11.698,-11.7957,-11.8637,-11.9039,-11.9172,-11.9436,-11.9575,-11.9652,-11.9967,-12.0187,-12.014,-12.0617,-12.1112,-12.1357,-12.1685,-12.1271,-11.964,-11.767,-11.5493,-11.5155,-11.4798,-11.4705,-11.5332,-11.6272,-11.7405,-11.7941,-11.8321,-11.8603,-11.9217,-11.8473,-11.829,-11.8761,-11.8956,-11.8508,-11.8179,-11.8089,-11.763,-11.7067,-11.7136,-11.7225,-11.7443,-11.8398,-11.8796,-11.8929,-11.8668,-11.8475,-11.8569,-11.8544,-11.8013,-11.7412,-11.6693,-11.5503,-11.3914,-11.2494,-11.0866,-10.9557,-10.8219,-10.7095,-10.5871,-10.4969,-10.4276,-10.3309,-10.2351,-10.1353,-10.0387,-9.9814,-9.9264,-9.8701,-9.8371,-9.8126,-9.8003,-9.8003,-9.8003,-9.7969,-9.7867,-9.7732,-11.2841,-11.23,-11.1869,-11.1505,-11.1207,-11.1538,-11.167,-11.1803,-11.2738,-11.2871,-11.269,-11.2925,-11.3225,-11.3589,-11.411,-11.4255,-11.4222,-11.4198,-11.3894,-11.3564,-11.2921,-11.2346,-11.1974,-11.1602,-11.1399,-11.1399,-11.1399,-11.1505,-11.1505,-11.1573,-11.1737,-11.2589,-11.351,-11.429,-11.5043,-11.6002,-11.6594,-11.7087,-11.7646,-11.8298,-11.8836,-11.9366,-11.9757,-12.0015,-12.0398,-12.0587,-12.0833,-12.1236,-12.1449,-12.1529,-12.2119,-12.2477,-12.2629,-12.2859,-12.2794,-12.1976,-11.9574,-11.7495,-11.6257,-11.5502,-11.5437,-11.5754,-11.6837,-11.7758,-11.8337,-11.8783,-11.8773,-11.8436,-11.8008,-11.8268,-11.8994,-11.917,-11.8682,-11.8412,-11.8471,-11.7862,-11.7405,-11.7347,-11.7433,-11.7683,-11.7897,-11.8333,-11.8637,-11.8466,-11.824,-11.8169,-11.8091,-11.7647,-11.6891,-11.5984,-11.4611,-11.2963,-11.1612,-11.0254,-10.9077,-10.7848,-10.7035,-10.5895,-10.4835,-10.3951,-10.2665,-10.1571,-10.0787,-9.9918,-9.9179,-9.8735,-9.8249,-9.8126,-9.8037,-9.8003,-9.8003,-9.8172,-9.8273,-9.807,-9.7935,-11.2996,-11.2267,-11.177,-11.1405,-11.124,-11.1557,-11.1524,-11.1458,-11.2608,-11.2658,-11.2125,-11.2503,-11.2763,-11.3166,-11.3556,-11.3767,-11.3666,-11.3598,-11.3598,-11.3395,-11.3057,-11.2685,-11.2346,-11.1873,-11.1602,-11.1399,-11.1399,-11.1505,-11.1784,-11.1818,-11.2055,-11.2633,-11.3663,-11.462,-11.5511,-11.644,-11.7302,-11.8229,-11.9067,-11.9687,-12.02,-12.0579,-12.0953,-12.12,-12.1515,-12.1799,-12.2033,-12.2472,-12.284,-12.2888,-12.3212,-12.3427,-12.3431,-12.3467,-12.3286,-12.2378,-12.0483,-11.901,-11.762,-11.6646,-11.6137,-11.6639,-11.7426,-11.8423,-11.8578,-11.9091,-11.8898,-11.7904,-11.8118,-11.8393,-11.8944,-11.943,-11.9315,-11.9152,-11.9143,-11.8401,-11.7862,-11.7957,-11.7863,-11.7855,-11.8001,-11.8063,-11.8241,-11.8189,-11.804,-11.7857,-11.7582,-11.7237,-11.6357,-11.5367,-11.4085,-11.2577,-11.1497,-11.0182,-10.9013,-10.7797,-10.6966,-10.593,-10.4879,-10.38,-10.2627,-10.1534,-10.0724,-9.9762,-9.8886,-9.8473,-9.8261,-9.807,-9.807,-9.8307,-9.8544,-9.8578,-9.8578,-9.8375,-9.8183,-11.2996,-11.23,-11.2267,-11.1836,-11.1273,-11.2391,-11.2408,-11.1909,-11.2991,-11.2938,-11.2269,-11.2629,-11.2964,-11.3319,-11.3361,-11.3395,-11.353,-11.3598,-11.3496,-11.3496,-11.3463,-11.2989,-11.2549,-11.2211,-11.194,-11.1467,-11.1399,-11.1645,-11.1888,-11.23,-11.2606,-11.3047,-11.414,-11.4894,-11.5921,-11.7251,-11.8572,-11.9606,-12.0669,-12.1286,-12.177,-12.2126,-12.2397,-12.2744,-12.3009,-12.3297,-12.3316,-12.3596,-12.3684,-12.3649,-12.4032,-12.3931,-12.36,-12.3595,-12.3236,-12.2444,-12.1186,-11.9995,-11.8972,-11.7638,-11.698,-11.7458,-11.8292,-11.912,-11.9224,-11.8849,-11.8371,-11.7954,-11.8317,-11.8873,-11.943,-11.9899,-11.9978,-11.9916,-11.9652,-11.9261,-11.8808,-11.8682,-11.8578,-11.8235,-11.8107,-11.812,-11.7983,-11.7976,-11.7849,-11.7673,-11.7114,-11.675,-11.5724,-11.4747,-11.3678,-11.2474,-11.1588,-11.0472,-10.9239,-10.8219,-10.7386,-10.6256,-10.5074,-10.4076,-10.2902,-10.1842,-10.0584,-10.0084,-9.9356,-9.8736,-9.8273,-9.8341,-9.8476,-9.8848,-9.8984,-9.8747,-9.8859,-9.8835,-9.8641,-11.3261,-11.2962,-11.2804,-11.2439,-11.2324,-11.2158,-11.2258,-11.2255,-11.2382,-11.217,-11.1852,-11.1961,-11.2103,-11.2279,-11.2245,-11.2245,-11.2312,-11.2752,-11.2854,-11.2921,-11.282,-11.2718,-11.238,-11.2076,-11.1636,-11.1433,-11.1365,-11.1922,-11.2572,-11.2941,-11.4054,-11.4809,-11.5169,-11.6098,-11.7215,-11.8513,-12.0034,-12.1209,-12.2055,-12.2673,-12.3087,-12.3312,-12.3572,-12.3829,-12.3938,-12.4083,-12.4265,-12.4622,-12.4417,-12.4246,-12.4292,-12.3962,-12.3487,-12.3377,-12.3121,-12.2517,-12.1409,-12.0668,-12.0171,-11.884,-11.8263,-11.9008,-11.9572,-11.9781,-11.9466,-11.9068,-11.8581,-11.8462,-11.8617,-11.9256,-11.9888,-12.0397,-12.063,-12.0438,-12.03,-12.0026,-11.9762,-11.9598,-11.9027,-11.861,-11.8276,-11.8092,-11.7943,-11.7775,-11.7634,-11.7482,-11.6827,-11.6147,-11.5136,-11.4091,-11.3112,-11.2183,-11.13,-11.0536,-10.9316,-10.8493,-10.7785,-10.6598,-10.5284,-10.4149,-10.2976,-10.1733,-10.0644,-10.0046,-9.982,-9.939,-9.9085,-9.8781,-9.8747,-9.8815,-9.8747,-9.8487,-9.8733,-9.9214,-9.8731,-11.3426,-11.3481,-11.3056,-11.2908,-11.2808,-11.2441,-11.2121,-11.2181,-11.2146,-11.1758,-11.1399,-11.1399,-11.1399,-11.1399,-11.1433,-11.1467,-11.1636,-11.194,-11.2279,-11.2448,-11.2549,-11.2482,-11.2279,-11.2042,-11.1771,-11.1467,-11.1645,-11.206,-11.2976,-11.3472,-11.4692,-11.5945,-11.6815,-11.7417,-11.852,-12.0045,-12.1374,-12.2223,-12.2739,-12.3178,-12.3501,-12.3501,-12.3931,-12.4215,-12.4392,-12.4459,-12.4599,-12.4731,-12.4429,-12.408,-12.3922,-12.3665,-12.3261,-12.2894,-12.2723,-12.2196,-12.1594,-12.0992,-12.0571,-12.0112,-11.953,-12.0059,-11.9966,-11.9772,-11.9294,-11.8938,-11.845,-11.8505,-11.8978,-11.9657,-12.0317,-12.0774,-12.1178,-12.1181,-12.1424,-12.1192,-12.0702,-12.0388,-11.9592,-11.8903,-11.8638,-11.834,-11.7597,-11.7365,-11.7007,-11.6789,-11.6247,-11.5505,-11.4602,-11.3582,-11.262,-11.1689,-11.0807,-11.0109,-10.934,-10.8627,-10.7938,-10.6741,-10.5474,-10.4194,-10.304,-10.1688,-10.0986,-10.07,-10.0438,-10.0168,-9.9829,-9.9491,-9.9018,-9.8544,-9.8781,-9.9062,-9.881,-9.9094,-9.8281,-11.3581,-11.3907,-11.3208,-11.2875,-11.2892,-11.2998,-11.2617,-11.2045,-11.2272,-11.2008,-11.1433,-11.1399,-11.1399,-11.1399,-11.1399,-11.1399,-11.1399,-11.1501,-11.1771,-11.2211,-11.2245,-11.238,-11.2346,-11.2143,-11.1771,-11.1607,-11.1784,-11.2163,-11.3109,-11.4168,-11.5456,-11.7015,-11.7989,-11.8725,-11.9486,-12.0462,-12.1332,-12.1975,-12.2226,-12.2648,-12.2926,-12.3101,-12.3633,-12.4063,-12.431,-12.4273,-12.4373,-12.441,-12.4032,-12.3408,-12.3261,-12.2894,-12.2233,-12.2123,-12.1866,-12.1182,-12.1035,-12.0889,-12.0779,-12.0511,-12.0435,-12.0279,-12.0067,-11.9479,-11.8807,-11.8439,-11.8464,-11.8692,-11.9354,-11.9999,-12.0663,-12.1144,-12.159,-12.1889,-12.2102,-12.2012,-12.1442,-12.1162,-12.0422,-11.9483,-11.9136,-11.8747,-11.7694,-11.6936,-11.6466,-11.6052,-11.5582,-11.4838,-11.3965,-11.3075,-11.2102,-11.13,-11.0481,-10.9824,-10.9214,-10.8711,-10.7879,-10.6839,-10.5574,-10.4159,-10.331,-10.2495,-10.1911,-10.1419,-10.1216,-10.1047,-10.0608,-10.0168,-9.9627,-9.9221,-9.9796,-9.9974,-9.9619,-9.9009,-9.8521,-11.3854,-11.3907,-11.3307,-11.2918,-11.2818,-11.2439,-11.2256,-11.2272,-11.2008,-11.1602,-11.1433,-11.1399,-11.1399,-11.1399,-11.1399,-11.1399,-11.1399,-11.1399,-11.167,-11.1737,-11.1805,-11.1737,-11.1771,-11.1805,-11.1776,-11.1713,-11.1888,-11.2572,-11.3769,-11.4891,-11.6509,-11.8118,-11.949,-12.0378,-12.0736,-12.1276,-12.1839,-12.2452,-12.2801,-12.3001,-12.3064,-12.3163,-12.3273,-12.3701,-12.3701,-12.3701,-12.3665,-12.3701,-12.3261,-12.26,-12.249,-12.2123,-12.1536,-12.1389,-12.1242,-12.0948,-12.0912,-12.1066,-12.1218,-12.133,-12.1181,-12.0637,-12.0035,-11.9513,-11.8946,-11.845,-11.8618,-11.9015,-11.9684,-12.0397,-12.0936,-12.1438,-12.1882,-12.2232,-12.2411,-12.2267,-12.192,-12.1794,-12.1325,-12.0303,-11.9665,-11.8539,-11.7442,-11.6736,-11.6223,-11.5418,-11.4876,-11.4194,-11.3368,-11.2543,-11.1605,-11.0897,-11.0145,-10.9474,-10.8878,-10.8264,-10.7381,-10.6057,-10.5015,-10.3898,-10.3257,-10.2861,-10.2597,-10.213,-10.2028,-10.1927,-10.1352,-10.0811,-10.0269,-10.01,-10.0641,-10.0522,-9.9901,-9.9518,-9.9241,-11.4026,-11.396,-11.3502,-11.3223,-11.3031,-11.2088,-11.1934,-11.2008,-11.1602,-11.1399,-11.1399,-11.1399,-11.1399,-11.1399,-11.1399,-11.1399,-11.1399,-11.1399,-11.1399,-11.1399,-11.1399,-11.1467,-11.1433,-11.1505,-11.1713,-11.1888,-11.23,-11.2976,-11.3934,-11.5529,-11.7346,-11.9231,-12.0736,-12.0928,-12.1129,-12.1328,-12.1573,-12.1939,-12.2038,-12.2209,-12.2343,-12.2417,-12.2564,-12.2784,-12.2894,-12.2894,-12.2894,-12.2747,-12.2527,-12.194,-12.1609,-12.1462,-12.1059,-12.0912,-12.0912,-12.0912,-12.1066,-12.1348,-12.1716,-12.1948,-12.1481,-12.0406,-12.0145,-11.9533,-11.8886,-11.8539,-11.8803,-11.9324,-12.0099,-12.0643,-12.1206,-12.175,-12.2121,-12.2517,-12.2622,-12.2513,-12.2572,-12.2459,-12.2052,-12.1011,-12.0122,-11.8784,-11.7429,-11.6645,-11.6011,-11.5119,-11.4221,-11.3481,-11.2698,-11.1901,-11.1126,-11.0481,-10.9861,-10.9277,-10.8471,-10.7738,-10.6688,-10.5285,-10.4436,-10.3713,-10.3516,-10.3207,-10.2976,-10.2806,-10.2536,-10.2231,-10.1893,-10.1419,-10.1149,-10.1021,-10.1325,-10.0871,-10.0178,-9.9584,-9.9362,-11.396,-11.4098,-11.4031,-11.3851,-11.3361,-11.2042,-11.1467,-11.1433,-11.1399,-11.1399,-11.1399,-11.1399,-11.1399,-11.1399,-11.1399,-11.1399,-11.1399,-11.1399,-11.1399,-11.1399,-11.1539,-11.1539,-11.1505,-11.1784,-11.206,-11.2197,-11.2572,-11.3277,-11.4133,-11.6033,-11.8046,-11.9779,-12.0772,-12.0956,-12.0987,-12.1035,-12.1072,-12.1256,-12.1389,-12.1426,-12.1462,-12.1279,-12.1609,-12.1903,-12.205,-12.205,-12.205,-12.2013,-12.1646,-12.1242,-12.0985,-12.0948,-12.0912,-12.0912,-12.0912,-12.1007,-12.1348,-12.1624,-12.1859,-12.2088,-12.1322,-12.0331,-12.0016,-11.9177,-11.8562,-11.8543,-11.9086,-11.9722,-12.0338,-12.0964,-12.1577,-12.1965,-12.2339,-12.2655,-12.2929,-12.2995,-12.3114,-12.2939,-12.2513,-12.18,-12.1061,-11.9841,-11.8298,-11.7285,-11.6091,-11.4959,-11.3931,-11.2844,-11.2049,-11.1263,-11.0627,-11.0145,-10.951,-10.8979,-10.8264,-10.7164,-10.6127,-10.4813,-10.438,-10.3745,-10.3668,-10.3415,-10.3314,-10.3111,-10.284,-10.2536,-10.2198,-10.2198,-10.2265,-10.217,-10.1838,-10.1212,-10.0317,-9.9285,-9.8598,-11.338,-11.3257,-11.3041,-11.2846,-11.2685,-11.1805,-11.1399,-11.1399,-11.1399,-11.1399,-11.1399,-11.1399,-11.1399,-11.1399,-11.1399,-11.1399,-11.1399,-11.1399,-11.1399,-11.1505,-11.1645,-11.1784,-11.1922,-11.2197,-11.247,-11.2606,-11.301,-11.3541,-11.4752,-11.6563,-11.8117,-11.9596,-12.0458,-12.0644,-12.0743,-12.0779,-12.0912,-12.0912,-12.0912,-12.0912,-12.0912,-12.0912,-12.1132,-12.1279,-12.1352,-12.1389,-12.1352,-12.1352,-12.1095,-12.0985,-12.0912,-12.0912,-12.0912,-12.0912,-12.0912,-12.1124,-12.1404,-12.1679,-12.1874,-12.1693,-12.0962,-12.0044,-11.9699,-11.9164,-11.8654,-11.88,-11.9459,-12.006,-12.0643,-12.1304,-12.1802,-12.2194,-12.2535,-12.283,-12.3059,-12.3176,-12.3239,-12.3074,-12.2628,-12.2072,-12.1342,-12.0236,-11.8763,-11.7588,-11.6404,-11.5047,-11.3744,-11.2494,-11.1434,-11.07,-11.0202,-10.9704,-10.9214,-10.8676,-10.7596,-10.65,-10.5401,-10.4401,-10.3986,-10.3626,-10.3336,-10.3246,-10.3483,-10.3449,-10.3179,-10.2874,-10.2502,-10.2603,-10.2739,-10.2406,-10.2074,-10.1349,-10.0585,-9.9447,-9.8216,-11.2998,-11.2872,-11.2846,-11.2752,-11.238,-11.1703,-11.1399,-11.1399,-11.1399,-11.1399,-11.1399,-11.1399,-11.1399,-11.1399,-11.1399,-11.1399,-11.1399,-11.1399,-11.1539,-11.1645,-11.1784,-11.206,-11.2197,-11.247,-11.2741,-11.301,-11.3277,-11.3707,-11.4914,-11.6615,-11.8234,-11.9263,-12.0139,-12.03,-12.0372,-12.0548,-12.0779,-12.0912,-12.0912,-12.0912,-12.0912,-12.0912,-12.0912,-12.0912,-12.0912,-12.0912,-12.0912,-12.0912,-12.0912,-12.0912,-12.0912,-12.0912,-12.0912,-12.0971,-12.116,-12.1311,-12.1624,-12.1637,-12.1606,-12.1322,-12.0639,-11.9877,-11.9415,-11.9215,-11.9104,-11.9256,-11.9812,-12.0417,-12.1016,-12.1629,-12.2005,-12.2401,-12.275,-12.303,-12.3126,-12.3231,-12.3161,-12.3095,-12.261,-12.2067,-12.1181,-12.0134,-11.8946,-11.7811,-11.6539,-11.4943,-11.3399,-11.2086,-11.1047,-11.0369,-10.9861,-10.951,-10.8878,-10.8264,-10.7019,-10.5899,-10.4931,-10.4139,-10.3745,-10.3404,-10.3009,-10.3145,-10.3517,-10.3585,-10.3551,-10.3314,-10.3111,-10.3009,-10.3043,-10.2744,-10.2184,-10.1253,-10.055,-9.9599,-9.8449,-11.2703,-11.2448,-11.3124,-11.2888,-11.2346,-11.167,-11.1399,-11.1399,-11.1399,-11.1399,-11.1399,-11.1399,-11.1399,-11.1399,-11.1399,-11.1399,-11.1365,-11.1505,-11.1645,-11.1888,-11.2026,-11.23,-11.2606,-11.2876,-11.3044,-11.3178,-11.3444,-11.3707,-11.453,-11.5947,-11.7324,-11.8818,-11.927,-11.9525,-11.9785,-12.0153,-12.045,-12.0779,-12.0815,-12.0815,-12.0912,-12.0912,-12.0912,-12.0912,-12.0912,-12.0912,-12.0912,-12.0912,-12.0912,-12.0912,-12.0912,-12.0912,-12.0971,-12.1029,-12.1311,-12.1385,-12.1621,-12.1518,-12.1173,-12.0776,-12.0081,-11.9512,-11.9281,-11.9294,-11.9274,-11.9592,-12.022,-12.0752,-12.1352,-12.1885,-12.23,-12.2587,-12.288,-12.3095,-12.3223,-12.3239,-12.3152,-12.2874,-12.229,-12.1689,-12.0986,-12.0016,-11.9242,-11.8099,-11.6556,-11.487,-11.3351,-11.1979,-11.0733,-10.9969,-10.951,-10.9214,-10.8573,-10.7808,-10.6688,-10.5518,-10.4488,-10.3871,-10.3524,-10.3241,-10.2942,-10.3179,-10.3551,-10.3585,-10.3618,-10.3889,-10.3889,-10.3585,-10.3319,-10.3323,-10.2558,-10.1386,-10.0369,-9.9536,-9.8059,-11.1664,-11.167,-11.1839,-11.1805,-11.1636,-11.1467,-11.1399,-11.1399,-11.1399,-11.1433,-11.1399,-11.1399,-11.1399,-11.1399,-11.1399,-11.1399,-11.1399,-11.1645,-11.1784,-11.2197,-11.2334,-11.2606,-11.2876,-11.3178,-11.3444,-11.3444,-11.3576,-11.3707,-11.4297,-11.5167,-11.5913,-11.6758,-11.7575,-11.8297,-11.9052,-11.9506,-12.0052,-12.0548,-12.0682,-12.0815,-12.0912,-12.0912,-12.0912,-12.0912,-12.0912,-12.0912,-12.0912,-12.0912,-12.0912,-12.0912,-12.0912,-12.0912,-12.0912,-12.1124,-12.1311,-12.1514,-12.1304,-12.1123,-12.0616,-12.0118,-11.9347,-11.9072,-11.8911,-11.9101,-11.943,-11.9975,-12.0474,-12.1105,-12.159,-12.2118,-12.2527,-12.2765,-12.3018,-12.3191,-12.3309,-12.32,-12.3112,-12.2509,-12.1846,-12.1313,-12.0681,-11.9999,-11.9249,-11.8055,-11.65,-11.5,-11.3607,-11.2175,-11.08,-10.9777,-10.9277,-10.8878,-10.8228,-10.7345,-10.6205,-10.5167,-10.4124,-10.3417,-10.2963,-10.2936,-10.284,-10.3077,-10.3348,-10.3517,-10.3652,-10.3923,-10.399,-10.3754,-10.3589,-10.3629,-10.2826,-10.1511,-10.03,-9.9336,-9.7635,-11.1399,-11.1399,-11.1399,-11.1399,-11.1433,-11.1737,-11.1873,-11.1873,-11.1873,-11.1873,-11.1805,-11.1568,-11.1399,-11.1399,-11.1399,-11.1399,-11.1539,-11.1784,-11.2026,-11.2334,-11.2741,-11.301,-11.3311,-11.3444,-11.3444,-11.3576,-11.361,-11.3742,-11.4098,-11.4485,-11.5083,-11.5789,-11.6557,-11.7219,-11.8263,-11.8946,-11.9573,-12.0252,-12.0351,-12.0584,-12.0912,-12.0912,-12.0912,-12.0912,-12.0912,-12.0912,-12.0912,-12.0912,-12.0912,-12.0912,-12.0912,-12.0971,-12.1066,-12.1311,-12.1274,-12.1214,-12.0948,-12.0567,-11.9996,-11.9338,-11.8685,-11.8637,-11.8881,-11.9193,-11.9824,-12.0397,-12.0912,-12.1447,-12.1844,-12.2373,-12.2711,-12.2952,-12.3122,-12.3285,-12.3198,-12.3086,-12.2671,-12.208,-12.1454,-12.0898,-12.0279,-11.9619,-11.876,-11.7898,-11.6338,-11.4811,-11.3458,-11.2218,-11.0816,-10.9494,-10.8986,-10.8332,-10.7596,-10.6688,-10.5518,-10.4608,-10.379,-10.3073,-10.2631,-10.257,-10.2705,-10.2908,-10.3111,-10.3314,-10.3585,-10.3889,-10.3889,-10.3889,-10.3696,-10.3733,-10.2753,-10.1593,-10.0321,-9.9061,-9.7081,-11.1399,-11.1399,-11.1399,-11.1399,-11.1501,-11.2143,-11.2448,-11.2448,-11.2448,-11.2448,-11.2312,-11.167,-11.1433,-11.1399,-11.1399,-11.1399,-11.1539,-11.1922,-11.2197,-11.2606,-11.2876,-11.3311,-11.3444,-11.3576,-11.3576,-11.3576,-11.361,-11.3742,-11.4003,-11.4228,-11.445,-11.5332,-11.591,-11.6474,-11.7518,-11.8299,-11.8946,-11.9573,-12.0016,-12.045,-12.0682,-12.0912,-12.0912,-12.0912,-12.0912,-12.0912,-12.0912,-12.0912,-12.0912,-12.0912,-12.0912,-12.1066,-12.1218,-12.1404,-12.1161,-12.0971,-12.0752,-11.9985,-11.9179,-11.8752,-11.8519,-11.8579,-11.8985,-11.9497,-12.0197,-12.079,-12.1304,-12.1759,-12.2196,-12.2472,-12.2791,-12.3095,-12.3206,-12.3242,-12.3106,-12.2861,-12.2264,-12.1678,-12.1156,-12.0531,-11.985,-11.9256,-11.8243,-11.7375,-11.6158,-11.4635,-11.332,-11.2037,-11.0785,-10.9532,-10.8725,-10.7738,-10.6799,-10.5899,-10.4966,-10.4158,-10.3326,-10.2981,-10.2502,-10.2502,-10.257,-10.2739,-10.2908,-10.3179,-10.3449,-10.3585,-10.4058,-10.413,-10.3967,-10.363,-10.2872,-10.1724,-9.9922,-9.8362,-9.6355,-11.1399,-11.1399,-11.1399,-11.1399,-11.1501,-11.2177,-11.2482,-11.2482,-11.2515,-11.2482,-11.2346,-11.1771,-11.1399,-11.1399,-11.1399,-11.1505,-11.1784,-11.2163,-11.2606,-11.2876,-11.3178,-11.3444,-11.3576,-11.3576,-11.3576,-11.3576,-11.3576,-11.3576,-11.3742,-11.3742,-11.3969,-11.445,-11.5048,-11.5631,-11.6356,-11.729,-11.8225,-11.8946,-11.9573,-12.0153,-12.0584,-12.0779,-12.0912,-12.0912,-12.0912,-12.0912,-12.0912,-12.0912,-12.0912,-12.0912,-12.0912,-12.1066,-12.1218,-12.1422,-12.1161,-12.0652,-12.0431,-11.9625,-11.8854,-11.8432,-11.8193,-11.8581,-11.9015,-11.9722,-12.0359,-12.1016,-12.1584,-12.2082,-12.2406,-12.2635,-12.2929,-12.3126,-12.3301,-12.3174,-12.3044,-12.2558,-12.2004,-12.15,-12.0898,-12.0279,-11.9629,-11.8688,-11.7581,-11.6714,-11.5772,-11.4422,-11.3452,-11.2121,-11.088,-10.9689,-10.8414,-10.7333,-10.6153,-10.532,-10.4488,-10.3824,-10.3107,-10.2759,-10.2536,-10.2536,-10.2536,-10.2536,-10.2705,-10.2942,-10.2976,-10.3009,-10.3551,-10.3862,-10.3834,-10.3354,-10.2842,-10.1693,-9.9732,-9.7821,-9.574]}]]